[[{"header":{"parameterUnit":"m.s-1","parameterCategory":1,"la1":30.6,"la2":28.766,"lo1":-90.7593,"lo2":-88.6598,"dy":0.0162,"dx":0.0183,"nx":116,"ny":114,"refTime":"2024-03-21T18:00:00:Z","depth":0,"parameterNumber":2,"parameterNumberName":"U-component_of_WINDS"},"data":[0.0,0.0,0.0,0.0,0.0,0.0,0.0,0.0,0.0,0.0,0.0,0.0,0.0,0.0,0.0,0.0,0.0,0.0,0.0,0.0,0.0,0.0,0.0,0.0,0.0,0.0,0.0,0.0,0.0,0.0,0.0,0.0,0.0,0.0,0.0,0.0,0.0,0.0,0.0,0.0,0.0,0.0,0.0,0.0,0.0,0.0,0.0,0.0,0.0,0.0,0.0,0.0,0.0,0.0,0.0,0.0,0.0,0.0,0.0,0.0,0.0,0.0,0.0,0.0,0.0,0.0,0.0,0.0,0.0,0.0,0.0,0.0,0.0,0.0,0.0,0.0,0.0,0.0,0.0,0.0,0.0,0.0,0.0,0.0,0.0,0.0,0.0,0.0,0.0,0.0,0.0,0.0,0.0,0.0,0.0,0.0,0.0,0.0,0.0,0.0,0.0,0.0,0.0,0.0,0.0,0.0,0.0,0.0,0.0,0.0,0.0,0.0,0.0,0.0,0.0,0.0,0.0,0.0,0.0,0.0,0.0,0.0,0.0,0.0,0.0,0.0,0.0,0.0,0.0,0.0,0.0,0.0,0.0,0.0,0.0,0.0,0.0,0.0,0.0,0.0,0.0,0.0,0.0,0.0,0.0,0.0,0.0,0.0,0.0,0.0,0.0,0.0,0.0,0.0,0.0,0.0,0.0,0.0,0.0,0.0,0.0,0.0,0.0,0.0,0.0,0.0,0.0,0.0,0.0,0.0,0.0,0.0,0.0,0.0,0.0,0.0,0.0,0.0,0.0,0.0,0.0,0.0,0.0,0.0,0.0,0.0,0.0,0.0,0.0,0.0,0.0,0.0,0.0,0.0,0.0,0.0,0.0,0.0,0.0,0.0,0.0,0.0,0.0,0.0,0.0,0.0,0.0,0.0,0.0,0.0,0.0,0.0,0.0,0.0,0.0,0.0,0.0,0.0,0.0,0.0,0.0,0.0,0.0,0.0,0.0,0.0,0.0,0.0,0.0,0.0,0.0,0.0,0.0,0.0,0.0,0.0,0.0,0.0,0.0,0.0,0.0,0.0,0.0,0.0,0.0,0.0,0.0,0.0,0.0,0.0,0.0,0.0,0.0,0.0,0.0,0.0,0.0,0.0,0.0,0.0,0.0,0.0,0.0,0.0,0.0,0.0,0.0,0.0,0.0,0.0,0.0,0.0,0.0,0.0,0.0,0.0,0.0,0.0,0.0,0.0,0.0,0.0,0.0,0.0,0.0,0.0,0.0,0.0,0.0,0.0,0.0,0.0,0.0,0.0,0.0,0.0,0.0,0.0,0.0,0.0,0.0,0.0,0.0,0.0,0.0,0.0,0.0,0.0,0.0,0.0,0.0,0.0,0.0,0.0,0.0,0.0,0.0,0.0,0.0,0.0,0.0,0.0,0.0,0.0,0.0,0.0,0.0,0.0,0.0,0.0,0.0,0.0,0.0,0.0,0.0,0.0,0.0,0.0,0.0,0.0,0.0,0.0,0.0,0.0,0.0,0.0,0.0,0.0,0.0,0.0,0.0,0.0,0.0,0.0,0.0,0.0,0.0,0.0,0.0,0.0,0.0,0.0,0.0,0.0,0.0,0.0,0.0,0.0,0.0,0.0,0.0,0.0,0.0,0.0,0.0,0.0,0.0,0.0,0.0,0.0,0.0,0.0,0.0,0.0,0.0,0.0,0.0,0.0,0.0,0.0,0.0,0.0,0.0,0.0,0.0,0.0,0.0,0.0,0.0,0.0,0.0,0.0,0.0,0.0,0.0,0.0,0.0,0.0,0.0,0.0,0.0,0.0,0.0,0.0,0.0,0.0,0.0,0.0,0.0,0.0,0.0,0.0,0.0,0.0,0.0,0.0,0.0,0.0,0.0,0.0,0.0,0.0,0.0,0.0,0.0,0.0,0.0,0.0,0.0,0.0,0.0,0.0,0.0,0.0,0.0,0.0,0.0,0.0,0.0,0.0,0.0,0.0,0.0,0.0,0.0,0.0,0.0,0.0,0.0,0.0,0.0,0.0,0.0,0.0,0.0,0.0,0.0,0.0,0.0,0.0,0.0,0.0,0.0,0.0,0.0,0.0,0.0,0.0,0.0,0.0,0.0,0.0,0.0,0.0,0.0,0.0,0.0,0.0,0.0,0.0,0.0,0.0,0.0,0.0,0.0,0.0,0.0,0.0,0.0,0.0,0.0,0.0,0.0,0.0,0.0,0.0,0.0,0.0,0.0,0.0,0.0,0.0,0.0,0.0,0.0,0.0,0.0,0.0,0.0,0.0,0.0,0.0,0.0,0.0,0.0,0.0,0.0,0.0,0.0,0.0,0.0,0.0,0.0,0.0,0.0,0.0,0.0,0.0,0.0,0.0,0.0,0.0,0.0,0.0,0.0,0.0,0.0,0.0,0.0,0.0,0.0,0.0,0.0,0.0,0.0,0.0,0.0,0.0,0.0,0.0,0.0,0.0,0.0,0.0,0.0,0.0,0.0,0.0,0.0,0.0,0.0,0.0,0.0,0.0,0.0,0.0,0.0,0.0,0.0,0.0,0.0,0.0,0.0,0.0,0.0,0.0,0.0,0.0,0.0,0.0,0.0,0.0,0.0,0.0,0.0,0.0,0.0,0.0,0.0,0.0,0.0,0.0,0.0,0.0,0.0,0.0,0.0,0.0,0.0,0.0,0.0,0.0,0.0,0.0,0.0,0.0,0.0,0.0,0.0,0.0,0.0,0.0,0.0,0.0,0.0,0.0,0.0,0.0,0.0,0.0,0.0,0.0,0.0,0.0,0.0,0.0,0.0,0.0,0.0,0.0,0.0,0.0,0.0,0.0,0.0,0.0,0.0,0.0,0.0,0.0,0.0,0.0,0.0,0.0,0.0,0.0,0.0,0.0,0.0,0.0,0.0,0.0,0.0,0.0,0.0,0.0,0.0,0.0,0.0,0.0,0.0,0.0,0.0,0.0,0.0,0.0,0.0,0.0,0.0,0.0,0.0,0.0,0.0,0.0,0.0,0.0,0.0,0.0,0.0,0.0,0.0,0.0,0.0,0.0,0.0,0.0,0.0,0.0,0.0,0.0,0.0,0.0,0.0,0.0,0.0,0.0,0.0,0.0,0.0,0.0,0.0,0.0,0.0,0.0,0.0,0.0,0.0,0.0,0.0,0.0,0.0,0.0,0.0,0.0,0.0,0.0,0.0,0.0,0.0,0.0,0.0,0.0,0.0,0.0,0.0,0.0,0.0,0.0,0.0,0.0,0.0,0.0,0.0,0.0,0.0,0.0,0.0,0.0,0.0,0.0,0.0,0.0,0.0,0.0,0.0,0.0,0.0,0.0,0.0,0.0,0.0,0.0,0.0,0.0,0.0,0.0,0.0,0.0,0.0,0.0,0.0,0.0,0.0,0.0,0.0,0.0,0.0,0.0,0.0,0.0,0.0,0.0,0.0,0.0,0.0,0.0,0.0,0.0,0.0,0.0,0.0,0.0,0.0,0.0,0.0,0.0,0.0,0.0,0.0,0.0,0.0,0.0,0.0,0.0,0.0,0.0,0.0,0.0,0.0,0.0,0.0,0.0,0.0,0.0,0.0,0.0,0.0,0.0,0.0,0.0,0.0,0.0,0.0,0.0,0.0,0.0,0.0,0.0,0.0,0.0,0.0,0.0,0.0,0.0,0.0,0.0,0.0,0.0,0.0,0.0,0.0,0.0,0.0,0.0,0.0,0.0,0.0,0.0,0.0,0.0,0.0,0.0,0.0,0.0,0.0,0.0,0.0,0.0,0.0,0.0,0.0,0.0,0.0,0.0,0.0,0.0,0.0,0.0,0.0,0.0,0.0,0.0,0.0,0.0,0.0,0.0,0.0,0.0,0.0,0.0,0.0,0.0,0.0,0.0,0.0,0.0,0.0,0.0,0.0,0.0,0.0,0.0,0.0,0.0,0.0,0.0,0.0,0.0,0.0,0.0,0.0,0.0,0.0,0.0,0.0,0.0,0.0,0.0,0.0,0.0,0.0,0.0,0.0,0.0,0.0,0.0,0.0,0.0,0.0,0.0,0.0,0.0,0.0,0.0,0.0,0.0,0.0,0.0,0.0,0.0,0.0,0.0,0.0,0.0,0.0,0.0,0.0,0.0,0.0,0.0,0.0,0.0,0.0,0.0,0.0,0.0,0.0,0.0,0.0,0.0,0.0,0.0,0.0,0.0,0.0,0.0,0.0,0.0,0.0,0.0,0.0,0.0,0.0,0.0,0.0,0.0,0.0,0.0,0.0,0.0,0.0,0.0,0.0,0.0,0.0,0.0,0.0,0.0,0.0,0.0,0.0,0.0,0.0,0.0,0.0,0.0,0.0,0.0,0.0,0.0,0.0,0.0,0.0,0.0,0.0,0.0,0.0,0.0,0.0,0.0,0.0,0.0,0.0,0.0,0.0,0.0,0.0,0.0,0.0,0.0,0.0,0.0,0.0,0.0,0.0,0.0,0.0,0.0,0.0,0.0,0.0,0.0,0.0,0.0,0.0,0.0,0.0,0.0,0.0,0.0,0.0,0.0,0.0,0.0,0.0,0.0,0.0,0.0,0.0,0.0,0.0,0.0,0.0,0.0,0.0,0.0,0.0,0.0,0.0,0.0,0.0,0.0,0.0,0.0,0.0,0.0,0.0,0.0,0.0,0.0,0.0,0.0,0.0,0.0,0.0,0.0,0.0,0.0,0.0,0.0,0.0,0.0,0.0,0.0,0.0,0.0,0.0,0.0,0.0,0.0,0.0,0.0,0.0,0.0,0.0,0.0,0.0,0.0,0.0,0.0,0.0,0.0,0.0,0.0,0.0,0.0,0.0,0.0,0.0,0.0,0.0,0.0,0.0,0.0,0.0,0.0,0.0,0.0,0.0,0.0,0.0,0.0,0.0,0.0,0.0,0.0,0.0,0.0,0.0,0.0,0.0,0.0,0.0,0.0,0.0,0.0,0.0,0.0,0.0,0.0,0.0,0.0,0.0,0.0,0.0,0.0,0.0,0.0,0.0,0.0,0.0,0.0,0.0,0.0,0.0,0.0,0.0,0.0,0.0,0.0,0.0,0.0,0.0,0.0,0.0,0.0,0.0,0.0,0.0,0.0,0.0,0.0,0.0,0.0,0.0,0.0,0.0,0.0,0.0,0.0,0.0,0.0,0.0,0.0,0.0,0.0,0.0,0.0,0.0,0.0,0.0,0.0,0.0,0.0,0.0,0.0,0.0,0.0,0.0,0.0,0.0,0.0,0.0,0.0,0.0,0.0,0.0,0.0,0.0,0.0,0.0,0.0,0.0,0.0,0.0,0.0,0.0,0.0,0.0,0.0,0.0,0.0,0.0,0.0,0.0,0.0,0.0,0.0,0.0,0.0,0.0,0.0,0.0,0.0,0.0,0.0,0.0,0.0,0.0,0.0,0.0,0.0,0.0,0.0,0.0,0.0,0.0,0.0,0.0,0.0,0.0,0.0,0.0,0.0,0.0,0.0,0.0,0.0,0.0,0.0,0.0,0.0,0.0,0.0,0.0,0.0,0.0,0.0,0.0,0.0,0.0,0.0,0.0,0.0,0.0,0.0,0.0,0.0,0.0,0.0,0.0,0.0,0.0,0.0,0.0,0.0,0.0,0.0,0.0,0.0,0.0,0.0,0.0,0.0,0.0,0.0,0.0,0.0,0.0,0.0,0.0,0.0,0.0,0.0,0.0,0.0,0.0,0.0,0.0,0.0,0.0,0.0,0.0,0.0,0.0,0.0,0.0,0.0,0.0,0.0,0.0,0.0,0.0,0.0,0.0,0.0,0.0,0.0,0.0,0.0,0.0,0.0,0.0,0.0,0.0,0.0,0.0,0.0,0.0,0.0,0.0,0.0,0.0,0.0,0.0,0.0,0.0,0.0,0.0,0.0,0.0,0.0,0.0,0.0,0.0,0.0,0.0,0.0,0.0,0.0,0.0,0.0,0.0,0.0,0.0,0.0,0.0,0.0,0.0,0.0,0.0,0.0,0.0,0.0,0.0,0.0,0.0,0.0,0.0,0.0,0.0,0.0,0.0,0.0,0.0,0.0,0.0,0.0,0.0,0.0,2.2809,2.2748,0.0,0.0,0.0,0.0,0.0,0.0,0.0,0.0,0.0,0.0,0.0,0.0,0.0,0.0,0.0,0.0,0.0,0.0,0.0,0.0,0.0,0.0,0.0,0.0,0.0,0.0,2.1983,2.1148,2.0708,1.9561,1.8665,1.8208,1.8305,1.8539,1.9057,1.9867,2.0519,2.1121,2.1954,2.267,2.3098,2.324,2.3442,2.3716,0.0,0.0,0.0,0.0,0.0,0.0,0.0,0.0,0.0,0.0,0.0,0.0,0.0,0.0,0.0,0.0,0.0,0.0,0.0,0.0,0.0,0.0,0.0,0.0,0.0,0.0,0.0,0.0,0.0,0.0,0.0,0.0,0.0,0.0,0.0,0.0,0.0,0.0,0.0,0.0,0.0,0.0,0.0,0.0,0.0,0.0,0.0,0.0,0.0,0.0,0.0,0.0,0.0,0.0,0.0,0.0,0.0,0.0,0.0,0.0,0.0,0.0,0.0,0.0,0.0,0.0,0.0,0.0,0.0,0.0,1.9294,1.8459,0.0,0.0,0.0,0.0,0.0,0.0,0.0,0.0,0.0,0.0,0.0,0.0,0.0,0.0,0.0,0.0,0.0,0.0,0.0,0.0,0.0,0.0,0.0,2.1628,2.1939,2.1877,2.1729,2.1167,1.9968,1.9918,1.9448,1.8401,1.8526,1.8897,1.9375,1.9929,2.0555,2.1272,2.2369,2.3167,2.3747,2.3603,2.3321,2.288,2.2994,0.0,0.0,0.0,0.0,0.0,0.0,0.0,0.0,0.0,0.0,0.0,0.0,0.0,0.0,0.0,0.0,0.0,0.0,0.0,0.0,0.0,0.0,0.0,0.0,0.0,0.0,0.0,0.0,0.0,0.0,0.0,0.0,0.0,0.0,0.0,0.0,0.0,0.0,0.0,0.0,0.0,0.0,0.0,0.0,0.0,0.0,0.0,0.0,0.0,0.0,0.0,0.0,0.0,0.0,0.0,0.0,0.0,0.0,0.0,0.0,0.0,0.0,0.0,2.3838,2.3499,2.3168,2.0898,1.9097,1.7743,1.6763,1.4847,1.2346,1.3498,0.0,0.0,0.0,0.0,0.0,0.0,0.0,0.0,0.0,0.0,0.0,0.0,0.0,0.0,0.0,0.0,0.0,0.0,0.0,0.0,0.0,2.121,2.1502,2.1628,2.0568,2.003,2.0437,1.9041,1.8425,1.8955,1.8934,1.9126,1.9715,2.0723,2.1482,2.1989,2.2892,2.3314,2.322,2.322,2.276,2.2068,2.2504,2.2079,2.1042,0.0,0.0,0.0,0.0,0.0,0.0,0.0,0.0,0.0,0.0,0.0,0.0,0.0,0.0,0.0,0.0,0.0,0.0,0.0,0.0,0.0,0.0,0.0,0.0,0.0,0.0,0.0,0.0,0.0,0.0,0.0,0.0,0.0,0.0,0.0,0.0,0.0,0.0,0.0,0.0,0.0,1.9514,1.8969,0.0,0.0,0.0,0.0,0.0,0.0,0.0,0.0,0.0,0.0,0.0,0.0,0.0,2.4356,2.5088,2.5509,2.5318,2.4469,2.4271,2.3658,2.2615,2.055,1.8718,1.7134,1.6067,0.0,1.1878,1.2743,0.0,0.0,0.0,0.0,0.0,0.0,0.0,0.0,0.0,0.0,0.0,0.0,0.0,0.0,0.0,0.0,0.0,0.0,0.0,0.0,0.0,2.1083,2.1083,2.0677,2.0161,1.9748,1.942,1.8972,1.869,1.8578,1.8762,1.9165,1.9704,2.0637,2.1825,2.3286,2.3502,2.3479,2.3331,2.3189,2.2822,2.217,2.2382,2.1776,2.0424,1.9811,0.0,0.0,0.0,0.0,0.0,0.0,0.0,0.0,0.0,0.0,0.0,0.0,0.0,0.0,0.0,0.0,0.0,0.0,0.0,0.0,0.0,0.0,0.0,0.0,0.0,0.0,0.0,0.0,0.0,0.0,0.0,0.0,0.0,0.0,0.0,0.0,0.0,0.0,0.0,2.1122,1.7658,1.9352,1.7641,1.7022,0.0,0.0,0.0,0.0,0.0,0.0,0.0,0.0,0.0,2.4181,2.5051,2.5727,2.6083,2.6986,2.7208,2.6712,2.6607,2.576,2.4054,2.267,2.0508,1.7873,1.7367,1.5388,1.2599,1.2221,1.1187,0.9866,0.0,0.0,0.0,0.0,1.2763,1.2492,0.0,0.0,0.0,0.0,0.0,0.0,0.0,0.0,0.0,0.0,0.0,0.0,2.0828,2.0978,2.0786,2.0074,1.9987,1.9637,1.8941,1.9165,1.9178,1.8851,1.9225,1.966,2.015,2.109,2.2469,2.4343,2.4179,2.3998,2.387,2.3814,2.3443,2.2886,2.2911,2.2034,2.0525,1.9865,1.9507,1.9479,0.0,0.0,0.0,0.0,0.0,0.0,0.0,0.0,0.0,0.0,0.0,0.0,0.0,0.0,0.0,0.0,0.0,0.0,0.0,0.0,0.0,0.0,0.0,0.0,0.0,0.0,0.0,0.0,0.0,0.0,0.0,0.0,0.0,0.0,0.0,0.0,0.0,2.0165,1.7286,1.9854,1.7615,1.6663,0.0,0.0,0.0,0.0,0.0,0.0,2.3925,2.4968,2.5443,2.5312,2.6614,2.743,2.7838,2.873,2.9056,2.8821,2.8632,2.7476,2.5615,2.4588,2.2293,1.902,1.8966,1.71,1.3927,1.2327,1.067,0.919,0.927,0.9216,0.9145,1.0564,1.0767,1.0508,0.0,0.0,0.0,0.0,0.0,0.0,0.0,0.0,0.0,0.0,0.0,2.0571,2.0635,2.0658,2.0593,2.0399,1.9944,1.974,1.9912,1.9401,1.9547,2.0519,2.0715,2.1152,2.1793,2.2831,2.3864,2.4796,2.5128,2.511,2.4774,2.5102,2.5039,2.455,2.4145,2.3014,2.147,2.1397,2.1013,2.0504,2.0547,0.0,0.0,0.0,0.0,0.0,0.0,0.0,0.0,0.0,0.0,0.0,0.0,0.0,0.0,0.0,0.0,0.0,0.0,0.0,0.0,0.0,0.0,0.0,0.0,0.0,0.0,0.0,0.0,0.0,0.0,0.0,0.0,0.0,0.0,0.0,0.0,0.0,0.0,1.9353,1.8582,0.0,0.0,0.0,0.0,2.3329,2.4402,2.5586,2.6739,2.7188,2.8176,2.9732,2.968,3.0156,3.1266,3.0978,3.0494,3.0013,2.916,2.801,2.6454,2.5217,2.3082,2.0442,2.0314,1.8656,1.59,1.3365,1.1344,0.9798,0.9225,0.875,0.8336,0.8591,0.8464,0.8175,0.0,0.0,0.0,0.0,0.0,0.0,0.0,0.0,1.9757,2.1112,2.1146,2.1028,2.1215,2.1391,2.119,2.0464,2.0442,2.0511,2.0773,2.0926,2.1191,2.1658,2.2228,2.2865,2.362,2.4646,2.5558,2.6321,2.6492,2.6557,2.6601,2.6684,2.6813,2.6968,2.6685,2.6411,2.5934,2.405,2.2842,2.2243,2.2835,2.2846,0.0,0.0,0.0,0.0,0.0,0.0,0.0,0.0,0.0,0.0,0.0,0.0,0.0,0.0,0.0,0.0,0.0,0.0,0.0,0.0,0.0,0.0,0.0,0.0,0.0,0.0,0.0,0.0,0.0,0.0,0.0,0.0,0.0,0.0,0.0,0.0,0.0,1.967,1.9063,0.0,1.9868,2.2132,2.407,2.535,2.7352,2.8621,2.8804,2.9689,3.0329,3.0568,3.1085,3.1655,3.2383,3.2281,3.2122,3.1932,3.1327,2.9805,2.7565,2.6704,2.4505,2.1334,2.1078,1.9368,1.6633,1.4846,1.2874,1.0829,0.9349,0.855,0.8204,0.8288,0.8176,0.7891,0.0,0.0,0.0,0.0,0.0,0.0,0.0,0.0,2.0243,2.1906,2.1893,2.1878,2.22,2.2313,2.2151,2.1609,2.1823,2.2097,2.2361,2.268,2.3024,2.3464,2.4198,2.5029,2.5884,2.6587,2.7298,2.8048,2.8457,2.8746,2.8837,2.9167,2.9371,2.9522,2.9423,2.9452,2.9576,2.7569,2.5943,2.459,2.4776,2.4495,2.403,0.0,0.0,0.0,0.0,0.0,0.0,0.0,0.0,0.0,0.0,0.0,0.0,0.0,0.0,0.0,0.0,0.0,0.0,0.0,0.0,0.0,0.0,0.0,0.0,0.0,0.0,0.0,0.0,0.0,0.0,0.0,0.0,0.0,0.0,2.1325,1.9102,2.0021,1.9742,1.9808,2.0569,2.3121,2.5373,2.6861,2.9039,3.0319,3.05,3.1623,3.2146,3.1925,3.2304,3.2934,3.3752,3.3275,3.2846,3.2552,3.2106,3.0283,2.7436,2.6847,2.4711,2.1543,2.1241,1.9552,1.6987,1.6051,1.4382,1.2132,0.9974,0.8948,0.8646,0.8446,0.8182,0.7848,0.0,0.0,0.0,0.0,0.0,0.0,0.0,2.017,2.0796,2.2542,2.274,2.2889,2.3451,2.3427,2.3471,2.3845,2.4018,2.4369,2.4884,2.4657,2.5028,2.6077,2.6765,2.7534,2.8447,2.8647,2.9011,2.9756,3.0977,3.148,3.1284,3.2373,3.2722,3.2269,3.2055,3.201,3.2037,3.1847,3.0215,2.768,2.6353,2.605,2.6314,0.0,0.0,0.0,0.0,0.0,0.0,0.0,0.0,0.0,0.0,0.0,0.0,0.0,0.0,0.0,0.0,0.0,0.0,0.0,0.0,0.0,0.0,0.0,0.0,0.0,0.0,0.0,0.0,0.0,0.0,0.0,0.0,0.0,2.2358,2.0642,1.9717,2.043,2.0738,2.1189,2.2028,2.3509,2.5424,2.7823,2.9279,3.061,3.1861,3.3024,3.3743,3.4023,3.3728,3.4275,3.5516,3.4048,3.2841,3.1854,3.1235,2.9235,2.6151,2.5487,2.3681,2.1032,2.072,1.9305,1.7141,1.68,1.5683,1.3722,1.1151,0.9912,0.9525,0.8733,0.814,0.7601,0.0,0.0,0.0,0.0,0.0,0.0,0.0,1.9653,2.0581,2.1782,2.2568,2.3276,2.4017,2.4382,2.4723,2.4975,2.5116,2.5702,2.7013,2.7158,2.7686,2.899,2.9435,2.986,3.0185,3.0514,3.0836,3.1101,3.1486,3.1931,3.2497,3.3084,3.3735,3.4214,3.4031,3.4033,3.41,3.3585,3.2863,3.1818,2.9704,2.8326,2.7584,0.0,0.0,0.0,0.0,0.0,0.0,0.0,0.0,0.0,0.0,0.0,0.0,0.0,0.0,0.0,0.0,0.0,0.0,0.0,0.0,0.0,0.0,0.0,0.0,0.0,0.0,0.0,0.0,0.0,0.0,0.0,2.5149,2.2456,2.1429,2.0636,2.0147,2.0068,2.1542,2.2983,2.3846,2.5991,2.7995,2.9626,3.1087,3.2648,3.4197,3.4966,3.5619,3.6263,3.6086,3.6055,3.6234,3.5626,3.4793,3.3808,3.2465,3.0561,2.8111,2.6684,2.4473,2.1762,2.1725,2.0318,1.8053,1.751,1.6701,1.5421,1.2767,1.129,1.0595,0.9606,0.7687,0.557,0.0,0.0,0.0,0.0,0.0,0.0,0.0,2.0381,2.1398,2.2327,2.3328,2.4232,2.5095,2.5667,2.612,2.644,2.6897,2.7596,2.8759,2.9245,2.9956,3.0867,3.1304,3.1618,3.187,3.221,3.2516,3.2617,3.2897,3.3325,3.3786,3.427,3.474,3.5291,3.5431,3.5522,3.5491,3.5082,3.4634,3.3995,3.2069,3.0554,2.9268,2.8193,2.7238,2.638,2.5598,2.4813,2.4053,2.3203,0.0,0.0,0.0,0.0,0.0,0.0,0.0,0.0,0.0,0.0,0.0,0.0,0.0,0.0,0.0,0.0,0.0,0.0,0.0,0.0,0.0,0.0,0.0,0.0,2.3836,2.1712,2.1328,2.0833,2.0784,2.1266,2.2763,2.4167,2.4985,2.6777,2.8631,3.0146,3.1436,3.2803,3.4408,3.5447,3.6142,3.6401,3.6579,3.6657,3.656,3.6134,3.5115,3.3566,3.2627,3.0578,2.7511,2.6144,2.4225,2.1947,2.1554,2.0462,1.893,1.8537,1.7743,1.6639,0.0,0.0,0.0,0.0,0.7235,0.5166,0.0,0.0,0.0,0.0,0.0,0.0,0.0,2.164,2.2703,2.3427,2.4449,2.5487,2.6414,2.7027,2.7564,2.8157,2.8994,2.9718,3.024,3.113,3.1762,3.2099,3.2516,3.2949,3.3339,3.3662,3.3917,3.4185,3.472,3.4994,3.504,3.5582,3.5798,3.5754,3.6428,3.6606,3.6299,3.6216,3.5692,3.485,3.3652,3.2346,3.0984,2.899,2.7687,2.6803,2.6382,2.5458,2.4453,2.4279,0.0,0.0,0.0,0.0,0.0,0.0,0.0,0.0,0.0,0.0,0.0,0.0,0.0,0.0,0.0,0.0,0.0,0.0,0.0,0.0,0.0,0.0,0.0,0.0,2.2573,2.1346,2.1965,2.1698,2.1989,2.3541,2.4365,2.5257,2.6061,2.7076,2.8384,3.0121,3.115,3.2188,3.3536,3.5298,0.0,0.0,0.0,3.6687,3.681,3.6127,3.4704,3.2405,3.2249,2.9977,2.6099,2.4861,2.347,2.2033,2.0841,2.0117,1.9672,1.9376,1.8513,1.7174,1.4826,1.3453,1.2253,0.8663,0.6676,0.5324,0.0,0.0,0.0,0.0,0.0,0.0,0.0,2.1663,2.2662,2.2943,2.4652,2.6183,2.696,2.7829,2.8638,2.9373,3.0115,3.0984,3.2018,3.2571,3.3002,3.3351,3.361,3.3968,3.4415,3.4529,3.4736,3.5144,3.5198,3.5358,3.5643,3.6175,3.6449,3.6515,3.697,3.7067,3.6913,3.6685,3.6367,3.5828,3.4123,3.2762,3.1678,3.0715,2.9633,2.8468,2.716,2.6492,2.6035,2.4288,2.4227,2.4632,2.3864,2.3652,0.0,0.0,0.0,0.0,0.0,0.0,0.0,0.0,0.0,0.0,0.0,0.0,0.0,0.0,0.0,0.0,0.0,0.0,0.0,2.5319,2.3034,2.2218,2.377,2.4526,2.5079,2.5331,2.6561,2.7893,2.9217,2.9947,3.0642,3.1669,3.2991,3.3896,3.4438,3.6049,3.715,3.751,3.8174,3.8368,3.799,3.7412,3.6098,3.4125,3.1954,0.0,2.7842,2.5793,2.3956,2.2371,2.2055,2.1179,1.9983,1.948,1.797,1.5793,1.4847,1.2665,0.9819,0.8596,0.5435,0.1716,0.0,0.0,0.0,0.0,0.0,0.0,0.0,2.2512,2.3484,2.3441,2.5093,2.6552,2.7255,2.8118,2.883,2.9498,3.0539,3.1537,3.2437,3.3033,3.3539,3.4,3.43,3.4691,3.5071,3.5191,3.5464,3.581,3.582,3.5864,3.6062,3.6405,3.6532,3.6566,3.7046,3.7212,3.7118,3.6831,3.6538,3.6224,3.4577,3.3691,3.3091,3.0843,2.9733,2.9114,2.7769,2.7281,2.7179,2.6223,2.6215,2.662,2.6115,2.5832,2.5618,0.0,0.0,0.0,0.0,0.0,0.0,0.0,0.0,0.0,0.0,0.0,0.0,0.0,0.0,3.4255,3.0819,0.0,2.8858,2.4874,2.3763,2.3796,2.532,2.676,2.775,2.7913,2.8834,2.9986,3.1318,3.1737,3.2088,3.2418,3.3026,3.3801,3.449,3.545,3.6481,3.7528,3.7572,3.757,3.7444,3.6579,3.5363,3.3574,3.1902,2.9829,2.753,2.5883,2.4242,2.2534,2.1859,2.1068,2.0174,1.9153,1.7593,1.5878,1.3816,1.1299,0.8692,0.6867,0.377,0.0306,0.0,0.0,0.0,0.0,0.0,0.0,0.0,2.3203,2.4126,2.4115,2.5468,2.6782,2.7456,2.8183,2.883,2.9498,3.0689,3.1709,3.2382,3.3087,3.3745,3.43,3.4739,3.5118,3.5453,3.5766,3.6105,3.631,3.6444,3.6451,3.6451,3.6609,3.665,3.6574,3.7032,3.718,3.718,3.6874,3.6661,3.6356,3.5067,3.4745,3.4659,3.1182,2.996,2.991,2.8664,2.8327,2.834,2.8155,2.8401,2.8712,2.8639,2.819,2.7854,2.8556,2.8985,0.0,0.0,0.0,0.0,0.0,0.0,0.0,0.0,3.2555,3.344,3.3841,3.5607,3.5637,3.0856,3.0726,2.9784,2.4799,2.4743,2.5764,2.7082,2.8903,3.0354,3.088,3.1321,3.2018,3.3122,3.3359,3.3431,3.3196,3.3291,3.378,3.4578,3.4891,3.5684,3.6996,3.664,3.6553,3.6629,3.5474,3.4098,3.2478,3.1349,2.9405,2.6695,2.5377,2.3998,2.2369,2.1099,2.0292,1.9864,1.8422,1.6963,1.5317,1.2221,0.9495,0.6833,0.4444,0.1921,-0.0513,0.0,0.0,0.0,0.0,0.0,0.0,0.0,0.0,2.3384,2.4001,2.5602,2.6985,2.7723,2.8249,2.9085,3.0269,3.0866,3.1622,3.2547,3.3108,3.3681,3.43,3.4883,3.5396,3.5722,3.6241,3.6574,3.6731,3.7009,3.7126,3.7013,3.7241,3.7279,3.7203,3.727,3.727,3.7196,3.7036,3.6916,3.6736,3.574,3.5559,3.5668,3.3676,3.2544,3.1887,3.0381,3.0014,2.9997,2.8601,2.9029,3.0153,2.9754,2.9867,3.0119,3.024,3.051,3.0866,3.1275,3.1695,3.2091,3.2171,3.2305,3.2196,0.0,3.3033,3.444,3.4412,3.5789,3.578,3.1764,3.1166,3.016,2.653,2.6562,2.7723,2.9555,3.1488,3.3251,3.4628,3.4049,3.4114,3.5353,3.555,3.547,3.5233,3.5874,3.6024,3.5429,3.6018,3.6548,3.6948,3.7194,3.707,3.6614,3.5695,3.4098,3.2023,2.9805,2.7807,2.6323,2.4339,2.2831,2.1648,1.9821,1.8736,1.8227,1.7265,1.4908,1.1662,0.9983,0.6384,0.2012,0.1833,0.0102,-0.2332,0.0,0.0,0.0,0.0,0.0,0.0,0.0,0.0,0.0,2.4001,2.5286,2.6493,2.743,2.8052,2.8803,2.9898,3.0389,3.1043,3.1936,3.2734,3.3475,3.4118,3.4897,3.5532,3.5932,3.6444,3.6771,3.6891,3.7203,3.7354,3.7392,3.754,3.7649,3.7721,3.754,3.754,3.765,3.7394,3.7319,3.7285,3.6394,3.6309,3.6596,3.5157,3.4576,3.4259,3.2079,3.1388,0.0,3.0649,3.0921,3.1501,3.148,3.1602,3.1702,3.184,3.245,3.3201,3.4034,3.3632,3.3154,3.3862,3.3677,3.3368,3.3705,3.4686,3.5816,3.6687,3.7047,3.6298,3.3275,3.2241,3.0841,2.7928,2.8318,2.9541,3.1343,3.324,3.5046,3.6598,3.7117,3.7281,3.7222,3.7143,3.7001,3.6764,3.7495,3.7705,3.733,3.7154,3.7404,3.7926,3.6488,3.5497,3.5212,3.3678,3.2175,3.0589,2.8842,2.6951,2.4879,2.3653,2.191,1.9729,1.8745,1.6989,1.468,1.4158,1.1806,0.8381,0.5998,0.3311,0.0711,0.0608,-0.1011,-0.3433,0.0,0.0,0.0,0.0,0.0,0.0,0.0,0.0,0.0,0.0,2.5078,2.6282,2.7338,2.7855,2.8481,2.9303,2.9747,3.0329,3.1248,3.2185,3.3024,3.3885,3.4769,3.5453,3.5941,3.6527,3.6891,3.7009,3.7354,3.7577,3.7613,3.7792,3.7967,3.807,3.7863,3.7898,3.8068,3.7756,3.7721,3.7791,3.7111,3.7041,3.7319,3.6376,3.6087,3.59,3.3573,3.2787,3.2748,3.2492,3.255,3.2801,3.3066,3.3119,3.3087,3.3276,3.406,3.4955,3.5689,3.512,3.4528,3.5217,3.4836,3.4536,3.5642,3.6272,3.6939,3.7859,3.7675,3.6596,3.3925,3.2846,3.1696,2.9618,3.0119,3.1406,3.3014,3.4795,3.6369,3.8007,3.9424,3.9871,3.8944,3.878,3.8454,3.7993,3.8711,3.8973,3.8684,3.824,3.8043,3.8329,3.6084,3.4581,3.3967,3.2083,3.0469,2.9061,2.7471,2.5663,2.3528,2.2243,2.0297,1.7871,1.6819,1.4707,1.1968,1.0954,0.8481,0.5299,0.2831,0.0828,-0.0715,-0.111,-0.2515,-0.4232,0.0,0.0,0.0,0.0,0.0,0.0,0.0,0.0,0.0,0.0,0.0,0.0,0.0,2.7789,2.8118,2.8794,2.9049,2.9651,3.0777,3.1507,3.2461,3.3642,3.4415,3.5144,3.5907,3.6457,3.6895,3.7091,3.7613,3.7828,3.7721,3.807,3.8307,3.8274,3.8171,3.8201,3.8368,3.8002,3.8038,3.8274,3.7967,3.7792,3.765,3.7431,3.6974,3.6256,3.4709,3.42,3.4186,3.3436,3.3519,3.3971,3.412,3.4317,3.443,3.435,3.4998,3.5608,3.5397,3.5793,3.6204,3.5726,3.5395,3.5515,3.6742,3.736,3.7502,3.6953,3.7152,3.6412,3.3145,3.2603,3.2482,3.1803,3.2143,3.3116,3.4788,3.6213,3.7615,3.9021,4.0428,4.1085,4.0603,4.0614,4.014,3.8891,3.9494,3.9706,3.9057,3.9005,3.8648,3.7848,3.6739,3.5246,3.3137,3.1569,2.9739,2.7604,2.5301,2.3579,2.2434,1.9599,1.7661,1.6605,1.3414,1.1925,1.1247,0.8118,0.5197,0.2461,0.1231,-0.0815,-0.3232,-0.3934,-0.4437,-0.4834,0.0,0.0,0.0,0.0,0.0,0.0,0.0,0.0,0.0,0.0,0.0,0.0,0.0,0.0,0.0,0.0,2.8922,2.9463,3.0418,3.1276,3.2241,3.3161,3.4185,3.5005,3.5688,3.6367,3.6856,3.7241,3.7577,3.7863,3.7966,3.8171,3.8372,3.8433,3.8368,3.8364,3.846,3.8368,3.8303,3.8307,3.8238,3.7778,3.7144,3.7399,3.6887,3.5963,0.0,3.543,3.4958,3.4864,3.4805,3.4864,3.5203,3.5431,3.5664,3.6201,3.6923,3.75,3.764,3.7566,3.7273,3.6855,3.634,3.61,3.6685,3.6993,3.7381,3.8093,3.7255,3.5898,3.4446,3.3469,3.2808,3.2463,3.3143,3.4124,3.5548,3.6824,3.7922,3.8669,3.9957,4.06,4.0076,4.0713,4.0572,3.9355,4.0252,4.0605,3.9931,3.9225,3.8471,3.7621,3.56,3.3731,3.209,3.0495,2.8702,2.661,2.297,2.0559,1.9259,1.7688,1.6193,1.4872,1.2585,1.0071,0.7192,0.4379,0.1377,-0.1575,-0.2414,-0.3612,-0.4834,-0.4939,-0.5684,-0.6545,0.0,0.0,0.0,0.0,0.0,0.0,0.0,0.0,0.0,0.0,0.0,0.0,0.0,0.0,0.0,0.0,0.0,2.931,3.0205,3.0955,3.1849,3.2788,3.3494,3.4329,3.5419,3.5882,3.6492,3.7164,3.7577,3.7898,3.8068,3.8238,3.8401,3.8491,3.8433,3.8465,3.8559,3.846,3.825,3.7903,3.7931,3.733,3.6453,3.7075,3.6683,0.0,3.6336,3.6105,3.5566,3.5711,3.5622,3.5543,3.5941,3.6256,3.6636,3.7576,3.8172,3.8608,3.8777,3.878,3.8622,3.8175,3.7533,3.7139,3.7714,3.7339,3.6988,3.7646,3.6608,3.5265,3.4129,3.3723,3.3514,3.3167,3.4046,3.5116,3.6004,3.7099,3.8006,3.8751,3.9985,4.0513,3.987,4.0504,4.048,3.9451,4.0533,4.0788,3.9615,3.931,3.8364,3.6835,3.4724,3.2878,3.1257,2.9329,2.6911,2.3939,2.0787,1.8521,1.6957,1.5141,1.3709,1.247,0.9414,0.6422,0.349,0.0737,-0.1678,-0.3761,-0.4729,-0.5395,-0.5901,-0.6042,-0.6821,-0.7595,0.0,0.0,0.0,0.0,0.0,0.0,0.0,0.0,0.0,0.0,0.0,0.0,0.0,0.0,0.0,0.0,0.0,0.0,2.9993,3.0539,3.1276,3.2516,3.255,3.334,3.5098,3.5181,3.5763,3.697,3.754,3.7898,3.8002,3.8271,3.8433,3.846,3.8433,3.8496,3.8621,3.8465,3.789,3.7161,3.7197,3.6531,3.5656,3.6453,3.6399,3.5922,3.6457,3.636,3.6019,3.6019,3.6019,3.6105,3.6284,3.679,3.747,3.8462,3.8859,3.894,3.8841,3.9465,4.0044,3.9475,3.8756,3.8494,3.9494,3.8131,3.6497,3.5749,3.535,3.4526,3.2539,3.3556,3.4431,3.3995,3.4923,3.5898,3.6325,3.7071,3.7951,3.924,4.029,4.0603,3.9913,4.0056,3.993,3.9154,4.0307,4.0245,3.8411,3.9016,3.8185,3.5596,3.4166,3.2555,3.0742,2.8257,2.4697,2.0158,1.8812,1.7317,1.5695,1.2216,1.0327,0.961,0.4243,0.1433,0.0511,-0.2328,-0.3632,-0.4051,-0.5248,-0.5906,-0.6437,-0.7177,-0.7861,-0.8052,0.0,0.0,0.0,0.0,0.0,0.0,0.0,0.0,0.0,0.0,0.0,0.0,0.0,0.0,0.0,0.0,0.0,0.0,2.9651,3.0205,3.0925,3.2018,3.2676,3.3508,3.4577,3.5206,3.5822,3.6574,3.6974,3.7395,3.7862,3.8,3.8204,3.8336,3.8401,3.8072,3.753,3.8209,3.7661,3.6364,3.6978,3.6266,3.5054,3.6273,3.6077,3.5294,3.64,3.6409,3.6019,3.6019,3.6318,3.6811,3.7206,3.7859,3.8499,3.9043,3.9611,4.0023,4.0092,3.9957,3.9572,3.8782,3.8488,3.8194,3.7345,3.6842,3.6621,3.6858,3.535,3.4204,3.4707,3.4711,3.4506,3.4376,3.5264,3.6086,3.6166,3.7093,3.7866,3.8173,3.8977,3.9243,3.8675,3.8018,3.7526,3.714,3.8344,3.8779,3.7912,3.7023,3.6259,3.5425,3.3162,3.1362,3.0028,2.6275,2.3049,2.0158,1.8156,1.6471,1.5151,1.155,0.9673,0.8976,0.398,0.1287,0.0402,-0.1207,-0.2353,-0.304,-0.2626,-0.4024,-0.6105,-0.5392,-0.6423,-0.8022,0.0,0.0,0.0,0.0,0.0,0.0,0.0,0.0,0.0,0.0,0.0,0.0,0.0,0.0,0.0,0.0,0.0,0.0,0.0,2.9775,3.0418,3.1392,3.1879,3.2657,3.3751,3.4343,3.5037,3.5752,3.6298,3.6786,3.7173,3.7432,3.7614,3.7827,3.7931,3.7713,3.7282,3.792,3.7377,0.0,0.0,3.558,3.4479,3.5605,3.5509,3.4939,3.6295,3.6615,3.6409,3.6533,3.6811,3.7203,3.7721,3.8291,3.8915,3.9449,3.9738,3.9899,4.0111,3.9636,3.8945,3.8488,3.7969,3.7442,3.6872,3.6162,3.5751,3.6195,3.4974,3.403,3.4842,3.4695,3.4576,3.4799,3.5537,3.6101,3.6377,3.7115,3.7696,3.7731,3.842,3.8651,3.797,3.7482,3.6896,3.6263,3.7064,3.7269,3.6628,3.5963,3.5226,3.4256,3.2293,3.007,2.7743,2.4637,2.2046,1.9915,1.6687,1.453,1.3292,0.8592,0.6032,0.5192,0.0893,-0.1484,-0.2502,-0.384,-0.4215,-0.3887,-0.4362,-0.5078,-0.5937,-0.6102,-0.7304,-0.8758,0.0,0.0,0.0,0.0,0.0,0.0,0.0,0.0,0.0,0.0,0.0,0.0,0.0,0.0,0.0,0.0,0.0,0.0,0.0,0.0,2.9837,3.0598,3.0711,3.1433,3.2756,3.319,3.3839,3.4717,3.5576,3.6088,3.6256,3.6586,3.6865,3.7058,3.7246,3.725,3.7217,3.747,3.7006,3.6043,3.5543,3.4796,3.4091,0.0,3.5048,3.4931,3.6252,3.6776,3.686,3.7164,3.7317,3.7466,3.8,3.8475,3.9005,3.9591,3.9517,3.929,3.9396,3.8862,3.8252,3.8164,3.7296,3.6549,3.6943,3.5754,3.4609,3.4888,3.4364,3.3879,3.4089,3.4114,3.4482,3.5451,3.5882,3.6304,3.6894,3.7456,3.7821,3.7693,3.8422,3.8581,3.7651,3.7569,3.7154,3.6113,3.6059,3.5819,3.5041,3.5282,3.4552,3.2595,3.1305,2.8848,2.5296,2.3555,2.1675,1.9605,1.5217,1.249,1.1185,0.5085,0.1679,0.0613,-0.2914,-0.501,-0.6147,-0.716,-0.6622,-0.5448,-0.713,-0.7194,-0.6434,-0.8124,-0.938,-1.0263,0.0,0.0,0.0,0.0,0.0,0.0,0.0,0.0,0.0,0.0,2.4002,2.4293,0.0,0.0,0.0,0.0,0.0,0.0,0.0,0.0,0.0,2.956,3.0305,3.0982,3.1645,3.2516,3.3284,3.382,3.4511,3.5078,3.5487,3.5925,3.6222,3.6388,3.6706,3.6396,3.5758,3.6545,3.6095,3.4939,3.5432,3.5185,3.4551,3.5249,0.0,0.0,3.6139,3.6485,3.665,3.7009,3.7468,3.7931,3.836,3.8859,3.9288,3.9128,3.9246,3.9315,3.8747,3.806,3.7304,3.6533,3.6464,3.634,3.5453,3.4972,3.495,3.5711,3.3935,3.2885,3.4788,3.4413,3.4577,3.6655,3.7181,3.758,3.8193,3.887,3.8868,3.7957,3.8394,3.8436,3.7497,3.677,3.6326,3.6431,3.5328,3.4563,3.4245,3.4078,3.2957,3.0516,2.9633,2.791,2.5388,2.3785,2.1843,1.9803,1.5392,1.2625,1.1356,0.4984,0.1744,0.09,-0.2912,-0.5178,-0.6042,-0.3987,-0.4014,-0.5174,-0.3701,-0.5279,-0.8469,-0.8955,-1.0755,-1.3267,0.0,0.0,0.0,0.0,0.0,0.0,0.0,2.3107,2.3609,2.303,2.3169,2.3689,2.4797,2.5631,0.0,0.0,0.0,0.0,0.0,0.0,0.0,0.0,0.0,0.0,3.063,3.1531,3.2235,3.2756,0.0,3.4071,3.4414,3.4925,3.5203,3.5386,3.5983,3.6038,3.5722,3.6239,3.6131,3.553,3.5201,3.4788,3.4479,0.0,0.0,0.0,3.6146,3.6451,3.6736,3.7052,3.7327,3.7653,3.8493,3.9133,3.9467,3.9099,3.8955,3.8633,3.7576,3.6693,3.5846,3.4966,3.4907,3.4927,3.4434,3.4335,3.4475,3.4948,3.4085,3.3763,3.5412,3.5309,3.5576,3.7619,3.8065,3.8228,3.846,3.905,3.9076,3.7996,3.831,3.8229,3.7401,3.6887,3.6402,3.6133,3.5481,3.4835,3.4478,3.3687,3.2393,3.0694,2.9849,2.851,2.6681,2.4866,2.3204,2.1514,1.549,1.1714,0.9982,0.2869,-0.1168,-0.2987,-0.6415,-0.7813,-0.7738,-0.7827,-0.7654,-0.7182,-0.7895,-0.969,-1.2203,-1.4546,-1.6609,-1.8618,0.0,0.0,0.0,0.0,0.0,0.0,0.0,2.2187,2.2616,2.2334,2.2433,2.3251,2.4978,2.5188,2.5484,0.0,0.0,0.0,0.0,0.0,0.0,0.0,0.0,0.0,0.0,0.0,0.0,3.1592,3.2431,0.0,0.0,0.0,0.0,0.0,3.5235,3.5613,3.5613,3.5843,3.5907,0.0,0.0,3.423,0.0,0.0,0.0,0.0,0.0,3.6207,3.662,3.6939,3.697,3.7103,3.8272,3.8902,3.9125,3.8747,3.8297,3.7702,3.6434,3.5446,3.4553,3.3747,3.359,3.3631,3.3696,3.364,3.3681,3.4091,3.4091,3.442,3.5786,3.5887,3.643,3.8585,3.8722,3.8685,3.8872,3.926,3.9152,3.8164,3.8399,3.8261,3.7522,3.7291,3.7037,3.6465,3.6102,3.5502,3.4459,3.3203,3.2147,3.1404,3.0285,2.9201,2.8121,2.6213,2.4262,2.2313,1.5286,1.0426,0.733,0.0482,-0.4259,-0.7372,-1.0414,-1.103,-1.0233,-1.3056,-1.2822,-1.1003,-1.4213,-1.6065,-1.7381,-2.1464,-2.3655,-2.4908,0.0,0.0,0.0,0.0,0.0,0.0,0.0,2.1768,2.172,2.1968,2.2335,2.2724,2.3195,2.3257,2.3335,0.0,0.0,0.0,0.0,0.0,0.0,0.0,0.0,0.0,0.0,0.0,0.0,3.0629,3.1422,0.0,0.0,0.0,0.0,0.0,0.0,3.4575,3.3976,3.4723,0.0,0.0,0.0,0.0,0.0,0.0,0.0,0.0,0.0,3.5144,3.5464,3.6215,3.638,3.6429,3.7426,3.7676,3.7508,3.7115,3.6941,3.663,3.5738,3.4941,3.4128,3.3272,3.3422,3.3656,3.3186,3.2812,3.2894,3.4185,3.3315,3.309,3.5605,3.5449,3.6069,3.9671,3.9324,3.9064,4.0307,4.0419,3.9924,3.8841,3.8733,3.8589,3.8138,3.7835,3.7987,3.8581,3.7338,3.5574,3.339,3.2079,3.1382,3.1515,3.0071,2.9188,2.9114,2.7071,2.3896,1.9799,1.4714,0.9099,0.3222,-0.1372,-0.577,-0.9808,-1.3017,-1.3915,-1.3291,-1.5634,-1.6917,-1.7401,-1.9548,-2.1973,-2.4692,-2.8001,-2.9866,-3.1488,0.0,0.0,0.0,0.0,0.0,0.0,2.1469,2.1667,2.1705,2.1416,2.1863,2.206,2.1502,2.1777,2.2427,0.0,0.0,0.0,0.0,0.0,0.0,0.0,0.0,0.0,0.0,0.0,2.9532,3.0115,3.0777,0.0,0.0,0.0,0.0,0.0,0.0,3.3637,3.3443,3.3834,0.0,0.0,0.0,0.0,0.0,0.0,0.0,0.0,0.0,0.0,3.4925,3.5442,3.5628,3.568,3.6049,3.5806,3.5571,3.6422,3.6797,3.6573,3.53,3.4539,3.3939,3.3052,3.3282,3.3515,3.2588,3.2805,3.3223,3.3327,3.3393,3.4001,3.5873,3.6333,3.7284,3.9822,3.9827,3.9734,4.0146,4.0324,4.0008,3.8948,3.8629,3.8331,3.8012,3.7559,3.7487,3.8212,3.7113,3.6077,3.5183,3.3804,3.2802,3.2481,3.1939,3.1369,3.0747,2.7158,2.3801,2.0631,1.2998,0.6565,0.1255,-0.545,-0.9911,-1.2635,-1.7028,-1.7806,-1.6259,-1.959,-2.173,-2.3178,-2.5954,-2.9283,-3.2885,-3.6213,-3.8322,-3.996,0.0,0.0,0.0,0.0,0.0,2.1192,2.096,2.125,2.1187,2.0506,2.1057,2.1147,2.0249,2.0643,2.1502,2.2654,0.0,0.0,0.0,0.0,0.0,0.0,0.0,0.0,0.0,0.0,2.8994,2.956,3.0266,3.0747,0.0,0.0,3.1567,3.1739,0.0,0.0,0.0,0.0,0.0,0.0,0.0,0.0,0.0,0.0,0.0,0.0,0.0,0.0,0.0,0.0,0.0,3.4672,3.4935,3.4527,3.4203,3.5383,3.591,3.5857,3.4687,3.4245,3.3878,3.3198,3.3283,3.3304,3.2508,3.2765,3.3117,3.2862,3.3335,3.4278,3.5953,3.6602,3.7505,3.9434,3.9513,3.9309,3.9473,3.9532,3.9339,3.8776,3.8215,3.7954,3.8188,3.8126,3.8172,3.8372,3.7833,3.738,3.6899,3.5751,3.4623,3.3615,3.3219,3.2597,3.1672,2.6725,2.2402,1.8626,0.9845,0.2472,-0.3663,-0.9293,-1.3561,-1.665,-2.0616,-2.1544,-2.0529,-2.5164,-2.8037,-2.9877,-3.3121,-3.6579,-4.0127,-4.3057,-4.4933,-4.6344,0.0,0.0,0.0,0.0,0.0,0.0,2.0335,2.014,1.9813,1.9351,1.9791,1.9987,1.9681,1.9878,2.0292,2.068,0.0,0.0,0.0,0.0,0.0,0.0,0.0,0.0,0.0,0.0,2.8546,2.9113,2.9803,3.0172,3.0326,3.0777,3.1102,3.1307,0.0,0.0,0.0,0.0,0.0,0.0,0.0,0.0,0.0,0.0,0.0,0.0,0.0,0.0,0.0,0.0,0.0,0.0,0.0,3.4125,3.3716,3.3753,3.3813,3.3916,3.392,3.3941,3.3969,3.3817,3.3414,3.3068,3.3103,3.2491,3.2186,3.3094,3.2944,3.3325,3.5686,3.5786,3.6271,3.8544,3.7918,3.7501,3.8481,3.807,3.7861,3.8525,3.7589,3.7466,3.8936,4.0107,4.0508,3.9941,4.0072,3.9486,3.7869,3.7306,3.6348,3.4836,3.3353,3.228,3.1621,2.5887,1.9384,1.2249,0.5138,-0.3419,-1.2994,-1.2423,-1.5946,-2.2405,-2.347,-2.4736,-2.6448,-3.2793,-3.6207,-3.7838,-4.1003,-4.3636,-4.5857,-4.7661,-4.8813,-4.9658,0.0,0.0,0.0,0.0,0.0,0.0,0.0,2.0183,1.9857,1.966,1.9937,2.0023,1.9747,1.9959,2.0223,2.0616,0.0,0.0,0.0,0.0,0.0,0.0,0.0,0.0,0.0,0.0,2.8352,2.8867,2.9463,2.9837,2.9931,3.0115,3.0326,3.0476,3.0528,3.0438,0.0,0.0,0.0,0.0,0.0,0.0,2.9219,0.0,0.0,0.0,0.0,0.0,0.0,0.0,0.0,0.0,0.0,0.0,0.0,3.2933,3.3313,3.3672,3.3689,3.37,3.3761,3.412,3.4183,3.3939,3.3283,3.3174,3.3174,3.3164,3.3204,3.3774,3.5509,3.568,3.6151,3.8058,3.7728,3.7421,3.7989,3.8133,3.8096,3.7886,3.7668,3.7818,3.8337,3.8771,3.9392,4.0318,4.0031,3.9759,3.9714,3.8854,3.7413,3.5413,3.3671,3.1379,2.8599,2.3947,1.7949,1.0775,0.3711,-0.4034,-1.2134,-1.7702,-2.2014,-2.5344,-2.9891,-3.206,-3.2763,-3.7535,-4.122,-4.3971,-4.6412,-4.8829,-5.1164,-5.2102,-5.348,-5.4957,0.0,0.0,0.0,0.0,0.0,0.0,0.0,2.0335,2.014,1.9857,2.0049,2.0135,1.9944,1.9916,2.0047,2.0399,0.0,0.0,0.0,0.0,0.0,0.0,0.0,0.0,0.0,2.6453,2.7364,2.8157,2.8691,2.9115,2.9435,2.9623,2.9775,2.9927,2.9679,2.9588,0.0,0.0,0.0,0.0,0.0,0.0,2.8352,0.0,0.0,0.0,0.0,0.0,0.0,0.0,0.0,0.0,0.0,0.0,0.0,0.0,3.2842,3.3206,3.3523,3.4118,3.4639,3.4637,3.4758,3.4623,3.3743,3.364,3.364,3.3434,3.357,3.4083,3.5271,3.5291,3.5645,3.721,3.6899,3.6654,3.7149,3.7285,3.7217,3.6944,3.7615,3.8105,3.8121,3.9057,3.9968,4.0744,4.0824,4.0856,4.0954,3.9648,3.7826,3.5422,3.3618,3.0891,2.7018,2.1456,1.5025,0.7846,-0.0743,-0.8622,-1.5839,-2.2925,-2.7683,-3.0656,-3.5067,-3.7754,0.0,-4.2794,-4.6181,-4.9334,-5.081,-5.2721,-5.471,-5.5249,-5.6442,-5.7814,0.0,0.0,0.0,0.0,0.0,0.0,0.0,0.0,2.0399,1.9944,2.014,2.027,2.0096,1.9791,1.9726,2.0096,0.0,0.0,0.0,0.0,0.0,0.0,0.0,0.0,0.0,2.4697,2.5806,2.6929,2.7561,2.8146,2.8666,2.9192,2.9442,2.9414,2.9407,2.9219,2.8867,2.8984,2.8919,2.8811,2.8581,2.8061,0.0,0.0,0.0,0.0,0.0,0.0,0.0,0.0,0.0,0.0,0.0,0.0,0.0,0.0,0.0,0.0,0.0,3.5094,3.6328,3.5432,3.5296,3.5212,3.4577,3.3999,0.0,3.3944,3.405,3.4253,3.504,3.4759,3.4849,3.6158,3.5645,3.5359,3.6153,3.5722,3.5554,3.6167,3.7478,3.8344,3.842,4.0533,4.1681,4.1119,4.2209,4.2481,4.1525,3.9799,3.7601,3.4844,3.2993,3.0083,2.603,1.8255,1.0654,0.2938,-0.7806,-1.6537,-2.3368,-2.84,-3.3215,-3.7544,-3.9453,-4.242,-4.6248,-4.8436,-5.1012,-5.3647,-5.4294,-5.5389,-5.6718,-5.7263,-5.7851,-5.8598,0.0,0.0,0.0,0.0,0.0,0.0,0.0,0.0,0.0,0.0,1.9483,1.966,1.9835,1.9726,1.9726,0.0,0.0,0.0,0.0,0.0,0.0,0.0,0.0,0.0,0.0,2.4008,2.4936,2.5818,2.6294,2.6746,2.7128,2.7837,2.781,2.7339,2.7615,2.745,2.6922,2.7338,2.7233,2.6822,2.6822,2.6678,0.0,0.0,0.0,0.0,2.7696,2.8314,0.0,0.0,0.0,0.0,0.0,0.0,0.0,0.0,3.3014,3.4055,3.5033,0.0,3.5993,3.691,3.6649,3.6065,0.0,3.5059,3.4584,3.4912,3.4679,3.4823,3.5967,3.5337,3.4903,3.5735,3.5385,3.5181,3.5684,3.5759,3.6429,3.8249,3.7931,3.8041,3.9307,4.0637,4.1282,4.0966,4.2173,4.2341,4.1024,3.8906,3.6379,3.3478,2.9024,2.4509,2.0021,1.2538,0.3898,-0.5773,-1.4751,-2.2636,-2.9511,-3.6004,-4.044,-4.322,-4.7361,-5.0069,-5.1662,-5.2936,-5.4315,-5.5543,-5.5579,-5.6566,-5.7892,-5.8209,-5.8959,-5.9938,0.0,0.0,0.0,0.0,0.0,0.0,0.0,0.0,0.0,0.0,0.0,0.0,0.0,0.0,0.0,0.0,0.0,0.0,0.0,0.0,0.0,0.0,0.0,2.1495,2.2138,2.2911,2.3751,2.4507,2.4946,2.5517,2.6291,2.6887,2.686,2.638,2.6115,2.582,2.5481,2.5677,2.5654,2.5473,2.5624,0.0,0.0,0.0,0.0,0.0,2.7121,2.759,0.0,2.8438,2.8914,2.9406,0.0,0.0,0.0,0.0,3.3251,3.4592,3.6199,3.6953,3.7422,3.7847,3.7824,3.7525,3.6665,3.6147,3.5753,3.5592,3.54,3.5456,3.6137,3.5504,3.5064,3.5597,3.5182,3.4868,3.5104,3.5179,3.5977,3.8065,3.7849,3.8228,3.9947,4.1008,4.147,4.1189,4.2233,4.2125,4.0451,3.8271,3.6229,3.4593,2.855,2.1835,1.4368,0.6224,-0.315,-1.3656,-2.2814,-3.0033,-3.5574,-4.2655,-4.6948,-4.8948,-5.2615,-5.4552,-5.5186,-5.5176,-5.5799,-5.675,-5.6776,-5.7446,-5.8499,-5.8772,-5.9206,-5.9909,0.0,0.0,0.0,0.0,0.0,0.0,0.0,0.0,0.0,0.0,0.0,0.0,0.0,0.0,0.0,0.0,0.0,0.0,0.0,0.0,0.0,0.0,0.0,2.07,2.1273,2.1675,2.2327,2.3116,2.3529,2.4342,2.5466,2.5972,2.6205,2.5957,2.4903,2.4443,2.4476,2.427,2.4372,2.4584,2.485,0.0,0.0,0.0,0.0,0.0,0.0,0.0,0.0,2.7232,2.7755,2.8471,2.8876,0.0,0.0,0.0,0.0,0.0,3.6895,3.8536,3.9477,3.8704,3.8926,3.8938,3.7463,3.7074,3.6814,3.6055,3.5966,3.6017,3.5994,3.551,3.5195,3.5446,3.4884,3.45,3.4713,3.4669,3.5352,3.7289,3.7764,3.8606,4.0433,4.1496,4.1923,4.1639,4.2297,4.2029,4.0384,3.8126,3.6846,3.6763,3.0406,2.0957,0.8521,-0.017,-1.0396,-2.2124,-3.1748,-3.8246,-4.1977,-4.8532,-5.2226,-5.3475,-5.5551,-5.6744,-5.7211,-5.581,-5.609,-5.7389,-5.7317,-5.7855,-5.8606,-5.8663,-5.8866,-5.9193,0.0,0.0,0.0,0.0,0.0,0.0,0.0,0.0,0.0,0.0,0.0,0.0,0.0,0.0,0.0,0.0,0.0,0.0,0.0,0.0,0.0,0.0,1.9615,2.0009,2.0529,2.0658,2.0937,2.1493,2.228,2.2886,2.3401,2.4674,2.5227,2.5135,2.3953,2.3665,2.3999,2.3862,2.4097,2.4517,2.4515,0.0,0.0,0.0,0.0,0.0,0.0,0.0,0.0,2.6778,2.7147,2.7706,2.7736,0.0,0.0,0.0,0.0,0.0,3.6398,3.8488,4.0291,4.0447,3.9993,3.9288,3.8305,3.7553,3.6839,3.607,3.5949,3.6003,3.6005,3.5494,3.4963,3.4496,3.4238,3.4374,3.5249,3.5489,3.6412,3.8612,3.8627,3.909,4.0849,4.1818,4.2265,4.2032,4.2233,4.2251,4.2039,3.9354,3.7947,3.8229,3.3677,2.1713,0.1866,-0.6273,-1.8375,-3.4438,-4.237,-4.7203,-4.9285,-5.3582,-5.4853,-5.3819,-5.534,-5.6512,-5.7196,-5.4901,-5.5283,-5.7198,-5.5958,-5.6556,-5.8183,-5.7328,-5.7759,-5.8855,0.0,0.0,0.0,0.0,0.0,0.0,0.0,0.0,0.0,0.0,0.0,0.0,0.0,0.0,0.0,0.0,0.0,0.0,0.0,0.0,0.0,1.9987,1.9878,1.9944,2.0399,2.0551,2.0857,2.1365,2.1789,2.2468,2.3364,2.4017,2.43,2.4253,2.321,2.2707,2.2639,2.305,2.3256,2.342,0.0,0.0,0.0,0.0,0.0,0.0,0.0,0.0,0.0,0.0,2.6469,2.6859,2.7117,0.0,0.0,0.0,0.0,0.0,3.5776,3.7715,3.9423,4.0274,4.0274,3.9881,3.9019,3.8592,3.8007,3.6795,3.6596,3.6492,3.6024,3.565,3.4993,3.3857,3.3923,3.4233,3.4553,3.5133,3.6289,3.8552,3.8719,3.9273,4.0805,4.1711,4.1792,4.0714,4.1406,4.1314,4.0033,3.8411,3.6819,3.5309,2.7913,1.4517,-0.5226,-1.448,-2.6201,-4.0318,-4.6795,-5.039,-5.1455,-5.3492,-5.3628,-5.2407,-5.3734,-5.4358,-5.4321,-5.3847,-5.4805,-5.6508,-5.5778,-5.6231,-5.7264,-5.6836,-5.7462,-5.8543,0.0,0.0,0.0,0.0,0.0,0.0,0.0,0.0,0.0,0.0,0.0,0.0,0.0,0.0,0.0,0.0,0.0,0.0,0.0,0.0,2.0571,2.0442,2.014,2.0074,2.0335,2.0575,2.0951,2.1464,2.1688,2.2457,2.3768,2.3697,2.3674,2.3699,2.2774,2.2274,2.2094,2.2585,2.279,2.282,0.0,0.0,0.0,0.0,0.0,0.0,0.0,0.0,0.0,0.0,0.0,0.0,0.0,0.0,0.0,2.9034,3.0842,3.2682,3.521,3.7082,3.8599,3.9681,4.0149,4.018,3.9419,3.928,3.8945,3.7631,3.7258,3.6931,3.6265,3.5728,3.4874,3.3364,3.3626,3.3937,3.3801,3.4751,3.6247,3.8375,3.8975,3.9699,4.0859,4.1349,4.1091,3.9888,4.0408,4.0038,3.8365,3.7248,3.5116,3.1662,2.2703,0.8584,-1.0959,-1.967,-3.0754,-4.4186,-4.8771,-5.0967,-5.1061,-5.1736,-5.1299,-5.0033,-5.1078,-5.1393,-5.1252,-5.2193,-5.378,-5.5719,-5.5567,-5.5955,-5.6556,-5.6733,-5.7469,-5.8461,0.0,0.0,0.0,0.0,0.0,0.0,0.0,0.0,0.0,0.0,0.0,0.0,0.0,0.0,0.0,0.0,0.0,0.0,0.0,0.0,2.0571,2.0009,2.0009,2.0074,2.014,2.0443,2.0682,2.0928,2.2015,2.301,2.3913,2.3694,2.3694,2.3818,2.2938,2.2889,2.3414,2.301,2.3244,2.3795,2.3863,0.0,0.0,0.0,0.0,0.0,0.0,0.0,0.0,0.0,0.0,0.0,0.0,0.0,2.6562,2.8151,3.0609,3.3191,3.4755,3.6948,3.8887,3.9427,3.973,3.9785,3.9234,3.9119,3.8929,3.8274,3.7475,3.6936,3.6923,3.5748,3.4341,3.3059,3.2991,3.3248,3.3736,3.5202,3.6906,3.8746,3.9851,4.0732,4.1388,4.06,4.0328,4.0917,3.9518,3.8858,3.9381,3.6806,3.3437,2.9201,2.3616,0.9568,-1.3674,-1.7627,-2.8995,-4.7749,-4.9476,-4.9626,-4.8525,-4.9593,-4.8875,-4.6659,-4.6936,-4.7904,-4.9179,-4.9425,-5.1592,-5.4787,-5.4401,-5.5175,-5.6535,-5.6816,-5.7905,-5.9056,0.0,0.0,0.0,0.0,0.0,0.0,0.0,0.0,0.0,0.0,0.0,0.0,0.0,0.0,0.0,0.0,0.0,0.0,0.0,0.0,2.0764,2.0506,2.0399,2.0292,2.0292,2.062,2.1013,2.1526,2.276,2.3559,2.3886,2.3982,2.3982,2.3886,2.3537,2.3149,2.2697,2.3289,2.3112,2.257,2.3183,2.3432,0.0,0.0,0.0,0.0,0.0,0.0,0.0,0.0,2.5602,2.5458,2.5783,2.5537,2.5477,2.6806,2.9074,3.1577,3.3554,3.5785,3.7827,3.885,3.909,3.9102,3.9426,3.9489,3.9338,3.8785,3.8003,3.7094,3.6196,3.5585,3.4878,3.3634,3.3981,3.4602,3.5106,3.6298,3.7867,3.9704,3.9992,4.0181,4.0457,3.976,3.8842,3.7797,3.7603,3.666,3.467,3.1324,2.6107,1.8734,0.8478,-0.4584,-2.0771,-2.7545,-3.5219,-4.3747,-4.6613,-4.6775,-4.4488,-4.5297,-4.4325,-4.2054,-4.4386,-4.5901,-4.6698,-4.9343,-5.192,-5.4134,-5.4813,-5.5368,-5.5814,-5.7241,-5.7682,-5.7809,0.0,0.0,0.0,0.0,0.0,0.0,0.0,0.0,0.0,0.0,0.0,0.0,0.0,0.0,0.0,0.0,0.0,0.0,2.127,2.0989,2.075,2.0658,2.0464,2.0488,2.0643,2.1107,2.1596,2.2067,2.364,2.4338,2.42,2.4507,2.4411,2.4127,2.4127,2.3667,2.291,2.3758,2.3532,2.2662,2.3256,2.3367,0.0,0.0,0.0,0.0,0.0,0.0,0.0,0.0,2.5635,2.5332,2.5599,2.5249,2.5025,2.6529,2.8587,3.0898,3.3451,3.5616,3.741,3.8559,3.8707,3.8707,3.9208,3.9352,3.9373,3.9195,3.8372,3.7295,3.6007,3.5645,3.5181,3.3941,3.477,3.5623,3.5959,3.7172,3.8546,4.0077,3.9777,3.9407,3.9388,3.8249,3.6825,3.5219,3.5003,3.3379,2.9808,2.5658,1.8812,0.8926,-0.2645,-1.4578,-2.6982,-3.3674,-3.8246,-4.0681,-4.3112,-4.3226,-4.1257,-4.1619,-4.0715,-3.908,-4.2206,-4.3955,-4.4837,-4.8975,-5.1924,-5.4025,-5.5202,-5.5837,-5.6185,-5.7215,-5.7338,-5.7146,0.0,0.0,0.0,0.0,0.0,0.0,0.0,0.0,0.0,0.0,0.0,0.0,0.0,0.0,0.0,0.0,0.0,0.0,2.0611,2.059,2.0441,2.0096,2.027,2.0643,2.1174,2.2004,2.2411,2.2411,2.4539,2.5345,2.4801,2.5368,2.5175,2.449,2.449,2.449,2.449,2.449,2.449,2.449,2.425,2.3735,2.3089,0.0,0.0,0.0,0.0,0.0,0.0,0.0,2.5747,2.5577,2.5537,2.5344,2.548,2.7494,2.9469,3.1653,3.4688,3.6684,3.8029,3.867,3.8796,3.8743,3.8523,3.864,3.8924,3.9364,3.8476,3.739,3.6735,3.601,3.5091,3.3936,3.5007,3.6028,3.6009,3.752,3.8867,3.9587,3.9215,3.8724,3.8277,3.5927,3.4265,3.3768,3.1712,2.8961,2.5592,2.0394,1.2308,0.093,-0.6894,-1.7566,-3.1344,-3.3695,-3.6453,-3.9756,-3.948,-3.9359,-3.9267,-3.8835,-3.8509,-3.8428,-4.0337,-4.2145,-4.4064,-4.7794,-5.1318,-5.4454,-5.538,-5.6535,-5.7709,-5.6746,-5.6957,-5.7684,0.0,0.0,0.0,0.0,0.0,0.0,0.0,0.0,0.0,0.0,0.0,0.0,0.0,0.0,0.0,0.0,0.0,0.0,2.0428,2.0522,2.0441,1.9965,2.0205,2.0531,2.0817,2.2315,2.3374,2.4049,2.4802,2.5254,2.5348,2.5397,2.5254,2.504,2.4969,2.4637,2.4167,2.4399,2.4072,2.3444,2.3511,2.3273,2.2876,0.0,0.0,0.0,0.0,0.0,0.0,0.0,0.0,0.0,2.5542,2.5371,2.5511,2.7167,2.9448,3.1854,3.404,3.6286,3.8099,3.8523,3.8554,3.8465,3.8201,3.8364,3.8493,3.8164,3.7679,3.7118,3.6395,3.5849,3.5554,3.5655,3.6093,3.6753,3.7747,3.8136,3.8361,3.8403,3.7701,3.6529,3.4824,3.27,3.0813,2.9197,2.7122,2.3673,1.8575,1.2013,0.4303,-0.4801,-1.3857,-2.2195,-2.9655,-3.3226,-3.516,-3.5622,-3.6638,-3.7181,-3.714,-3.7211,-3.7666,-3.8453,-4.0722,-4.2991,-4.5567,-4.9908,-5.2002,-5.2855,-5.5301,-5.5837,-5.547,-5.7832,-5.8527,-5.8371,0.0,0.0,0.0,0.0,0.0,0.0,0.0,0.0,0.0,0.0,2.0524,2.0605,0.0,0.0,0.0,2.0878,2.1084,0.0,2.0359,2.0504,2.0432,1.99,2.0118,2.0772,2.1809,2.3117,2.4095,2.4823,2.5325,2.5516,2.5465,2.5683,2.5587,2.53,2.5324,2.5015,2.4518,2.4637,2.4331,2.3677,2.3532,2.3319,2.2996,0.0,0.0,0.0,0.0,0.0,0.0,0.0,0.0,0.0,2.5259,2.5209,2.5573,2.7067,2.9068,3.1339,3.3561,3.5844,3.7685,3.7964,3.8101,3.8068,3.7933,3.8135,3.8209,3.7461,3.7177,3.6826,3.6188,3.5859,3.5713,3.5815,3.6254,3.6773,3.7521,3.7044,3.6572,3.6483,3.5015,3.3163,3.1066,2.9273,2.7281,2.4765,2.2681,1.8985,1.3164,0.6578,-0.0533,-0.8517,-1.6414,-2.3056,-2.8184,-3.1527,-3.3196,-3.3198,-3.4593,-3.5221,-3.5096,-3.5987,-3.6871,-3.7772,-4.1797,-4.4885,-4.7347,-5.1122,-5.2611,-5.2702,-5.5569,-5.5806,-5.4935,-5.8106,-5.8654,-5.7875,0.0,0.0,2.3393,2.2928,0.0,0.0,0.0,0.0,0.0,2.0943,2.079,2.0678,0.0,0.0,0.0,2.0566,2.1108,2.1124,2.0483,2.0636,2.0498,1.992,2.0118,2.1216,2.3427,2.4073,2.4543,2.4988,2.5849,2.59,2.5252,2.5924,2.5924,2.53,2.5465,2.5465,2.5253,2.5016,2.4826,2.4706,2.4127,2.3636,2.3324,2.2637,0.0,0.0,0.0,0.0,0.0,0.0,0.0,0.0,2.4929,2.5046,2.5653,2.7104,2.8683,3.0514,3.3064,3.5237,3.69,3.7246,3.7504,3.7613,3.7613,3.7861,3.7878,3.7212,3.683,3.6497,3.6061,3.5752,3.5399,3.4797,3.5358,3.5752,3.5456,3.4438,3.3705,3.3597,3.1262,2.8947,2.6991,2.5554,2.3413,2.0343,1.8208,1.448,0.8647,0.3219,-0.3193,-1.0747,-1.6109,-2.1402,-2.6905,-2.9092,-3.0808,-3.2036,-3.3182,-3.3551,-3.3308,-3.5173,-3.6441,-3.7346,-4.3352,-4.71,-4.9131,-5.1576,-5.2846,-5.3414,-5.5883,-5.6125,-5.5347,-5.7674,-5.771,-5.694,0.0,0.0,2.2616,2.2165,0.0,0.0,0.0,0.0,2.1406,2.0766,2.0203,1.9897,1.996,1.9863,0.0,2.0352,2.0644,2.0735,2.0495,2.0822,2.0698,2.0007,2.0439,2.1485,2.3026,2.3254,2.3741,2.4376,2.5016,2.5133,2.4723,2.5157,2.5207,2.5087,2.4992,2.4921,2.4849,2.4562,2.4345,2.4273,2.3666,2.3305,2.3047,2.2739,2.2622,0.0,0.0,0.0,0.0,0.0,0.0,0.0,2.5129,2.5571,2.6013,2.721,2.8788,3.0488,3.2201,3.4263,3.6077,3.6636,3.6943,3.7055,3.7055,3.6785,3.6613,3.6746,3.6349,3.593,3.58,3.4368,3.3248,3.3315,3.2451,3.1583,3.1052,3.0509,2.9635,2.8337,2.6797,2.4814,2.2189,2.0465,1.8365,1.5477,1.3201,0.9352,0.3429,-0.1332,-0.7107,-1.4033,-1.819,-2.223,-2.6245,-2.8199,-2.959,-3.0539,-3.2484,-3.304,-3.2499,-3.4825,-3.7857,-4.1388,-4.5386,-4.7825,-4.9198,-5.121,-5.1635,-5.1353,-5.4965,-5.5069,-5.3592,-5.659,-5.799,-5.8585,0.0,0.0,0.0,0.0,0.0,0.0,0.0,0.0,2.164,2.1009,2.0517,1.9993,1.9506,1.9566,0.0,0.0,2.0177,2.0391,2.0262,2.0521,2.043,1.981,2.0461,2.1337,2.238,2.275,2.3139,2.3523,2.375,2.4089,2.4378,2.447,2.4583,2.4815,2.4669,2.4659,2.4664,2.4265,2.3929,2.3585,2.2939,2.2703,2.251,2.2126,2.2062,2.1998,2.1458,0.0,0.0,0.0,0.0,0.0,0.0,0.0,2.5007,2.5709,2.7158,2.8742,2.997,3.2028,3.4193,3.5591,3.5976,3.5908,3.5814,3.5283,3.4772,3.4614,3.5011,3.507,3.4129,3.2555,3.0964,2.9404,2.7944,2.6617,2.56,2.4434,2.3458,2.266,2.1072,1.9332,1.7477,1.6048,1.412,1.1596,0.9239,0.5709,0.0791,-0.3723,-0.8577,-1.4079,-1.7881,-2.1638,-2.5318,-2.7308,-2.9089,-3.0782,-3.2653,-3.4098,-3.5178,-3.6549,-3.9461,-4.3589,-4.6271,-4.8006,-4.9216,-5.1271,-5.1819,-5.1663,-5.4785,-5.4916,-5.3784,-5.6684,-5.7987,-5.8399,0.0,0.0,0.0,0.0,0.0,0.0,0.0,0.0,0.0,2.1118,2.0782,2.0218,1.9163,1.925,1.9408,0.0,0.0,0.0,1.9811,1.998,1.9945,1.9646,2.0247,2.0913,2.1756,2.2198,2.2444,2.238,2.2284,2.2604,2.3324,2.3503,2.3772,2.4086,2.4055,2.4072,2.4059,2.3645,2.3144,2.2661,2.2074,2.1852,2.1714,2.1342,2.1217,2.1155,2.0617,2.0359,2.0267,2.0631,0.0,0.0,0.0,0.0,2.3589,2.3739,2.5023,2.6592,2.7314,2.9475,3.2082,3.4225,3.4665,3.4485,3.3963,3.33,3.2597,3.1931,3.2866,3.3279,3.1598,2.9864,2.7665,2.4482,2.3006,2.1492,1.9385,1.7975,1.7016,1.6703,1.517,1.3755,1.2931,1.188,1.024,0.8113,0.5941,0.3022,-0.1028,-0.5028,-0.9151,-1.3245,-1.7219,-2.1028,-2.4675,-2.6655,-2.9007,-3.1687,-3.3308,-3.5625,-3.8396,-3.8662,-4.0824,-4.4496,-4.6441,-4.7961,-4.9201,-5.1239,-5.2124,-5.2337,-5.4725,-5.5039,-5.4321,-5.684,-5.7629,-5.7583,0.0,0.0,0.0,0.0,0.0,0.0,0.0,0.0,0.0,0.0,1.9793,1.9334,1.9047,1.8851,1.8851,1.8993,1.9152,1.9213,1.9376,0.0,0.0,2.035,2.0151,2.0452,2.1267,2.1334,2.1171,2.0629,2.0466,2.0158,1.978,2.1532,2.2168,2.1871,2.205,2.2185,2.2171,2.1956,2.1609,2.1379,2.1108,2.0779,2.0469,2.0643,2.0546,2.0275,1.9718,1.9495,1.9436,1.9485,1.9761,0.0,0.0,0.0,2.2889,2.2338,2.3814,2.5537,2.5135,2.7769,3.093,3.2304,3.3086,3.301,3.1145,3.044,3.0076,2.9766,2.9541,2.9255,2.8575,2.5071,2.1727,1.9831,1.8941,1.7001,1.2574,1.2859,1.2741,1.0581,1.0529,1.0088,0.855,0.7464,0.5952,0.4134,0.3138,0.0573,-0.3728,-0.6584,-1.023,-1.4646,-1.8504,-2.2075,-2.5275,-2.7229,-2.9489,-3.2002,-3.4185,-3.6271,-3.8396,-3.9364,-4.1335,-4.4125,-4.6206,-4.7843,-4.9063,-5.0698,-5.1293,-5.163,-5.4176,-5.4418,-5.3458,-5.55,-5.6637,-5.7169,0.0,0.0,0.0,0.0,0.0,0.0,0.0,0.0,0.0,0.0,0.0,1.9283,1.8504,1.8612,1.8692,1.8674,1.8674,1.8754,1.8975,1.8674,1.876,1.9254,1.901,1.9144,1.9717,2.0023,1.9947,1.943,1.9374,1.8807,1.797,1.9859,2.0548,2.0163,2.0059,2.0275,2.0642,2.0312,2.0134,2.0085,1.9781,1.9529,1.9371,1.945,1.9303,1.8948,1.8602,1.8613,1.8705,1.8279,1.84,1.894,1.9663,0.0,0.0,0.0,2.2004,2.3427,2.4053,2.6421,2.8997,3.0138,3.0462,3.0235,2.9131,2.774,2.6699,2.7002,2.5092,2.3624,2.4351,1.9962,1.542,1.2733,1.0899,0.8909,0.6388,0.6634,0.662,0.5686,0.5615,0.5457,0.5026,0.4219,0.3293,0.2015,0.0341,-0.1851,-0.4854,-0.7965,-1.1146,-1.446,-1.8027,-2.1554,-2.4894,-2.6731,-2.9238,-3.2395,-3.4307,-3.6177,-3.7974,-3.9104,-4.1197,-4.4055,-4.6017,-4.7659,-4.9009,-5.0442,-5.1011,-5.1443,-5.3429,-5.404,-5.3971,-5.5432,-5.6425,-5.6967,0.0,0.0,0.0,0.0,0.0,0.0,0.0,0.0,0.0,0.0,0.0,1.926,1.8336,0.0,0.0,0.0,1.8434,1.8514,1.8576,1.8074,1.7839,1.8092,1.7839,1.7978,1.8524,1.891,1.8976,1.8692,1.8803,1.8303,1.7134,1.8562,1.9068,1.8731,1.877,1.8988,1.9439,1.9,1.8877,1.8878,1.8523,1.8382,1.8372,1.8197,1.8074,1.7846,1.7821,1.788,1.7909,1.7404,1.7354,1.7617,1.7992,1.8447,0.0,0.0,0.0,2.1279,2.2886,2.4489,2.6176,2.7806,2.7644,2.7074,2.7262,2.5392,2.3782,2.4381,2.1145,1.8559,1.9831,1.5403,1.0519,0.7228,0.4371,0.2269,0.1538,0.1236,0.1144,0.1385,0.1389,0.1399,0.1749,0.1536,0.1001,-0.0,-0.1727,-0.3736,-0.5864,-0.8872,-1.1692,-1.4113,-1.7506,-2.0767,-2.4194,-2.6655,-2.9291,-3.2342,-3.4175,-3.5781,-3.7331,-3.8292,-4.0599,-4.3753,-4.5527,-4.7169,-4.8681,-4.9931,-5.0721,-5.1369,-5.2822,-5.3748,-5.4309,-5.5425,-5.6264,-5.6847,0.0,0.0,0.0,0.0,0.0,0.0,0.0,0.0,0.0,0.0,0.0,1.911,1.8863,1.8336,1.8112,1.8353,1.8612,1.8612,1.8336,1.7594,1.7269,1.7448,1.7188,0.0,1.8318,1.8576,1.8596,1.8434,1.8882,1.8507,1.7373,1.7699,1.7769,1.7536,1.8705,1.8966,1.8453,1.8041,1.7911,1.7854,1.7674,1.7604,1.7499,1.7028,1.7021,1.7303,1.7661,1.7606,1.727,1.7339,1.6941,1.6403,1.6403,1.6741,1.7207,0.0,0.0,0.0,2.1216,2.1486,2.2093,2.5101,2.4718,2.3891,2.5203,2.3628,2.2027,2.2284,1.853,1.5184,1.5262,1.1849,0.8147,0.5541,0.2047,-0.0505,-0.1033,-0.1865,-0.2311,-0.1954,-0.1745,-0.1428,-0.1115,-0.0895,-0.1127,-0.2179,-0.2911,-0.449,-0.7075,-0.9219,-1.1583,-1.448,-1.7455,-2.0268,-2.3268,-2.7858,-3.0548,-3.1401,-3.3372,-3.519,-3.6655,-3.6965,-3.9329,-4.3166,-4.457,-4.611,-4.7717,-4.8823,-5.0086,-5.1512,-5.2486,-5.3337,-5.4192,-5.488,-5.5854,-5.675,0.0,0.0,0.0,0.0,0.0,0.0,0.0,0.0,0.0,0.0,0.0,0.0,0.0,1.9117,1.9245,1.8772,1.9231,1.945,1.9353,1.9195,1.9018,1.9036,1.8621,1.87,0.0,1.9054,1.883,1.8746,1.9081,1.8711,1.759,1.9351,1.9417,1.8104,1.8154,1.8165,1.8059,1.8044,1.8174,1.8397,1.8079,1.8136,1.8341,1.8131,1.7854,1.753,1.7568,1.737,1.7026,1.6122,1.5824,1.5824,1.5542,1.558,1.5987,1.6889,1.7497,1.7991,1.8616,1.9636,2.0728,2.1799,2.1638,2.1441,2.2469,2.1009,1.9703,2.0562,1.8262,1.5915,1.5182,1.0348,0.5634,0.2962,0.0296,-0.1729,-0.2519,-0.2952,-0.2993,-0.2545,-0.2446,-0.2451,-0.2463,-0.2354,-0.2496,-0.3262,-0.4574,-0.6059,-0.779,-1.0009,-1.2259,-1.4821,-1.7451,-2.0483,-2.3703,-2.6953,-2.902,-3.01,-3.2471,-3.4318,-3.5666,-3.6736,-3.8896,-4.1888,-4.2524,-4.4591,-4.7773,-4.8681,-4.9293,-4.9878,-5.1209,-5.2052,-5.2599,-5.368,-5.4479,-5.5174,0.0,0.0,0.0,0.0,0.0,1.9172,1.9543,0.0,0.0,0.0,0.0,0.0,0.0,0.0,2.0123,1.9585,1.9766,1.9982,2.006,1.9963,1.9806,1.965,1.9395,1.9395,1.9825,1.945,1.9273,1.9251,1.958,1.929,1.835,2.0249,2.0314,1.8844,1.8583,1.8339,1.817,1.8165,1.846,1.8757,1.8316,1.8423,1.8776,1.8394,1.8026,1.7692,1.7803,1.7456,1.6827,1.5929,1.5613,1.5471,1.476,1.4637,1.4906,1.5783,1.623,1.6416,1.6593,1.7371,1.8318,1.9004,1.8467,1.834,2.0086,1.8936,1.7623,1.8547,1.7417,1.5965,1.4999,1.0619,0.6278,0.3665,0.138,-0.0406,-0.1265,-0.1591,-0.1937,-0.2345,-0.2468,-0.2805,-0.3477,-0.3042,-0.3203,-0.4112,-0.544,-0.6951,-0.8587,-1.0528,-1.2812,-1.5554,-1.8006,-2.0698,-2.3435,-2.5652,-2.7418,-2.9002,-3.1103,-3.3051,-3.4625,-3.548,-3.7814,-4.1135,-4.0836,-4.3229,-4.7184,-4.7903,-4.8522,-4.9051,-5.0183,-5.0933,-5.1541,-5.2384,-5.3158,-5.3844,0.0,1.8941,1.8411,1.9225,1.9067,1.8876,1.8876,1.9638,2.0071,1.9794,0.0,0.0,0.0,0.0,0.0,2.0664,2.0255,2.0157,2.0547,1.9806,1.9316,1.9316,1.9298,1.9376,1.9687,1.9747,1.985,1.9902,2.0222,2.0131,1.9658,2.0091,1.9995,1.955,1.9901,1.9552,1.8731,1.8379,1.8459,1.8798,1.8259,1.8389,1.8757,1.7658,1.7511,1.7882,1.8398,1.7758,1.6703,1.6982,1.6367,1.5275,1.4114,1.3756,1.3777,0.0,1.4662,1.4955,0.0,0.0,0.0,1.6779,1.5405,1.4491,1.8152,1.7366,1.5963,1.6155,1.5708,1.5081,1.4431,1.2361,1.007,0.7931,0.541,0.3335,0.2519,0.1902,0.0751,-0.1449,-0.2018,-0.2917,-0.4263,-0.3186,-0.3005,-0.4819,-0.5491,-0.6784,-0.9207,-1.0657,-1.3004,-1.6786,-1.9013,-2.0788,-2.2076,-2.407,-2.597,-2.8062,-2.9386,-3.1271,-3.3536,-3.3124,-3.5806,-4.0841,-3.9778,-4.1854,-4.598,-4.6665,-4.7723,-4.8977,-4.9314,-5.0121,-5.1177,-5.1177,-5.1718,-5.2779,1.97,1.912,1.8662,1.8987,1.8885,1.8761,1.8664,1.8935,1.8996,0.0,0.0,0.0,1.9795,2.0374,2.111,2.2002,2.1883,2.1663,2.1645,2.1983,2.1907,2.1298,2.0566,2.0411,2.0991,1.9256,1.874,1.9562,1.9127,1.886,1.8765,1.9486,1.926,1.824,1.8916,1.8849,1.824,1.9122,1.9634,1.9944,1.9767,2.014,2.07,2.0709,2.0578,2.0293,1.9775,1.8879,1.7724,1.6542,1.5683,1.4848,1.3695,1.3014,0.0,0.0,0.0,0.0,1.3059,0.0,0.0,0.0,0.0,0.0,1.4323,1.4137,1.3743,1.4159,1.4045,1.3938,1.3773,1.2427,1.1376,1.1453,0.7838,0.4653,0.3566,0.2744,0.1822,0.0889,-0.0112,-0.112,-0.2464,-0.2502,-0.3005,-0.4347,-0.5487,-0.6899,-0.8593,-1.1378,-1.4014,-1.6414,-1.8268,-1.9663,-2.0703,-2.2466,-2.4115,-2.5905,-2.7765,-2.9738,-3.1455,-3.2633,-3.5049,-3.8568,-3.8704,-4.0953,-4.459,-4.662,-4.7604,-4.7846,-4.8764,-4.9437,-4.9978,-5.0414,-5.0984,-5.1726,1.9629,1.8979,1.8474,1.8807,1.8577,1.8454,1.8484,1.8716,1.8804,0.0,0.0,0.0,1.9953,2.0837,2.1606,2.197,2.2088,2.2043,2.1778,2.2357,2.2239,2.1231,2.0664,2.0251,1.9935,1.8493,1.79,1.8231,1.7726,1.7412,1.7347,1.7786,1.744,1.6562,1.7238,1.7309,1.6991,1.8054,1.9122,2.0118,2.0096,2.0613,2.1423,2.1725,2.1655,2.1273,2.0161,1.9198,1.8121,1.6265,1.4794,1.3605,1.3013,1.2096,1.1262,1.1508,0.0,0.0,0.0,0.0,1.0919,1.0508,0.0,0.0,1.1024,1.1295,1.1433,1.1592,1.1861,1.2181,1.2319,1.1477,1.0988,1.195,0.928,0.6871,0.6024,0.5365,0.4496,0.3193,0.1782,0.0448,-0.0896,-0.1705,-0.2774,-0.4464,-0.5606,-0.714,-0.8836,-1.1547,-1.3711,-1.5297,-1.6882,-1.8265,-1.9431,-2.0969,-2.2774,-2.4642,-2.6175,-2.8097,-3.0288,-3.1997,-3.4657,-3.7788,-3.8951,-4.1178,-4.4082,-4.5907,-4.6782,-4.7059,-4.8094,-4.8808,-4.9222,-4.9552,-4.9916,-5.0304,0.0,1.8731,1.8125,1.8542,1.8337,1.8053,0.0,1.8744,1.8846,0.0,1.9377,2.0215,2.0495,2.1372,2.1683,2.095,2.138,2.153,2.1191,2.1507,2.1114,1.9787,1.9787,1.9135,1.7695,1.7363,1.6953,1.637,1.6028,0.0,0.0,0.0,1.5034,1.4682,1.508,1.5233,1.5202,1.5774,1.722,1.911,1.9354,2.0139,2.1187,2.125,2.129,2.1112,1.9928,1.8955,1.7969,1.5881,1.3717,1.1971,1.1992,1.0924,0.9628,0.9707,0.9572,0.0,0.0,0.0,0.0,0.8519,0.8053,0.0,0.8048,0.8638,0.9117,0.8574,0.9358,1.0173,1.0122,0.9537,0.9348,1.029,0.9567,0.8862,0.8932,0.8605,0.7493,0.5122,0.355,0.202,0.0224,-0.091,-0.2428,-0.4702,-0.5856,-0.7512,-0.9694,-1.1164,-1.2572,-1.3806,-1.5226,-1.671,-1.8279,-1.9826,-2.1724,-2.3977,-2.4673,-2.6544,-2.9523,-3.1249,-3.4146,-3.7892,-3.9564,-4.1693,-4.4071,-4.4729,-4.5513,-4.6349,-4.7466,-4.8296,-4.8696,-4.8753,-4.8733,-4.9,1.8883,1.8955,1.8912,1.8454,1.838,1.8197,0.0,1.776,1.761,1.7055,1.7512,1.8386,1.9698,1.9941,2.0195,2.0428,2.1163,2.1081,1.9652,2.0492,2.0245,1.8477,1.7713,1.7439,1.747,1.5532,1.4711,1.5134,1.3997,0.0,0.0,0.0,0.0,1.3001,1.308,1.3001,1.2844,1.3209,1.3957,1.517,1.7628,1.9093,1.9966,2.0526,2.0597,2.0357,1.9522,1.8595,1.7216,1.4476,1.2711,1.1475,1.0647,0.9606,0.8714,0.8819,0.8346,0.775,0.7599,0.7577,0.7231,0.6062,0.5422,0.0,0.4903,0.5919,0.6516,0.5421,0.7424,0.8963,0.7503,0.7054,0.7197,0.7987,0.7459,0.734,0.8613,0.7969,0.6839,0.5335,0.4993,0.3589,0.0336,-0.1025,-0.2545,-0.4702,-0.675,-0.8575,-0.97,-1.0579,-1.1709,-1.3035,-1.421,-1.5549,-1.726,-1.8932,-2.0624,-2.2428,-2.3962,-2.5761,-2.8089,-3.0025,-3.295,-3.633,-3.8056,-4.0158,-4.2564,-4.3643,-4.471,-4.5741,-4.6723,-4.7347,-4.7801,-4.7651,-4.7978,-4.849,1.7939,1.8049,1.805,1.7754,0.0,0.0,0.0,1.7253,1.7001,1.6433,1.6845,1.7326,1.7989,1.8497,1.8795,1.9093,1.9365,1.9206,1.8224,1.8617,1.8224,1.6566,1.5903,1.5259,1.4838,1.3381,1.2742,1.2808,0.0,0.0,0.0,0.0,0.0,1.0502,1.0918,1.1001,1.0918,1.1466,1.195,1.2687,1.5791,1.751,1.8481,1.9488,1.9874,1.9683,1.8635,1.6703,1.4455,1.2661,1.107,0.9581,0.8798,0.7836,0.715,0.7252,0.6652,0.5905,0.5923,0.5536,0.4914,0.402,0.3215,0.0,0.0,0.2909,0.331,0.3134,0.424,0.5074,0.4839,0.4555,0.471,0.5753,0.5346,0.5032,0.5718,0.5829,0.5593,0.484,0.3835,0.2333,0.0224,-0.1356,-0.321,-0.528,-0.725,-0.8604,-0.9098,-0.9822,-1.0904,-1.2266,-1.3021,-1.4538,-1.6646,-1.8034,-1.9709,-2.1875,-2.3322,-2.5344,-2.7955,-3.067,-3.3508,-3.6226,-3.8679,-4.0718,-4.2092,-4.2708,-4.3687,-4.4936,-4.6317,-4.6951,-4.7207,-4.742,-4.7558,-4.7837,1.7085,1.706,1.7089,1.7039,0.0,0.0,0.0,1.6854,1.6669,1.6143,1.6321,1.647,1.6441,1.706,1.7515,1.7542,1.7456,1.7202,1.6662,1.6536,1.5913,1.4569,1.4076,1.3335,1.235,1.1753,1.1228,1.0585,0.0,0.0,0.0,0.0,0.0,0.8416,0.899,0.9235,0.9218,0.9999,1.0427,1.071,1.3361,1.5251,1.6624,1.7765,1.8349,1.8281,1.6829,1.4259,1.1479,1.0647,0.914,0.7522,0.6836,0.6194,0.56,0.556,0.4924,0.4223,0.4134,0.3387,0.2504,0.197,0.1073,0.0267,0.0,0.0,0.0,0.0435,0.0346,0.0523,0.1629,0.1453,0.1553,0.28,0.2633,0.2167,0.1693,0.256,0.3283,0.3467,0.1716,0.0219,-0.0556,-0.2464,-0.4318,-0.6299,-0.7817,-0.8684,-0.8812,-0.9566,-1.0494,-1.1765,-1.2381,-1.3948,-1.6404,-1.7526,-1.9325,-2.1889,-2.3191,-2.5341,-2.8388,-3.1574,-3.4218,-3.6549,-3.9601,-4.1372,-4.2092,-4.2297,-4.304,-4.4201,-4.5669,-4.6339,-4.6578,-4.7011,-4.7161,-4.7065,1.6559,1.6858,1.6923,1.6682,0.0,0.0,0.0,1.6567,1.6431,1.6284,1.5434,1.5184,1.6184,1.5969,1.5898,1.6062,1.6584,1.6213,1.432,1.4723,1.4446,1.3067,1.2404,1.2196,1.2307,1.1334,1.0635,1.0032,1.0036,0.0,0.0,0.0,0.0,0.814,0.8086,0.7929,0.7746,0.8257,0.8511,0.8574,0.9685,1.1567,1.3903,1.4545,1.5018,1.5062,1.3172,1.1654,1.0205,0.8443,0.7186,0.6222,0.5309,0.5061,0.494,0.4112,0.3381,0.2698,0.2159,0.1411,0.0536,-0.0447,-0.161,-0.2606,-0.3188,0.0,-0.4024,-0.4085,0.0,-0.3479,-0.2845,0.0,0.0,-0.2142,-0.1638,-0.175,-0.2667,-0.1879,-0.0969,-0.0101,-0.0522,-0.1395,-0.2839,-0.5274,-0.6863,-0.7122,-0.8864,-0.9968,-1.0206,-1.059,-1.1233,-1.239,-1.3005,-1.444,-1.664,-1.8129,-2.0174,-2.2736,-2.4007,-2.6069,-2.904,-3.1377,-3.3899,-3.6633,-3.8839,-4.0541,-4.1822,-4.2851,-4.339,-4.3796,-4.4098,-4.4969,-4.5895,-4.5554,-4.5975,-4.6757,1.5806,1.6058,1.6241,1.6138,0.0,0.0,1.6504,1.6243,1.5947,1.5431,1.4785,1.4627,1.5124,1.469,1.4437,1.4541,1.4489,1.3892,1.2685,1.2474,0.0,1.125,1.0717,1.0534,1.0712,0.9875,0.9301,0.8801,0.8831,0.8329,0.0,0.0,0.0,0.7111,0.7152,0.7126,0.7132,0.7495,0.7529,0.7423,0.7901,0.8974,1.0529,1.2029,1.2741,1.2658,1.1505,1.0003,0.8343,0.6793,0.5353,0.4166,0.3993,0.3295,0.2489,0.2051,0.1512,0.0946,0.0439,-0.0533,-0.1696,-0.2499,-0.3871,-0.5099,-0.5775,-0.6447,-0.6844,-0.6796,0.0,0.0,0.0,0.0,0.0,0.0,-0.5101,-0.5291,-0.68,-0.6138,-0.466,-0.2259,-0.2528,-0.3434,-0.4923,-0.7116,-0.8355,-0.8221,-0.9546,-1.0517,-1.0724,-1.1278,-1.1946,-1.2958,-1.4134,-1.5579,-1.7298,-1.9128,-2.1018,-2.3103,-2.4753,-2.6427,-2.8262,-3.1233,-3.3481,-3.5212,-3.816,-4.0158,-4.1324,-4.2431,-4.3158,-4.3504,-4.3598,-4.4308,-4.52,-4.5369,-4.5674,-4.5969,1.5268,1.5579,1.5891,1.5891,1.6057,1.6197,1.614,1.5971,1.5625,1.512,1.4509,1.4182,1.4307,1.3706,1.3251,1.303,1.2397,1.1744,1.0996,1.0563,1.0241,0.9896,0.9567,0.9312,0.9266,0.8686,0.8163,0.7702,0.7702,0.7428,0.0,0.0,0.0,0.0,0.6554,0.6599,0.6666,0.6955,0.6893,0.6789,0.6893,0.7196,0.7923,1.0058,1.0812,1.0557,0.9785,0.8351,0.6655,0.5439,0.3904,0.2485,0.2426,0.16,0.0575,0.0418,-0.0258,-0.0974,-0.1161,-0.2343,-0.372,-0.4499,-0.5839,-0.723,-0.8099,-0.8761,-0.9153,-0.9272,-0.9255,0.0,0.0,0.0,-0.7937,-0.8404,0.0,-0.8351,-1.0104,-0.9648,-0.7951,-0.4767,-0.5303,-0.6469,-0.7679,-0.9533,-1.0453,-1.0262,-1.152,-1.2487,-1.2581,-1.3218,-1.3953,-1.4815,-1.5886,-1.7253,-1.8617,-2.0355,-2.2212,-2.3871,-2.5339,-2.6608,-2.7814,-3.0579,-3.263,-3.4125,-3.7176,-3.9424,-4.0847,-4.2184,-4.294,-4.3284,-4.3727,-4.4225,-4.473,-4.5151,-4.5467,-4.5655,1.5081,1.5794,1.628,1.628,1.6043,1.5753,1.559,1.5564,1.5574,1.5954,1.468,1.3931,1.4317,1.3092,1.1935,1.1272,1.0902,1.0184,0.9103,0.9239,0.9316,0.9195,0.8945,0.8769,0.8634,0.8149,0.7552,0.6868,0.709,0.7027,0.0,0.0,0.0,0.0,0.6292,0.6134,0.6426,0.6426,0.6431,0.6431,0.6431,0.6355,0.6576,0.8653,0.9165,0.864,0.7422,0.6234,0.5133,0.4501,0.3161,0.152,0.0466,-0.0,-0.0168,-0.0336,-0.1671,-0.3032,-0.2611,-0.3867,-0.5566,-0.6374,-0.7547,-0.8824,-1.0224,-1.0554,-1.081,-1.1976,-1.148,-1.0868,-1.0868,0.0,0.0,0.0,0.0,0.0,0.0,-1.1969,-1.0741,-0.8426,-0.944,-1.0733,-1.1706,-1.3203,-1.4005,-1.3801,-1.554,-1.6639,-1.6622,-1.7197,-1.7901,-1.8659,-1.8796,-1.9481,-2.0693,-2.2025,-2.3637,-2.5397,-2.5593,-2.6735,-2.8668,-2.8957,-3.0847,-3.3997,-3.5759,-3.802,-4.0695,-4.2294,-4.2971,-4.3127,-4.4251,-4.4733,-4.4694,-4.4694,-4.5183,-4.5893,1.4772,1.5371,1.5832,1.5628,1.5679,1.561,1.5574,1.5554,1.5332,1.4931,1.428,1.3766,1.3259,1.2361,1.137,1.0379,0.9829,0.9233,0.8176,0.7921,0.7775,0.7854,0.7481,0.7426,0.7557,0.7398,0.713,0.6643,0.6906,0.6813,0.6386,0.0,0.0,0.0,0.6177,0.6197,0.6479,0.6479,0.6414,0.627,0.6055,0.5817,0.5836,0.7354,0.7417,0.6474,0.582,0.5044,0.4151,0.2906,0.1537,0.034,-0.0514,-0.1139,-0.1703,-0.233,-0.294,-0.3587,-0.4364,-0.5506,-0.6744,-0.811,-0.9115,-1.0216,-1.1512,-1.2052,-1.2583,-1.3543,-1.3237,-1.2993,-1.3203,0.0,0.0,0.0,0.0,0.0,0.0,-1.3616,-1.3773,-1.3926,-1.3585,-1.352,-1.385,-1.5217,-1.5919,-1.5784,-1.6953,-1.7724,-1.8253,-1.8846,-1.949,-1.9949,-2.1034,-2.1715,-2.1919,-2.384,-2.4827,-2.4809,-2.6224,-2.6772,-2.6754,-2.8379,-3.0405,-3.2918,-3.497,-3.7394,-4.0082,-4.2009,-4.2368,-4.1966,-4.3304,-4.3877,-4.4061,-4.4128,-4.4789,-4.5497,1.4853,1.5292,1.5577,1.5604,1.5644,1.5633,1.5429,1.5317,1.5044,1.4517,1.3796,1.313,1.2435,1.1374,1.028,0.9303,0.9075,0.8482,0.7003,0.719,0.715,0.6739,0.6619,0.6571,0.6728,0.6598,0.6509,0.644,0.6447,0.6381,0.6255,0.0,0.0,0.0,0.6098,0.6125,0.6502,0.6391,0.6298,0.6106,0.5799,0.5471,0.5201,0.6049,0.5811,0.5034,0.4278,0.3569,0.2716,0.1357,0.0181,-0.0817,-0.1921,-0.2523,-0.2962,-0.3629,-0.4006,-0.4514,-0.5636,-0.6848,-0.8065,-0.9414,-1.0427,-1.134,-1.2699,-1.3301,-1.379,-1.4695,-1.463,-1.4539,-1.4861,-1.4242,0.0,0.0,0.0,0.0,0.0,-1.5738,-1.6464,-1.7535,-1.6483,-1.5837,-1.6095,-1.7272,-1.8102,-1.8097,-1.8941,-1.9882,-2.0662,-2.1281,-2.1844,-2.2432,-2.3356,-2.3533,-2.3103,-2.4869,-2.5372,-2.4718,-2.6044,-2.6445,-2.6008,-2.7384,-2.9319,-3.1759,-3.3975,-3.6597,-3.9501,-4.1457,-4.1991,-4.1731,-4.3058,-4.3701,-4.3869,-4.384,-4.4402,-4.525,1.5145,1.5319,1.5413,1.5856,1.6099,1.5895,1.5262,1.4842,1.4709,1.4566,1.3293,1.2266,1.204,1.0378,0.8946,0.8193,0.8588,0.7873,0.5808,0.7222,0.7394,0.5799,0.6062,0.6153,0.6066,0.5812,0.5808,0.6178,0.5801,0.5801,0.6182,0.0,0.0,0.0,0.6085,0.6185,0.6598,0.6242,0.6071,0.5992,0.5735,0.5182,0.4698,0.4672,0.4539,0.4159,0.2674,0.1632,0.0932,-0.0186,-0.1025,-0.1871,-0.3823,-0.4143,-0.3853,-0.4156,-0.5047,-0.5881,-0.6318,-0.7846,-0.9545,-1.0369,-1.1291,-1.2404,-1.3772,-1.421,-1.4556,-1.5636,-1.5696,-1.5708,-1.6041,-1.5388,0.0,0.0,0.0,0.0,-1.719,-1.803,-1.8673,-1.9028,-1.8071,-1.7704,-1.8319,-1.9529,-2.0292,-2.0382,-2.1642,-2.2801,-2.3651,-2.4229,-2.5012,-2.6031,-2.5586,-2.5001,-2.4134,-2.4904,-2.5203,-2.4909,-2.5072,-2.5661,-2.6409,-2.6227,-2.7729,-3.0709,-3.2726,-3.5497,-3.8983,-4.0971,-4.1897,-4.2198,-4.3388,-4.3961,-4.4277,-4.3949,-4.423,-4.4986,1.443,1.4669,1.4884,1.5229,1.5691,1.576,1.5013,1.4718,1.4397,1.3451,1.2757,1.246,1.225,1.0518,0.9701,1.0541,0.8416,0.7017,0.7143,0.6281,0.5644,0.5649,0.541,0.5338,0.5454,0.5454,0.5398,0.5408,0.5339,0.5469,0.5797,0.0,0.0,0.0,0.6055,0.62,0.6445,0.6253,0.5966,0.5712,0.5495,0.491,0.407,0.3206,0.2326,0.1463,0.0745,-0.0311,-0.1443,-0.1774,-0.2831,-0.4005,-0.4183,-0.4337,-0.4473,-0.5017,-0.5507,-0.6125,-0.7182,-0.8282,-0.9244,-1.0304,-1.1276,-1.2224,-1.3285,-1.403,-1.48,-1.6175,-1.6454,-1.66,-1.7372,-1.6858,-1.638,0.0,0.0,0.0,-1.7023,-1.7638,-1.8081,-1.8069,-1.8505,-1.9063,-1.972,-2.0331,-2.0744,-2.1122,-2.2187,-2.3081,-2.3745,-2.4829,-2.5565,-2.5899,-2.6335,-2.58,-2.4393,-2.5413,-2.5013,-2.3364,-2.4872,-2.5569,-2.5551,-2.6209,-2.8167,-3.1278,-3.262,-3.5176,-3.855,-4.0434,-4.1688,-4.2501,-4.3198,-4.4202,-4.5083,-4.511,-4.4814,-4.4467,1.4375,1.4571,1.4762,1.4928,1.5274,1.5321,1.4891,1.4441,1.3966,1.3511,1.2901,1.2681,1.2799,1.1389,1.0639,1.109,0.9615,0.8103,0.7248,0.6611,0.6058,0.5181,0.4833,0.4792,0.5205,0.5068,0.5166,0.5352,0.5091,0.5342,0.5829,0.0,0.0,0.0,0.619,0.6243,0.6527,0.6222,0.5953,0.5586,0.5215,0.4611,0.0,0.2225,0.0737,-0.0487,-0.1508,-0.2256,-0.279,-0.3377,-0.4199,-0.4929,-0.5122,-0.5261,-0.5494,-0.6192,-0.6574,-0.7092,-0.8106,-0.9058,-0.998,-1.0926,-1.1803,-1.2657,-1.3774,-1.4375,-1.5102,-1.6351,-1.6822,-1.7236,-1.7904,-1.7623,-1.738,0.0,0.0,-1.7338,-1.7594,-1.8082,-1.8478,-1.8402,-1.8885,-1.9352,-1.9827,-2.0468,-2.1015,-2.1392,-2.237,-2.3396,-2.4315,-2.5172,-2.5819,-2.6094,-2.6471,-2.58,-2.4016,-2.5006,-2.47,-2.3045,-2.4872,-2.5679,-2.5679,-2.6847,-2.8687,-3.099,-3.275,-3.5192,-3.8137,-4.0343,-4.1781,-4.2528,-4.3561,-4.4667,-4.5502,-4.5906,-4.5731,-4.529,1.4578,1.4662,1.4694,1.4828,1.4659,1.4407,1.4657,1.4001,1.3626,1.4,1.3325,1.2998,1.3579,1.2512,1.165,1.1194,1.1133,0.9777,0.6913,0.7667,0.7051,0.4681,0.4518,0.465,0.4944,0.4653,0.4788,0.5497,0.5005,0.5243,0.0,0.0,0.0,0.0,0.6357,0.6427,0.6588,0.6198,0.5812,0.53,0.4794,0.4313,0.3558,0.1544,-0.0257,-0.181,-0.3537,-0.3921,-0.3685,-0.4871,-0.529,-0.5376,-0.6298,-0.6575,-0.6708,-0.7326,-0.7759,-0.8335,-0.898,-0.9936,-1.0897,-1.1515,-1.2291,-1.3208,-1.4452,-1.4821,-1.5385,-1.6301,-1.7009,-1.7652,-1.811,-1.8262,-1.8168,-1.7856,-1.7956,-1.8163,-1.8436,-1.892,-1.9108,-1.9134,-1.9109,0.0,-1.9272,-2.0289,-2.0995,-2.1374,-2.2372,-2.3587,-2.4934,-2.5204,-2.5619,-2.6244,-2.6284,-2.543,-2.3409,-2.4324,-2.4421,-2.3432,-2.4998,-2.5934,-2.6318,-2.7786,-2.9089,-3.0338,-3.305,-3.549,-3.7679,-4.041,-4.2037,-4.2866,-4.4257,-4.5205,-4.5813,-4.64,-4.6674,-4.6657,1.3954,1.4115,1.4309,1.4276,1.3978,1.372,1.3506,1.3729,1.385,1.34,1.3239,1.3539,1.4432,1.2539,1.1764,1.359,1.118,0.9282,0.8639,0.7577,0.623,0.4853,0.4714,0.4657,0.4853,0.4657,0.4777,0.4921,0.4715,0.0,0.0,0.0,0.0,0.0,0.6437,0.6317,0.5904,0.5508,0.4985,0.4336,0.4256,0.3345,0.1879,0.054,-0.0673,-0.1873,-0.4037,-0.4568,-0.4487,-0.5602,-0.621,-0.6597,-0.7047,-0.7212,-0.7413,-0.8054,-0.8263,-0.8481,-0.9613,-1.0088,-1.0489,-1.0988,-1.2033,-1.3047,-1.3742,-1.4479,-1.5345,-1.669,-1.7244,-1.7818,-1.8829,-1.9307,-1.936,-1.9112,-1.8902,-1.873,-1.8793,-1.893,-1.8788,-1.8452,-1.887,-1.9269,-1.9423,-1.9922,-2.0458,-2.1235,-2.2146,-2.2997,-2.3783,-2.4388,-2.4749,-2.4824,-2.5294,-2.5074,-2.4104,-2.4778,-2.4774,-2.4162,-2.5248,-2.617,-2.7031,-2.799,-2.9336,-3.1023,-3.3454,-3.5602,-3.7588,-4.0164,-4.2384,-4.4179,-4.4914,-4.5797,-4.6553,-4.6238,-4.6819,-4.77,1.3798,1.3814,1.373,1.3575,1.328,1.3037,1.2756,1.3466,1.397,1.3356,1.3849,1.449,1.5032,1.4006,1.3281,1.3274,1.1509,0.9645,0.8141,0.7245,0.6142,0.4978,0.4869,0.482,0.4848,0.482,0.479,0.4758,0.473,0.0,0.0,0.0,0.0,0.5883,0.5986,0.5812,0.5364,0.5227,0.4833,0.4172,0.2939,0.1691,0.0284,-0.1134,-0.241,-0.3404,-0.4676,-0.5178,-0.5485,-0.639,-0.6814,-0.7193,-0.7679,-0.7973,-0.8288,-0.8822,-0.9186,-0.9419,-1.0149,-1.0518,-1.0829,-1.133,-1.2256,-1.3155,-1.3897,-1.449,-1.5207,-1.6418,-1.7103,-1.791,-1.903,-1.9443,-1.9472,-1.9164,-1.9104,-1.9014,-1.8912,-1.9261,-1.9396,-1.8904,-1.9345,-1.9658,-1.9355,-1.986,-2.0297,-2.0612,-2.1682,-2.2461,-2.2832,-2.3502,-2.3917,-2.4035,-2.4815,-2.482,-2.411,-2.5136,-2.5448,-2.5004,-2.6354,-2.7068,-2.7493,-2.8818,-3.0035,-3.1371,-3.3721,-3.5747,-3.7686,-4.0644,-4.288,-4.4378,-4.4977,-4.5731,-4.6597,-4.6535,-4.7064,-4.7702,1.3588,1.3401,1.3118,1.3155,1.2856,1.247,1.2046,1.2956,1.3763,1.3534,1.4603,1.5244,1.5015,1.4907,1.4025,1.2122,1.139,0.9914,0.7389,0.6994,0.6483,0.5076,0.5025,0.4995,0.4995,0.4995,0.497,0.4921,0.4907,0.5004,0.5206,0.0,0.0,0.5534,0.5521,0.5402,0.5027,0.4895,0.4351,0.3366,0.1321,-0.0,-0.0894,-0.2804,-0.4142,-0.4917,-0.5305,-0.5763,-0.6371,-0.7248,-0.7481,-0.7677,-0.8474,-0.89,-0.9344,-0.973,-0.9986,-1.0379,-1.0796,-1.1047,-1.1406,-1.1976,-1.272,-1.3436,-1.4137,-1.4572,-1.5102,-1.6046,-1.7031,-1.8093,-1.9185,-1.9556,-1.9527,-1.9269,-1.932,-1.9434,-1.9117,-1.9706,-1.9939,-1.9477,-1.9939,-2.0062,-1.9608,-2.0136,-2.0323,-2.0147,-2.1098,-2.1807,-2.2055,-2.2715,-2.3226,-2.3462,-2.4445,-2.4736,-2.4399,-2.5554,-2.6062,-2.6136,-2.7326,-2.794,-2.7996,-2.9451,-3.0741,-3.1856,-3.4117,-3.6339,-3.8509,-4.1415,-4.3269,-4.4338,-4.4654,-4.5467,-4.6279,-4.6621,-4.6941,-4.7471,1.329,1.3252,1.3155,1.3,1.256,1.204,1.1541,1.2102,1.2979,1.3871,1.4863,1.5212,1.4268,1.3418,1.2311,1.116,1.0196,0.9107,0.7893,0.7649,0.6993,0.5264,0.5538,0.5665,0.5177,0.5177,0.5175,0.5169,0.5115,0.5082,0.5068,0.0,0.499,0.5164,0.5256,0.5235,0.5244,0.4275,0.2815,0.0891,-0.0601,-0.1359,-0.1965,-0.3924,-0.4831,-0.4988,-0.5735,-0.6484,-0.7235,-0.8099,-0.8393,-0.8518,-0.9485,-0.9925,-1.014,-1.0743,-1.0902,-1.0946,-1.165,-1.1824,-1.1848,-1.2521,-1.3078,-1.3669,-1.3967,-1.4721,-1.5422,-1.5948,-1.7491,-1.9021,-1.9638,-2.0231,-2.0444,-2.0172,-2.0085,-1.9968,-1.9769,-1.9769,-1.9798,-1.9769,-2.0047,-2.0435,-2.0892,-2.0749,-2.055,-2.0346,-2.0654,-2.1013,-2.1322,-2.1989,-2.2515,-2.2756,-2.393,-2.4898,-2.5519,-2.6155,-2.6885,-2.76,-2.7464,-2.8095,-2.9399,-2.9789,-3.0975,-3.3035,-3.5302,-3.8087,-4.1273,-4.2622,-4.3561,-4.4102,-4.4666,-4.516,-4.5715,-4.5677,-4.6335,-4.7365,1.3428,1.3245,1.2901,1.2562,1.2311,1.1963,1.1356,1.198,1.2635,1.2781,1.3713,1.3877,1.2635,1.2346,1.1481,0.9662,0.9231,0.8488,0.7409,0.7006,0.6666,0.6237,0.5805,0.5584,0.5748,0.542,0.524,0.5202,0.5215,0.5183,0.5112,0.478,0.4539,0.425,0.4352,0.4327,0.4034,0.4238,0.2748,-0.0,-0.2009,-0.2788,-0.2944,-0.4215,-0.4828,-0.5111,-0.5926,-0.6566,-0.7345,-0.843,-0.877,-0.9045,-0.9848,-1.0298,-1.0625,-1.1161,-1.169,-1.2088,-1.2379,-1.2402,-1.2543,-1.3005,-1.3408,-1.3729,-1.4033,-1.4568,-1.5326,-1.5996,-1.7803,-1.9239,-1.9751,-2.0245,-2.0638,-2.0201,-2.0398,-2.0413,-2.0091,-2.0259,-2.0284,-2.0046,-1.9949,-1.9962,-1.996,-1.9921,-1.9598,-1.8972,-1.9847,-2.0343,-2.0376,-2.1128,-2.1852,-2.2391,-2.3911,-2.5021,-2.6026,-2.6591,-2.7215,-2.7765,-2.826,-2.8781,-2.9231,-3.0193,-3.207,-3.4697,-3.7,-3.9396,-4.1787,-4.2312,-4.2944,-4.3579,-4.3974,-4.4455,-4.5206,-4.5393,-4.6081,-4.7051,1.344,1.3289,1.2922,1.2337,1.209,1.1863,1.1306,1.1481,1.1843,1.1611,1.2306,1.2327,1.1267,1.1504,1.081,0.8588,0.8505,0.8089,0.7138,0.6775,0.6609,0.6833,0.623,0.5852,0.6041,0.5688,0.5335,0.5308,0.5352,0.5319,0.5218,0.4717,0.4179,0.3621,0.3721,0.3394,0.3098,0.3751,0.2363,-0.0635,-0.2698,-0.3335,-0.3495,-0.4166,-0.4793,-0.5238,-0.6081,-0.6741,-0.7385,-0.8655,-0.914,-0.9407,-1.0292,-1.0866,-1.1126,-1.154,-1.2278,-1.2714,-1.282,-1.2986,-1.3268,-1.3434,-1.3798,-1.3947,-1.4127,-1.4686,-1.5435,-1.6425,-1.7961,-1.9345,-1.9765,-2.0231,-2.0496,-2.0201,-2.0405,-2.0507,-2.0172,-2.0329,-2.0486,-2.0256,-1.9959,-1.9875,-1.9851,-1.9466,-1.9123,-1.8672,-1.9431,-1.9742,-1.9578,-2.039,-2.1415,-2.2388,-2.3844,-2.5081,-2.6256,-2.6623,-2.7187,-2.7948,-2.8637,-2.9112,-2.9465,-3.1264,-3.3737,-3.6519,-3.853,-4.0364,-4.1893,-4.2279,-4.2815,-4.3465,-4.3849,-4.4321,-4.4957,-4.5455,-4.6071,-4.6689,1.3116,1.3269,1.3269,1.2475,1.1993,1.1511,1.1028,1.0711,1.0389,1.0389,1.0487,1.0552,1.0552,1.088,1.0224,0.8098,0.8011,0.7897,0.7398,0.7473,0.7348,0.6833,0.6833,0.6696,0.6252,0.5845,0.5499,0.5556,0.5556,0.5526,0.5466,0.4789,0.4089,0.3304,0.3229,0.3055,0.2437,0.2602,0.0976,-0.1301,-0.2276,-0.2926,-0.3251,-0.4225,-0.4712,-0.5361,-0.6175,-0.6985,-0.7956,-0.8765,-0.9406,-0.9874,-1.1025,-1.1366,-1.1386,-1.2026,-1.2581,-1.3,-1.3148,-1.3428,-1.3735,-1.4027,-1.4474,-1.4648,-1.4127,-1.5073,-1.6285,-1.7549,-1.8344,-1.9011,-1.9694,-2.006,-2.0288,-2.023,-2.0294,-2.0172,-1.9857,-1.9991,-2.0141,-2.0141,-2.0091,-2.0321,-2.0985,-1.9885,-1.9466,-2.0133,-1.9624,-1.9269,-1.9278,-2.0168,-2.1345,-2.2796,-2.38,-2.5008,-2.6353,-2.6328,-2.7044,-2.8605,-2.8215,-2.8835,-3.0343,-3.3217,-3.6042,-3.8814,-3.9866,-4.1067,-4.2259,-4.3174,-4.3533,-4.3623,-4.4609,-4.5012,-4.5057,-4.5528,-4.602,-4.6446,1.3771,1.3605,1.322,1.2631,1.237,1.2105,1.1447,1.1117,1.0952,1.0623,1.0655,1.0485,1.0235,0.9968,0.9492,0.8432,0.8177,0.8089,0.7981,0.7619,0.7462,0.7344,0.6666,0.6334,0.6188,0.5696,0.5542,0.5559,0.5521,0.513,0.4396,0.4347,0.3787,0.2749,0.2888,0.2393,0.143,-0.032,-0.1131,-0.1465,-0.2765,-0.3253,-0.3419,-0.4263,-0.491,-0.5207,-0.5903,-0.6738,-0.7561,-0.8543,-0.9034,-0.9677,-1.1103,-1.158,-1.1547,-1.2603,-1.3134,-1.3647,-1.4205,-1.4366,-1.4538,-1.5134,-1.5389,-1.5246,-1.5131,-1.5913,-1.6926,-1.8092,-1.8889,-1.9614,-2.0275,-2.0639,-2.0931,-2.0856,-2.087,-2.0987,-2.1103,-2.0815,-2.0496,-2.0429,-1.9742,-1.9111,-1.9137,-1.8544,-1.8312,-1.852,-1.8741,-1.9043,-1.9502,-2.0484,-2.1247,-2.1948,-2.3632,-2.4862,-2.5792,-2.642,-2.7383,-2.8657,-2.9042,-3.0259,-3.2353,-3.5023,-3.691,-3.8191,-3.9756,-4.1093,-4.195,-4.2239,-4.2835,-4.3447,-4.3752,-4.4133,-4.443,-4.4581,-4.5075,-4.5784,1.4624,1.4268,1.3874,1.3105,1.2997,1.2558,1.1716,1.1548,1.1379,1.0873,1.0873,1.0677,1.0435,0.9988,0.9445,0.8605,0.8514,0.8257,0.8142,0.7788,0.7804,0.7688,0.7007,0.6508,0.6362,0.6034,0.571,0.5559,0.5501,0.4954,0.4087,0.4052,0.3501,0.2626,0.2615,0.2107,0.1123,-0.0808,-0.1786,-0.179,-0.2766,-0.3098,-0.3111,-0.3939,-0.4441,-0.4777,-0.5613,-0.6463,-0.7154,-0.831,-0.8971,-0.9637,-1.1117,-1.1625,-1.1764,-1.2986,-1.3647,-1.3989,-1.4601,-1.4887,-1.5002,-1.5604,-1.5764,-1.5958,-1.6121,-1.6868,-1.7609,-1.8325,-1.9099,-1.982,-2.0359,-2.0795,-2.1095,-2.1131,-2.1102,-2.1042,-2.1242,-2.064,-2.0119,-2.0244,-1.91,-1.825,-1.8301,-1.8001,-1.784,-1.7978,-1.8439,-1.9047,-1.976,-2.055,-2.1274,-2.1903,-2.3247,-2.4418,-2.5509,-2.6094,-2.7092,-2.8503,-3.0056,-3.1595,-3.3452,-3.5918,-3.7505,-3.8528,-3.9813,-4.1007,-4.1872,-4.1872,-4.2321,-4.3028,-4.3199,-4.3611,-4.4167,-4.4337,-4.4721,-4.5106,1.5561,1.522,1.4878,1.4016,1.3502,1.2987,1.1962,1.179,1.1618,1.1274,1.1101,1.1107,1.1112,1.0756,0.9938,0.882,0.8707,0.8588,0.8248,0.8162,0.8207,0.8207,0.7704,0.7399,0.6945,0.6369,0.6022,0.5553,0.5504,0.4989,0.416,0.4079,0.3553,0.2731,0.2702,0.2173,0.1325,0.0331,-0.0988,-0.2448,-0.2611,-0.2626,-0.2808,-0.3598,-0.3958,-0.4189,-0.5468,-0.6321,-0.6885,-0.8219,-0.8892,-0.9574,-1.0904,-1.1476,-1.1999,-1.3325,-1.3814,-1.417,-1.4625,-1.5009,-1.5354,-1.5505,-1.5949,-1.6415,-1.7146,-1.7803,-1.8273,-1.8476,-1.9193,-1.9786,-2.0103,-2.051,-2.0739,-2.1074,-2.0832,-2.0725,-2.0766,-1.9769,-1.9199,-1.9487,-1.8314,-1.7692,-1.836,-1.8046,-1.8049,-1.8324,-1.8684,-1.9101,-1.9771,-2.0485,-2.1348,-2.2482,-2.3021,-2.3944,-2.5413,-2.5617,-2.6596,-2.8378,-3.1029,-3.2859,-3.3974,-3.5933,-3.7822,-3.9495,-3.9939,-4.0771,-4.1919,-4.1919,-4.2216,-4.2725,-4.317,-4.3615,-4.4082,-4.4506,-4.4654,-4.4654,1.5724,1.5213,1.4707,1.4529,1.4016,1.3502,1.2987,1.2638,1.2128,1.1618,1.1274,1.1134,1.1221,1.0799,1.0406,1.0066,0.933,0.8955,0.8783,0.8461,0.8133,0.7788,0.7845,0.7334,0.6429,0.6292,0.6094,0.5496,0.5526,0.5156,0.4579,0.425,0.372,0.3169,0.2829,0.2158,0.1325,0.0331,-0.0664,-0.1669,-0.2338,-0.2995,-0.364,-0.3465,-0.411,-0.4915,-0.49,-0.559,-0.6804,-0.7462,-0.8339,-0.9569,-1.057,-1.1311,-1.2018,-1.3288,-1.3982,-1.4487,-1.5922,-1.6171,-1.6259,-1.7198,-1.7273,-1.7369,-1.7518,-1.7767,-1.8358,-1.9194,-1.9472,-1.9708,-2.032,-2.0349,-2.0372,-2.0739,-2.047,-2.0496,-2.1203,-1.9928,-1.898,-1.9256,-1.8028,-1.7139,-1.7016,-1.747,-1.7771,-1.7905,-1.8812,-1.964,-2.0035,-2.12,-2.2055,-2.2131,-2.3478,-2.4471,-2.5149,-2.6577,-2.8207,-3.0343,-3.2105,-3.3552,-3.4696,-3.6371,-3.7669,-3.8806,-3.9146,-4.0104,-4.1255,-4.1544,-4.2168,-4.2898,-4.3299,-4.3635,-4.3622,-4.3573,-4.3462,-4.331,1.6697,1.595,1.5221,1.5301,1.4724,1.3995,1.3533,1.3369,1.3015,1.2491,1.2137,1.1804,1.1866,1.146,1.1094,1.1157,0.9859,0.9025,0.9025,0.8507,0.8161,0.7992,0.8031,0.7686,0.6952,0.6815,0.6274,0.5515,0.5372,0.5011,0.4784,0.4123,0.3587,0.3362,0.2858,0.2173,0.1159,-0.0497,-0.1325,-0.1326,-0.232,-0.2816,-0.3307,-0.329,-0.3785,-0.4617,-0.4569,-0.524,-0.6443,-0.7062,-0.8065,-0.9095,-1.0081,-1.1015,-1.1938,-1.2909,-1.3604,-1.4441,-1.5706,-1.6111,-1.6493,-1.7334,-1.7815,-1.7892,-1.7589,-1.8206,-1.8887,-1.9324,-1.9661,-1.9998,-2.0371,-2.0477,-2.0579,-2.0676,-2.0524,-2.0501,-2.067,-1.928,-1.8336,-1.8206,-1.7256,-1.6499,-1.6519,-1.7251,-1.7791,-1.793,-1.8714,-1.9408,-2.0251,-2.1193,-2.1938,-2.2311,-2.3532,-2.4506,-2.5278,-2.6801,-2.8691,-3.0801,-3.2377,-3.3624,-3.481,-3.6614,-3.7643,-3.7953,-3.8457,-3.9129,-4.0117,-4.061,-4.1244,-4.2174,-4.2549,-4.2899,-4.3004,-4.2851,-4.2697,-4.2697,1.7607,1.6775,1.6175,1.6348,1.5355,1.4584,1.4348,1.4186,1.3821,1.3455,1.309,1.273,1.2753,1.2191,1.2008,1.1841,1.0382,0.9279,0.9266,0.8731,0.8375,0.8375,0.8375,0.8197,0.7664,0.7129,0.6425,0.5559,0.5214,0.4867,0.487,0.3993,0.363,0.3432,0.2906,0.2199,0.1165,-0.1329,-0.1982,-0.1636,-0.229,-0.263,-0.281,-0.311,-0.3626,-0.4172,-0.442,-0.5068,-0.6092,-0.6845,-0.7795,-0.8603,-0.9406,-1.0528,-1.1801,-1.2115,-1.2972,-1.4125,-1.4947,-1.5793,-1.6545,-1.6907,-1.7602,-1.808,-1.7784,-1.8507,-1.9273,-1.9197,-1.974,-2.0197,-2.0209,-2.0426,-2.0668,-2.0668,-2.0705,-2.033,-1.9697,-1.8474,-1.7423,-1.7087,-1.6273,-1.5821,-1.6139,-1.7033,-1.7683,-1.7981,-1.8363,-1.9094,-2.0117,-2.1125,-2.2007,-2.2741,-2.3651,-2.4609,-2.5886,-2.7296,-2.8851,-3.06,-3.2132,-3.35,-3.4587,-3.6386,-3.7201,-3.7349,-3.7773,-3.8437,-3.918,-3.9643,-4.0355,-4.1304,-4.1686,-4.2088,-4.247,-4.239,-4.2256,-4.2316,1.7607,1.7135,1.672,1.6711,1.5985,1.5251,1.5272,1.4551,1.4003,1.3821,1.3455,1.3315,1.3431,1.2794,1.2587,1.2511,1.1431,1.0569,1.0121,0.95,0.8918,0.8566,0.8566,0.8353,0.7746,0.6805,0.6082,0.5559,0.5559,0.5214,0.4867,0.4306,0.3788,0.3467,0.2893,0.2201,0.1191,-0.0,-0.1175,-0.2511,-0.2679,-0.2833,-0.3144,-0.3302,-0.3779,-0.4408,-0.4557,-0.5207,-0.6032,-0.6506,-0.7471,-0.8603,-0.9088,-1.0307,-1.15,-1.1975,-1.2657,-1.3523,-1.5058,-1.6388,-1.7226,-1.6852,-1.7521,-1.801,-1.7879,-1.8187,-1.8581,-1.9118,-1.9022,-1.9118,-1.9675,-1.9487,-1.9334,-1.9881,-1.9646,-1.9312,-1.8966,-1.7746,-1.6764,-1.6827,-1.6039,-1.5596,-1.562,-1.6708,-1.7331,-1.7048,-1.8597,-1.9725,-1.9886,-2.1673,-2.279,-2.2973,-2.4104,-2.5755,-2.7569,-2.8862,-3.0156,-3.1285,-3.2554,-3.3648,-3.4457,-3.5785,-3.6582,-3.6865,-3.7315,-3.8311,-3.9719,-3.9883,-4.0538,-4.1728,-4.2096,-4.2396,-4.2425,-4.2067,-4.1835,-4.1837,1.83,1.7721,1.7333,1.7047,1.6323,1.5618,1.5704,1.5162,1.4606,1.4606,1.4229,1.3883,1.3952,1.3529,1.3144,1.2829,1.2348,1.17,1.0911,0.9894,0.9269,0.8677,0.8677,0.8273,0.7477,0.7088,0.6366,0.5657,0.548,0.5127,0.4951,0.4222,0.3687,0.3685,0.3125,0.2583,0.1881,0.0511,-0.0677,-0.2018,-0.2524,-0.2852,-0.3006,-0.3006,-0.3494,-0.4301,-0.4276,-0.4759,-0.5739,-0.635,-0.6985,-0.7948,-0.8701,-0.977,-1.082,-1.1535,-1.2711,-1.4083,-1.5015,-1.5836,-1.6397,-1.6572,-1.7095,-1.7621,-1.791,-1.8342,-1.8838,-1.9415,-1.9667,-1.9922,-2.0063,-1.997,-2.0029,-2.0029,-1.9267,-1.8517,-1.8062,-1.6635,-1.5686,-1.5432,-1.5189,-1.5083,-1.5466,-1.6569,-1.7303,-1.7303,-1.8652,-1.9759,-2.0221,-2.1491,-2.2537,-2.3466,-2.4765,-2.6293,-2.8139,-2.8461,-2.9763,-3.207,-3.2402,-3.3348,-3.5094,-3.5769,-3.639,-3.6831,-3.6983,-3.7815,-3.8936,-3.9127,-3.9682,-4.0531,-4.0899,-4.1113,-4.1132,-4.117,-4.1148,-4.1183,1.9044,1.8501,1.8116,1.7596,1.668,1.6168,1.6292,1.5779,1.5423,1.5423,1.5073,1.4702,1.4669,1.4291,1.3712,1.3305,1.3022,1.2404,1.147,1.0645,0.9618,0.8953,0.8746,0.8332,0.7352,0.7173,0.6815,0.592,0.538,0.5022,0.5022,0.4116,0.3744,0.3725,0.2825,0.2447,0.2241,0.0688,-0.0342,-0.1017,-0.2198,-0.2703,-0.2702,-0.2864,-0.3197,-0.3864,-0.3999,-0.4477,-0.5286,-0.6054,-0.6675,-0.7294,-0.8331,-0.9412,-1.0335,-1.0837,-1.2347,-1.4053,-1.4507,-1.4968,-1.5548,-1.601,-1.6578,-1.7133,-1.7724,-1.8392,-1.8937,-1.9219,-1.9904,-2.0295,-2.0005,-2.0005,-2.0005,-1.9715,-1.8717,-1.7576,-1.6849,-1.5667,-1.4646,-1.4255,-1.4533,-1.4781,-1.5118,-1.6198,-1.7024,-1.7327,-1.8465,-1.9371,-2.0012,-2.1069,-2.2487,-2.4429,-2.5607,-2.6833,-2.7988,-2.8016,-2.9552,-3.2155,-3.1999,-3.3084,-3.5279,-3.5834,-3.6337,-3.663,-3.6785,-3.7149,-3.7877,-3.8409,-3.8713,-3.9155,-3.9632,-3.9959,-3.9934,-4.0394,-4.0584,-4.0556,1.9613,1.9139,1.8702,1.8693,1.7973,1.7234,1.7242,1.6619,1.6145,1.6145,1.5705,1.5554,1.5411,1.4819,1.4577,1.4247,1.3481,1.2722,1.2156,1.1584,1.0727,0.96,0.8961,0.8513,0.7889,0.7352,0.6994,0.6454,0.5918,0.538,0.502,0.444,0.4087,0.3582,0.2107,0.14,0.141,0.0349,-0.0,-0.0173,-0.2059,-0.2735,-0.2732,-0.321,-0.3367,-0.3533,-0.4369,-0.4672,-0.4794,-0.5613,-0.639,-0.7132,-0.7529,-0.8772,-1.0177,-1.0057,-1.1262,-1.2656,-1.312,-1.4045,-1.5113,-1.5105,-1.6015,-1.6931,-1.7379,-1.7679,-1.7991,-1.8279,-1.8549,-1.8696,-1.8696,-1.8404,-1.7966,-1.7526,-1.6944,-1.616,-1.496,-1.4818,-1.443,-1.3838,-1.4022,-1.44,-1.4555,-1.5524,-1.6115,-1.6273,-1.7572,-1.8493,-1.8493,-2.0507,-2.3081,-2.607,-2.6816,-2.7161,-2.7351,-2.8811,-3.0114,-3.1266,-3.1888,-3.3013,-3.434,-3.5151,-3.578,-3.6272,-3.6587,-3.7098,-3.7401,-3.7849,-3.8255,-3.8761,-3.9588,-3.9832,-4.0029,-4.0348,-4.0452,-4.0684,2.0033,1.9894,1.9543,1.8945,1.8289,1.7803,1.7437,1.6921,1.6582,1.6582,1.6539,1.6202,1.5856,1.573,1.5343,1.4435,1.4052,1.3487,1.2739,1.2172,1.1345,1.0259,0.9232,0.8803,0.8588,0.7631,0.7064,0.6519,0.5937,0.538,0.502,0.4468,0.3932,0.3228,0.2492,0.1594,0.053,0.0176,-0.0,-0.0,-0.0692,-0.1721,-0.2739,-0.2917,-0.3236,-0.337,-0.3731,-0.4218,-0.4679,-0.5349,-0.6164,-0.6948,-0.7467,-0.8389,-0.9157,-0.9766,-1.0796,-1.1727,-1.1882,-1.312,-1.4353,-1.4814,-1.5275,-1.5888,-1.6806,-1.7208,-1.7606,-1.8059,-1.8591,-1.8679,-1.7921,-1.7921,-1.7611,-1.6409,-1.5564,-1.4854,-1.4083,-1.3632,-1.3392,-1.3404,-1.3581,-1.3804,-1.4275,-1.5241,-1.5988,-1.6301,-1.7782,-1.8713,-1.8875,-2.0755,-2.2644,-2.4663,-2.5588,-2.7135,-2.9462,-2.948,-3.031,-3.2104,-3.3179,-3.408,-3.5025,-3.6062,-3.6602,-3.6864,-3.7025,-3.7294,-3.7525,-3.8094,-3.854,-3.8704,-3.9603,-3.9968,-3.9973,-4.0395,-4.0435,-4.062,2.0767,2.0502,2.0178,1.9306,1.8837,1.8549,1.7997,1.7476,1.7131,1.6951,1.7094,1.6759,1.6024,1.6102,1.5723,1.4818,1.4422,1.4052,1.3116,1.2361,1.1553,1.0502,0.9658,0.904,0.9011,0.8016,0.7252,0.6706,0.6299,0.5739,0.5201,0.4666,0.4126,0.3409,0.3052,0.2146,0.0888,0.0178,-0.0,-0.0,-0.0,-0.0696,-0.1902,-0.2605,-0.293,-0.3233,-0.3418,-0.3917,-0.4562,-0.5053,-0.572,-0.6536,-0.7233,-0.7819,-0.8572,-0.9667,-1.0548,-1.1005,-1.1274,-1.1882,-1.2811,-1.3883,-1.4191,-1.4499,-1.5573,-1.588,-1.6186,-1.6644,-1.7245,-1.7398,-1.6483,-1.6474,-1.6168,-1.4798,-1.403,-1.3436,-1.3176,-1.2569,-1.2474,-1.3102,-1.3158,-1.3387,-1.3975,-1.4939,-1.569,-1.6008,-1.7275,-1.8393,-1.9183,-2.1024,-2.2517,-2.3767,-2.4826,-2.6953,-3.015,-2.934,-3.0071,-3.2493,-3.3274,-3.4271,-3.5493,-3.6408,-3.6907,-3.7309,-3.7309,-3.7317,-3.7432,-3.8167,-3.8599,-3.8635,-3.9559,-3.9832,-3.9887,-4.0308,-4.0473,-4.0695,2.1908,2.1159,2.0408,2.0408,2.0037,1.9488,1.893,1.8715,1.8263,1.7702,1.7275,1.6921,1.6371,1.6166,1.5913,1.5194,1.4805,1.4241,1.3682,1.2361,1.1177,1.0502,0.9843,0.956,0.9463,0.8469,0.771,0.7177,0.6815,0.6276,0.5741,0.5201,0.4664,0.4307,0.3409,0.2872,0.2694,0.0898,-0.0,-0.0,-0.0,-0.0,-0.0176,-0.2096,-0.2784,-0.278,-0.3265,-0.3763,-0.4097,-0.4558,-0.5382,-0.6208,-0.647,-0.7378,-0.8585,-0.976,-1.0204,-1.0335,-1.1143,-1.0641,-1.033,-1.2037,-1.2494,-1.2642,-1.3568,-1.3414,-1.3259,-1.3568,-1.4022,-1.4168,-1.3722,-1.3722,-1.3421,-1.2656,-1.2192,-1.1934,-1.2076,-1.1622,-1.1836,-1.2782,-1.2761,-1.2847,-1.3661,-1.4295,-1.4878,-1.5381,-1.6205,-1.7522,-1.925,-2.0837,-2.2417,-2.3846,-2.4909,-2.6443,-2.8796,-2.8305,-2.9467,-3.1975,-3.199,-3.3336,-3.5873,-3.5873,-3.6376,-3.721,-3.721,-3.721,-3.721,-3.8188,-3.8518,-3.8518,-3.9523,-3.985,-3.9887,-4.0308,-4.0473,-4.0695,2.2093,2.1714,2.1159,2.0594,2.0223,2.0082,1.9663,1.9355,1.8872,1.9005,1.8496,1.7881,1.7322,1.7299,1.686,1.5765,1.5563,1.5181,1.4241,1.3487,1.2722,1.2118,1.0954,1.0362,1.0329,0.9237,0.8243,0.7327,0.6861,0.6276,0.5741,0.5201,0.4843,0.4664,0.3768,0.323,0.2871,0.1795,0.1257,0.0898,0.0179,-0.0,-0.0,-0.0533,-0.1586,-0.2782,-0.2946,-0.3273,-0.3587,-0.3716,-0.4542,-0.5709,-0.6801,-0.7705,-0.8437,-0.8889,-0.888,-0.9035,-0.9162,-0.8828,-0.8791,-1.0676,-1.094,-1.0934,-1.1399,-1.1863,-1.2326,-1.2797,-1.3252,-1.3414,-1.2958,-1.2804,-1.2494,-1.1417,-1.1341,-1.1421,-1.1148,-1.139,-1.1659,-1.2112,-1.2332,-1.2723,-1.2992,-1.3873,-1.4555,-1.5381,-1.6651,-1.7662,-1.8255,-2.0157,-2.1563,-2.2126,-2.4396,-2.6388,-2.7735,-2.9159,-3.0581,-3.199,-3.3723,-3.4846,-3.5232,-3.65,-3.7165,-3.7099,-3.7436,-3.7617,-3.7709,-3.8653,-3.911,-3.9461,-4.0417,-4.0694,-4.0712,-4.084,-4.1045,-4.1379,2.2647,2.2093,2.1714,2.1334,2.0964,2.064,2.0563,2.0091,1.981,1.9733,1.9179,1.8756,1.8081,1.7813,1.7169,1.6321,1.5931,1.5368,1.4422,1.387,1.3493,1.2928,1.1983,1.1207,1.0597,0.9649,0.8632,0.7717,0.7228,0.6812,0.6279,0.5739,0.5559,0.5201,0.4485,0.3768,0.2871,0.2512,0.2154,0.1975,0.1436,0.0716,-0.0,-0.0,-0.0712,-0.176,-0.2618,-0.2945,-0.3265,-0.3553,-0.4542,-0.5879,-0.6503,-0.7286,-0.7733,-0.7856,-0.8011,-0.8165,-0.7965,-0.7467,-0.744,-0.8282,-0.8697,-0.8968,-0.9553,-0.9853,-1.0319,-1.0624,-1.1095,-1.1256,-1.1107,-1.1107,-1.0814,-1.0085,-1.0155,-1.039,-1.049,-1.0728,-1.1143,-1.1599,-1.1946,-1.2307,-1.2727,-1.3403,-1.4253,-1.5482,-1.6643,-1.7501,-1.8202,-2.0104,-2.1312,-2.1801,-2.4373,-2.6241,-2.7177,-2.9031,-3.0722,-3.2208,-3.3685,-3.4626,-3.5256,-3.6329,-3.683,-3.7146,-3.747,-3.7674,-3.7824,-3.874,-3.9352,-3.9874,-4.0463,-4.0892,-4.106,-4.106,-4.1378,-4.1695,2.3383,2.2647,2.2093,2.2452,2.1723,2.1168,2.1178,2.0965,2.053,2.0162,1.9587,1.9012,1.8641,1.7914,1.7242,1.6868,1.5931,1.4993,1.4617,1.4059,1.3682,1.3116,1.2928,1.23,1.0688,0.9931,0.9109,0.8023,0.793,0.771,0.7173,0.6812,0.6276,0.5741,0.5201,0.4305,0.305,0.305,0.3052,0.2874,0.2874,0.1795,0.018,-0.0,-0.0,-0.0179,-0.2103,-0.2784,-0.2948,-0.3728,-0.4875,-0.6053,-0.6053,-0.6389,-0.6714,-0.7139,-0.7443,-0.7588,-0.7022,-0.6516,-0.6032,-0.5213,-0.5811,-0.6861,-0.7723,-0.7546,-0.7546,-0.785,-0.8319,-0.8632,-0.8783,-0.8778,-0.8816,-0.8921,-0.8945,-0.9181,-0.9707,-0.9912,-1.0282,-1.1225,-1.1403,-1.1736,-1.2567,-1.3065,-1.3957,-1.5447,-1.6132,-1.7153,-1.8515,-2.0288,-2.1628,-2.233,-2.443,-2.5934,-2.7068,-2.8391,-3.0065,-3.2106,-3.231,-3.336,-3.5399,-3.5573,-3.6096,-3.6946,-3.7464,-3.7619,-3.7808,-3.8683,-3.9366,-3.9689,-4.0216,-4.0723,-4.106,-4.106,-4.1378,-4.1695,2.3383,2.2821,2.2268,2.2083,2.1538,2.1225,2.1376,2.1067,2.0773,2.0729,1.9854,1.9201,1.9012,1.8469,1.7803,1.7242,1.6314,1.5751,1.5556,1.5181,1.4617,1.4052,1.3682,1.2864,1.162,1.1105,1.0123,0.8656,0.8497,0.8063,0.7173,0.7173,0.6815,0.6276,0.5739,0.5025,0.3949,0.3588,0.3409,0.3411,0.3053,0.2693,0.2153,0.0538,-0.0,-0.0179,-0.2103,-0.2784,-0.2948,-0.3391,-0.4206,-0.5046,-0.5384,-0.6056,-0.6724,-0.6707,-0.6366,-0.5861,-0.5846,-0.5174,-0.4498,-0.4296,-0.4443,-0.4747,-0.5662,-0.6291,-0.6755,-0.7164,-0.7631,-0.7927,-0.8163,-0.8618,-0.8816,-0.8921,-0.9002,-0.9097,-0.939,-0.9482,-0.9711,-1.0237,-1.0737,-1.107,-1.157,-1.2733,-1.3749,-1.4448,-1.5386,-1.6244,-1.6454,-1.9167,-2.0761,-2.0598,-2.39,-2.5868,-2.5958,-2.7813,-2.9568,-3.1232,-3.2178,-3.2881,-3.347,-3.4875,-3.5748,-3.5922,-3.7119,-3.7808,-3.8152,-3.8683,-3.9366,-3.9689,-4.0216,-4.0385,-4.0572,-4.0892,-4.1378,-4.1863,2.3751,2.3373,2.3005,2.3005,2.2093,2.1567,2.2045,2.1404,2.1132,2.1234,2.0395,1.9956,1.9956,1.9406,1.8549,1.7803,1.7063,1.6501,1.6306,1.5744,1.5368,1.4805,1.4241,1.3457,1.2455,1.2085,1.1049,0.9538,0.9388,0.8956,0.8246,0.7889,0.7527,0.6812,0.6276,0.5559,0.4664,0.4305,0.4126,0.3949,0.3411,0.3052,0.2871,0.1795,0.0898,-0.0,-0.1058,-0.1915,-0.2755,-0.3216,-0.387,-0.4372,-0.471,-0.5214,-0.5717,-0.5717,-0.5717,-0.5552,-0.5048,-0.488,-0.4535,-0.3508,-0.3336,-0.3489,-0.4408,-0.5202,-0.6003,-0.6126,-0.6602,-0.7069,-0.7342,-0.7497,-0.7844,-0.8097,-0.8152,-0.838,-0.8641,-0.8869,-0.924,-0.9407,-0.9736,-1.0404,-1.107,-1.2069,-1.2932,-1.3498,-1.4894,-1.5755,-1.6004,-1.9195,-2.0761,-2.0588,-2.366,-2.5425,-2.5687,-2.7059,-2.825,-2.9421,-3.0942,-3.1983,-3.2544,-3.3922,-3.4875,-3.5399,-3.6773,-3.7464,-3.7808,-3.834,-3.9025,-3.9366,-3.9876,-4.0216,-4.0403,-4.0892,-4.1378,-4.1863,2.4118,2.3751,2.3567,2.3935,2.2851,2.2132,2.2462,2.1898,2.1461,2.1423,2.1039,2.0664,2.0664,1.9958,1.9294,1.8363,1.7811,1.7242,1.6868,1.6306,1.5751,1.5368,1.4805,1.404,1.3081,1.2847,1.1942,1.0398,1.0272,0.9852,0.9322,0.8956,0.8242,0.7173,0.6812,0.6097,0.5022,0.5022,0.4843,0.4307,0.3949,0.3409,0.305,0.2872,0.1975,0.0538,0.0177,-0.1046,-0.2733,-0.321,-0.3533,-0.3868,-0.3868,-0.4204,-0.4542,-0.471,-0.5046,-0.5549,-0.4883,-0.4875,-0.453,-0.2853,-0.2517,-0.2672,-0.344,-0.4411,-0.5066,-0.5055,-0.5706,-0.6354,-0.634,-0.6499,-0.6689,-0.7091,-0.7271,-0.7462,-0.7881,-0.8399,-0.8571,-0.8738,-0.9072,-0.9736,-1.057,-1.1403,-1.2111,-1.2726,-1.4048,-1.5235,-1.6082,-1.9022,-2.0885,-2.1272,-2.3365,-2.4867,-2.5832,-2.6191,-2.6835,-2.7635,-2.9389,-3.0765,-3.1946,-3.2969,-3.3792,-3.4622,-3.6047,-3.674,-3.6847,-3.7724,-3.8443,-3.8854,-3.9278,-3.9823,-4.0385,-4.0892,-4.1378,-4.1695,2.4118,2.3751,2.3383,2.3567,2.2798,2.2114,2.1928,2.1711,2.1404,2.1234,2.0825,2.0454,2.0454,1.9497,1.893,1.8744,1.7997,1.7437,1.7242,1.6501,1.5938,1.5751,1.4993,1.4371,1.4069,1.3168,1.198,1.1049,1.0665,1.0209,0.9322,0.9317,0.8425,0.7173,0.7173,0.6276,0.5022,0.5022,0.5022,0.4843,0.4307,0.4128,0.3949,0.323,0.2693,0.2332,0.071,-0.1046,-0.2733,-0.2702,-0.3029,-0.3535,-0.3535,-0.3701,-0.4204,-0.4376,-0.4208,-0.404,-0.5053,-0.4178,-0.2819,-0.1825,-0.1494,-0.1658,-0.2643,-0.3492,-0.4341,-0.4629,-0.5116,-0.5429,-0.5866,-0.6178,-0.6526,-0.6601,-0.7106,-0.7301,-0.755,-0.7897,-0.8232,-0.8738,-0.9072,-0.9736,-1.057,-1.0737,-1.1242,-1.2093,-1.2888,-1.3878,-1.5398,-1.7107,-1.9013,-2.1272,-2.233,-2.366,-2.5125,-2.5658,-2.6313,-2.6934,-2.8307,-2.9322,-2.9988,-3.1911,-3.2793,-3.2718,-3.4909,-3.5918,-3.5987,-3.6841,-3.7708,-3.8477,-3.8659,-3.9067,-3.9876,-4.0723,-4.1042,-4.121,2.4118,2.3935,2.3751,2.3751,2.3375,2.293,2.2839,2.2626,2.2319,2.1731,2.1515,2.1282,2.0797,1.986,1.9302,1.9302,1.8363,1.7803,1.7803,1.7055,1.6688,1.6306,1.5556,1.4926,1.4229,1.3346,1.2506,1.171,1.1362,1.0743,1.003,0.9852,0.9139,0.7885,0.7352,0.6637,0.5739,0.5559,0.538,0.538,0.4843,0.4487,0.4307,0.3588,0.3052,0.2688,0.0705,-0.052,-0.1366,-0.2364,-0.2861,-0.3029,-0.3029,-0.3365,-0.3701,-0.3871,-0.3871,-0.4042,-0.4546,-0.4363,-0.3671,-0.1824,-0.1331,-0.1502,-0.2487,-0.3004,-0.336,-0.3844,-0.4174,-0.4667,-0.5142,-0.5303,-0.5642,-0.617,-0.6506,-0.6686,-0.7056,-0.7227,-0.7562,-0.7897,-0.8571,-0.924,-0.9569,-1.007,-1.0737,-1.157,-1.2527,-1.3512,-1.4856,-1.6902,-1.8468,-1.97,-2.1628,-2.3075,-2.3704,-2.4741,-2.5318,-2.561,-2.7422,-2.8595,-2.9636,-3.1543,-3.2499,-3.2734,-3.4638,-3.5668,-3.5681,-3.6688,-3.7487,-3.7946,-3.8437,-3.8891,-3.9369,-3.9874,-4.021,-4.0396]},{"header":{"parameterUnit":"m.s-1","parameterCategory":1,"la1":30.6,"la2":28.766,"lo1":-90.7593,"lo2":-88.6598,"dy":0.0162,"dx":0.0183,"nx":116,"ny":114,"refTime":"2024-03-21T18:00:00:Z","depth":0,"parameterNumber":3,"parameterNumberName":"V-component_of_WINDS"},"data":[0.0,0.0,0.0,0.0,0.0,0.0,0.0,0.0,0.0,0.0,0.0,0.0,0.0,0.0,0.0,0.0,0.0,0.0,0.0,0.0,0.0,0.0,0.0,0.0,0.0,0.0,0.0,0.0,0.0,0.0,0.0,0.0,0.0,0.0,0.0,0.0,0.0,0.0,0.0,0.0,0.0,0.0,0.0,0.0,0.0,0.0,0.0,0.0,0.0,0.0,0.0,0.0,0.0,0.0,0.0,0.0,0.0,0.0,0.0,0.0,0.0,0.0,0.0,0.0,0.0,0.0,0.0,0.0,0.0,0.0,0.0,0.0,0.0,0.0,0.0,0.0,0.0,0.0,0.0,0.0,0.0,0.0,0.0,0.0,0.0,0.0,0.0,0.0,0.0,0.0,0.0,0.0,0.0,0.0,0.0,0.0,0.0,0.0,0.0,0.0,0.0,0.0,0.0,0.0,0.0,0.0,0.0,0.0,0.0,0.0,0.0,0.0,0.0,0.0,0.0,0.0,0.0,0.0,0.0,0.0,0.0,0.0,0.0,0.0,0.0,0.0,0.0,0.0,0.0,0.0,0.0,0.0,0.0,0.0,0.0,0.0,0.0,0.0,0.0,0.0,0.0,0.0,0.0,0.0,0.0,0.0,0.0,0.0,0.0,0.0,0.0,0.0,0.0,0.0,0.0,0.0,0.0,0.0,0.0,0.0,0.0,0.0,0.0,0.0,0.0,0.0,0.0,0.0,0.0,0.0,0.0,0.0,0.0,0.0,0.0,0.0,0.0,0.0,0.0,0.0,0.0,0.0,0.0,0.0,0.0,0.0,0.0,0.0,0.0,0.0,0.0,0.0,0.0,0.0,0.0,0.0,0.0,0.0,0.0,0.0,0.0,0.0,0.0,0.0,0.0,0.0,0.0,0.0,0.0,0.0,0.0,0.0,0.0,0.0,0.0,0.0,0.0,0.0,0.0,0.0,0.0,0.0,0.0,0.0,0.0,0.0,0.0,0.0,0.0,0.0,0.0,0.0,0.0,0.0,0.0,0.0,0.0,0.0,0.0,0.0,0.0,0.0,0.0,0.0,0.0,0.0,0.0,0.0,0.0,0.0,0.0,0.0,0.0,0.0,0.0,0.0,0.0,0.0,0.0,0.0,0.0,0.0,0.0,0.0,0.0,0.0,0.0,0.0,0.0,0.0,0.0,0.0,0.0,0.0,0.0,0.0,0.0,0.0,0.0,0.0,0.0,0.0,0.0,0.0,0.0,0.0,0.0,0.0,0.0,0.0,0.0,0.0,0.0,0.0,0.0,0.0,0.0,0.0,0.0,0.0,0.0,0.0,0.0,0.0,0.0,0.0,0.0,0.0,0.0,0.0,0.0,0.0,0.0,0.0,0.0,0.0,0.0,0.0,0.0,0.0,0.0,0.0,0.0,0.0,0.0,0.0,0.0,0.0,0.0,0.0,0.0,0.0,0.0,0.0,0.0,0.0,0.0,0.0,0.0,0.0,0.0,0.0,0.0,0.0,0.0,0.0,0.0,0.0,0.0,0.0,0.0,0.0,0.0,0.0,0.0,0.0,0.0,0.0,0.0,0.0,0.0,0.0,0.0,0.0,0.0,0.0,0.0,0.0,0.0,0.0,0.0,0.0,0.0,0.0,0.0,0.0,0.0,0.0,0.0,0.0,0.0,0.0,0.0,0.0,0.0,0.0,0.0,0.0,0.0,0.0,0.0,0.0,0.0,0.0,0.0,0.0,0.0,0.0,0.0,0.0,0.0,0.0,0.0,0.0,0.0,0.0,0.0,0.0,0.0,0.0,0.0,0.0,0.0,0.0,0.0,0.0,0.0,0.0,0.0,0.0,0.0,0.0,0.0,0.0,0.0,0.0,0.0,0.0,0.0,0.0,0.0,0.0,0.0,0.0,0.0,0.0,0.0,0.0,0.0,0.0,0.0,0.0,0.0,0.0,0.0,0.0,0.0,0.0,0.0,0.0,0.0,0.0,0.0,0.0,0.0,0.0,0.0,0.0,0.0,0.0,0.0,0.0,0.0,0.0,0.0,0.0,0.0,0.0,0.0,0.0,0.0,0.0,0.0,0.0,0.0,0.0,0.0,0.0,0.0,0.0,0.0,0.0,0.0,0.0,0.0,0.0,0.0,0.0,0.0,0.0,0.0,0.0,0.0,0.0,0.0,0.0,0.0,0.0,0.0,0.0,0.0,0.0,0.0,0.0,0.0,0.0,0.0,0.0,0.0,0.0,0.0,0.0,0.0,0.0,0.0,0.0,0.0,0.0,0.0,0.0,0.0,0.0,0.0,0.0,0.0,0.0,0.0,0.0,0.0,0.0,0.0,0.0,0.0,0.0,0.0,0.0,0.0,0.0,0.0,0.0,0.0,0.0,0.0,0.0,0.0,0.0,0.0,0.0,0.0,0.0,0.0,0.0,0.0,0.0,0.0,0.0,0.0,0.0,0.0,0.0,0.0,0.0,0.0,0.0,0.0,0.0,0.0,0.0,0.0,0.0,0.0,0.0,0.0,0.0,0.0,0.0,0.0,0.0,0.0,0.0,0.0,0.0,0.0,0.0,0.0,0.0,0.0,0.0,0.0,0.0,0.0,0.0,0.0,0.0,0.0,0.0,0.0,0.0,0.0,0.0,0.0,0.0,0.0,0.0,0.0,0.0,0.0,0.0,0.0,0.0,0.0,0.0,0.0,0.0,0.0,0.0,0.0,0.0,0.0,0.0,0.0,0.0,0.0,0.0,0.0,0.0,0.0,0.0,0.0,0.0,0.0,0.0,0.0,0.0,0.0,0.0,0.0,0.0,0.0,0.0,0.0,0.0,0.0,0.0,0.0,0.0,0.0,0.0,0.0,0.0,0.0,0.0,0.0,0.0,0.0,0.0,0.0,0.0,0.0,0.0,0.0,0.0,0.0,0.0,0.0,0.0,0.0,0.0,0.0,0.0,0.0,0.0,0.0,0.0,0.0,0.0,0.0,0.0,0.0,0.0,0.0,0.0,0.0,0.0,0.0,0.0,0.0,0.0,0.0,0.0,0.0,0.0,0.0,0.0,0.0,0.0,0.0,0.0,0.0,0.0,0.0,0.0,0.0,0.0,0.0,0.0,0.0,0.0,0.0,0.0,0.0,0.0,0.0,0.0,0.0,0.0,0.0,0.0,0.0,0.0,0.0,0.0,0.0,0.0,0.0,0.0,0.0,0.0,0.0,0.0,0.0,0.0,0.0,0.0,0.0,0.0,0.0,0.0,0.0,0.0,0.0,0.0,0.0,0.0,0.0,0.0,0.0,0.0,0.0,0.0,0.0,0.0,0.0,0.0,0.0,0.0,0.0,0.0,0.0,0.0,0.0,0.0,0.0,0.0,0.0,0.0,0.0,0.0,0.0,0.0,0.0,0.0,0.0,0.0,0.0,0.0,0.0,0.0,0.0,0.0,0.0,0.0,0.0,0.0,0.0,0.0,0.0,0.0,0.0,0.0,0.0,0.0,0.0,0.0,0.0,0.0,0.0,0.0,0.0,0.0,0.0,0.0,0.0,0.0,0.0,0.0,0.0,0.0,0.0,0.0,0.0,0.0,0.0,0.0,0.0,0.0,0.0,0.0,0.0,0.0,0.0,0.0,0.0,0.0,0.0,0.0,0.0,0.0,0.0,0.0,0.0,0.0,0.0,0.0,0.0,0.0,0.0,0.0,0.0,0.0,0.0,0.0,0.0,0.0,0.0,0.0,0.0,0.0,0.0,0.0,0.0,0.0,0.0,0.0,0.0,0.0,0.0,0.0,0.0,0.0,0.0,0.0,0.0,0.0,0.0,0.0,0.0,0.0,0.0,0.0,0.0,0.0,0.0,0.0,0.0,0.0,0.0,0.0,0.0,0.0,0.0,0.0,0.0,0.0,0.0,0.0,0.0,0.0,0.0,0.0,0.0,0.0,0.0,0.0,0.0,0.0,0.0,0.0,0.0,0.0,0.0,0.0,0.0,0.0,0.0,0.0,0.0,0.0,0.0,0.0,0.0,0.0,0.0,0.0,0.0,0.0,0.0,0.0,0.0,0.0,0.0,0.0,0.0,0.0,0.0,0.0,0.0,0.0,0.0,0.0,0.0,0.0,0.0,0.0,0.0,0.0,0.0,0.0,0.0,0.0,0.0,0.0,0.0,0.0,0.0,0.0,0.0,0.0,0.0,0.0,0.0,0.0,0.0,0.0,0.0,0.0,0.0,0.0,0.0,0.0,0.0,0.0,0.0,0.0,0.0,0.0,0.0,0.0,0.0,0.0,0.0,0.0,0.0,0.0,0.0,0.0,0.0,0.0,0.0,0.0,0.0,0.0,0.0,0.0,0.0,0.0,0.0,0.0,0.0,0.0,0.0,0.0,0.0,0.0,0.0,0.0,0.0,0.0,0.0,0.0,0.0,0.0,0.0,0.0,0.0,0.0,0.0,0.0,0.0,0.0,0.0,0.0,0.0,0.0,0.0,0.0,0.0,0.0,0.0,0.0,0.0,0.0,0.0,0.0,0.0,0.0,0.0,0.0,0.0,0.0,0.0,0.0,0.0,0.0,0.0,0.0,0.0,0.0,0.0,0.0,0.0,0.0,0.0,0.0,0.0,0.0,0.0,0.0,0.0,0.0,0.0,0.0,0.0,0.0,0.0,0.0,0.0,0.0,0.0,0.0,0.0,0.0,0.0,0.0,0.0,0.0,0.0,0.0,0.0,0.0,0.0,0.0,0.0,0.0,0.0,0.0,0.0,0.0,0.0,0.0,0.0,0.0,0.0,0.0,0.0,0.0,0.0,0.0,0.0,0.0,0.0,0.0,0.0,0.0,0.0,0.0,0.0,0.0,0.0,0.0,0.0,0.0,0.0,0.0,0.0,0.0,0.0,0.0,0.0,0.0,0.0,0.0,0.0,0.0,0.0,0.0,0.0,0.0,0.0,0.0,0.0,0.0,0.0,0.0,0.0,0.0,0.0,0.0,0.0,0.0,0.0,0.0,0.0,0.0,0.0,0.0,0.0,0.0,0.0,0.0,0.0,0.0,0.0,0.0,0.0,0.0,0.0,0.0,0.0,0.0,0.0,0.0,0.0,0.0,0.0,0.0,0.0,0.0,0.0,0.0,0.0,0.0,0.0,0.0,0.0,0.0,0.0,0.0,0.0,0.0,0.0,0.0,0.0,0.0,0.0,0.0,0.0,0.0,0.0,0.0,0.0,0.0,0.0,0.0,0.0,0.0,0.0,0.0,0.0,0.0,0.0,0.0,0.0,0.0,0.0,0.0,0.0,0.0,0.0,0.0,0.0,0.0,0.0,0.0,0.0,0.0,0.0,0.0,0.0,0.0,0.0,0.0,0.0,0.0,0.0,0.0,0.0,0.0,0.0,0.0,0.0,0.0,0.0,0.0,0.0,0.0,0.0,0.0,0.0,0.0,0.0,0.0,0.0,0.0,0.0,0.0,0.0,0.0,0.0,0.0,0.0,0.0,0.0,0.0,0.0,0.0,0.0,0.0,0.0,0.0,0.0,0.0,0.0,0.0,0.0,0.0,0.0,0.0,0.0,0.0,0.0,0.0,0.0,0.0,0.0,0.0,0.0,0.0,0.0,0.0,0.0,0.0,0.0,0.0,0.0,0.0,0.0,0.0,0.0,0.0,0.0,0.0,0.0,0.0,0.0,0.0,0.0,0.0,0.0,0.0,0.0,0.0,0.0,0.0,0.0,0.0,0.0,0.0,0.0,0.0,0.0,0.0,0.0,0.0,0.0,0.0,0.0,0.0,0.0,0.0,0.0,0.0,0.0,0.0,0.0,0.0,0.0,0.0,0.0,0.0,0.0,0.0,0.0,0.0,0.0,0.0,0.0,0.0,0.0,0.0,0.0,0.0,0.0,0.0,0.0,0.0,0.0,0.0,0.0,0.0,0.0,0.0,0.0,0.0,0.0,0.0,0.0,0.0,0.0,0.0,0.0,0.0,0.0,0.0,0.0,0.0,0.0,0.0,0.0,0.0,0.0,0.0,0.0,0.0,0.0,0.0,0.0,0.0,0.0,0.0,0.0,0.0,0.0,0.0,0.0,0.0,0.0,0.0,0.0,0.0,2.767,2.6753,0.0,0.0,0.0,0.0,0.0,0.0,0.0,0.0,0.0,0.0,0.0,0.0,0.0,0.0,0.0,0.0,0.0,0.0,0.0,0.0,0.0,0.0,0.0,0.0,0.0,0.0,-2.7885,-2.7937,-2.7731,-2.7551,-2.7413,-2.725,-2.6142,-2.5399,-2.5062,-2.4976,-2.5002,-2.506,-2.5479,-2.5736,-2.5879,-2.5698,-2.5249,-2.4559,0.0,0.0,0.0,0.0,0.0,0.0,0.0,0.0,0.0,0.0,0.0,0.0,0.0,0.0,0.0,0.0,0.0,0.0,0.0,0.0,0.0,0.0,0.0,0.0,0.0,0.0,0.0,0.0,0.0,0.0,0.0,0.0,0.0,0.0,0.0,0.0,0.0,0.0,0.0,0.0,0.0,0.0,0.0,0.0,0.0,0.0,0.0,0.0,0.0,0.0,0.0,0.0,0.0,0.0,0.0,0.0,0.0,0.0,0.0,0.0,0.0,0.0,0.0,0.0,0.0,0.0,0.0,0.0,0.0,0.0,3.211,3.1651,0.0,0.0,0.0,0.0,0.0,0.0,0.0,0.0,0.0,0.0,0.0,0.0,0.0,0.0,0.0,0.0,0.0,0.0,0.0,0.0,0.0,0.0,0.0,-2.8701,-2.8463,-2.8511,-2.8575,-2.8606,-2.865,-2.8446,-2.8297,-2.8199,-2.7082,-2.6249,-2.5947,-2.5623,-2.5726,-2.6152,-2.6307,-2.6651,-2.7078,-2.7152,-2.636,-2.4969,-2.5762,0.0,0.0,0.0,0.0,0.0,0.0,0.0,0.0,0.0,0.0,0.0,0.0,0.0,0.0,0.0,0.0,0.0,0.0,0.0,0.0,0.0,0.0,0.0,0.0,0.0,0.0,0.0,0.0,0.0,0.0,0.0,0.0,0.0,0.0,0.0,0.0,0.0,0.0,0.0,0.0,0.0,0.0,0.0,0.0,0.0,0.0,0.0,0.0,0.0,0.0,0.0,0.0,0.0,0.0,0.0,0.0,0.0,0.0,0.0,0.0,0.0,0.0,0.0,3.6359,3.6533,3.5676,3.6197,3.6298,3.598,3.5542,3.5624,3.6112,3.5864,0.0,0.0,0.0,0.0,0.0,0.0,0.0,0.0,0.0,0.0,0.0,0.0,0.0,0.0,0.0,0.0,0.0,0.0,0.0,0.0,0.0,-2.9059,-2.8795,-2.8701,-2.9374,-2.9696,-2.9323,-2.9461,-2.9343,-2.8911,-2.7939,-2.7189,-2.6765,-2.6885,-2.6886,-2.6675,-2.7041,-2.7297,-2.7429,-2.7429,-2.761,-2.7867,-2.7667,-2.8008,-2.8698,0.0,0.0,0.0,0.0,0.0,0.0,0.0,0.0,0.0,0.0,0.0,0.0,0.0,0.0,0.0,0.0,0.0,0.0,0.0,0.0,0.0,0.0,0.0,0.0,0.0,0.0,0.0,0.0,0.0,0.0,0.0,0.0,0.0,0.0,0.0,0.0,0.0,0.0,0.0,0.0,0.0,2.5203,2.5519,0.0,0.0,0.0,0.0,0.0,0.0,0.0,0.0,0.0,0.0,0.0,0.0,0.0,3.3678,3.5172,3.5928,3.6158,3.5937,3.7196,3.7496,3.7086,3.8047,3.8807,3.9405,3.9767,0.0,3.6556,3.7008,0.0,0.0,0.0,0.0,0.0,0.0,0.0,0.0,0.0,0.0,0.0,0.0,0.0,0.0,0.0,0.0,0.0,0.0,0.0,0.0,0.0,-2.9152,-2.9152,-2.9393,-2.975,-2.9978,-3.0192,-3.0659,-3.0649,-3.0168,-2.9593,-2.8818,-2.7881,-2.7637,-2.7561,-2.7629,-2.8008,-2.8231,-2.8303,-2.9022,-2.9608,-3.0099,-3.0525,-3.0529,-3.0279,-3.0217,0.0,0.0,0.0,0.0,0.0,0.0,0.0,0.0,0.0,0.0,0.0,0.0,0.0,0.0,0.0,0.0,0.0,0.0,0.0,0.0,0.0,0.0,0.0,0.0,0.0,0.0,0.0,0.0,0.0,0.0,0.0,0.0,0.0,0.0,0.0,0.0,0.0,0.0,0.0,2.2552,2.6678,2.5915,2.7295,2.8052,0.0,0.0,0.0,0.0,0.0,0.0,0.0,0.0,0.0,3.313,3.3701,3.461,3.59,3.6303,3.677,3.7277,3.8354,3.8553,3.8124,3.8873,3.9396,3.9676,3.9942,3.9826,3.9361,3.9357,3.9339,3.9207,0.0,0.0,0.0,0.0,3.4596,3.4321,0.0,0.0,0.0,0.0,0.0,0.0,0.0,0.0,0.0,0.0,0.0,0.0,-2.9335,-2.9275,-2.9412,-2.9902,-2.9913,-3.0238,-3.0908,-3.1275,-3.145,-3.1374,-3.0916,-3.013,-2.9046,-2.8372,-2.8247,-2.8628,-2.9072,-2.9372,-2.9477,-3.0618,-3.1538,-3.2233,-3.3026,-3.2821,-3.1757,-3.1483,-3.1523,-3.1632,0.0,0.0,0.0,0.0,0.0,0.0,0.0,0.0,0.0,0.0,0.0,0.0,0.0,0.0,0.0,0.0,0.0,0.0,0.0,0.0,0.0,0.0,0.0,0.0,0.0,0.0,0.0,0.0,0.0,0.0,0.0,0.0,0.0,0.0,0.0,0.0,0.0,2.5238,2.7798,2.6467,2.8605,2.9753,0.0,0.0,0.0,0.0,0.0,0.0,3.1321,3.2392,3.3308,3.3897,3.4527,3.5427,3.6443,3.6939,3.7527,3.8247,3.9408,3.9606,3.8884,3.9541,3.9808,3.9876,3.9988,4.0778,4.1927,4.1285,4.126,4.1454,4.0155,3.9526,3.9221,3.8093,3.7549,3.7257,0.0,0.0,0.0,0.0,0.0,0.0,0.0,0.0,0.0,0.0,0.0,-2.9515,-2.947,-2.9502,-2.9547,-2.9681,-2.9989,-3.0543,-3.1407,-3.0898,-3.113,-3.2364,-3.1446,-3.0633,-3.0133,-2.9354,-2.9078,-2.9421,-3.0213,-3.0734,-3.1006,-3.1842,-3.2928,-3.426,-3.4643,-3.428,-3.3379,-3.3425,-3.2512,-3.0977,-3.1043,0.0,0.0,0.0,0.0,0.0,0.0,0.0,0.0,0.0,0.0,0.0,0.0,0.0,0.0,0.0,0.0,0.0,0.0,0.0,0.0,0.0,0.0,0.0,0.0,0.0,0.0,0.0,0.0,0.0,0.0,0.0,0.0,0.0,0.0,0.0,0.0,0.0,0.0,2.8692,3.0028,0.0,0.0,0.0,0.0,3.1817,3.2235,3.2456,3.2581,3.3425,3.418,3.4966,3.5215,3.5938,3.7097,3.8598,3.9031,3.8415,4.0135,4.0376,3.9405,4.0161,4.0798,4.1226,4.142,4.2149,4.3098,4.2069,4.197,4.2438,4.2487,4.2068,4.1435,4.1303,4.0252,3.8876,0.0,0.0,0.0,0.0,0.0,0.0,0.0,0.0,-2.7699,-2.8793,-2.9106,-2.948,-3.0018,-2.9989,-2.9844,-2.9637,-2.9605,-2.9984,-3.0797,-3.1024,-3.1269,-3.166,-3.1598,-3.1042,-2.9827,-2.8985,-2.8761,-2.9232,-2.9551,-3.0017,-3.0601,-3.1661,-3.2672,-3.3602,-3.462,-3.4732,-3.426,-3.4993,-3.4348,-3.2822,-3.246,-3.1444,0.0,0.0,0.0,0.0,0.0,0.0,0.0,0.0,0.0,0.0,0.0,0.0,0.0,0.0,0.0,0.0,0.0,0.0,0.0,0.0,0.0,0.0,0.0,0.0,0.0,0.0,0.0,0.0,0.0,0.0,0.0,0.0,0.0,0.0,0.0,0.0,0.0,3.0728,3.1884,0.0,3.2264,3.1903,3.1653,3.1445,3.1604,3.1787,3.199,3.24,3.3244,3.4551,3.4981,3.5937,3.7582,3.8132,3.8622,3.9083,3.9917,4.0096,3.9734,4.0925,4.16,4.187,4.2741,4.3757,4.4784,4.405,4.3812,4.3839,4.3059,4.2986,4.3212,4.2639,4.2064,4.1562,0.0,0.0,0.0,0.0,0.0,0.0,0.0,0.0,-2.7734,-2.8292,-2.9185,-2.9974,-3.0416,-3.0431,-3.021,-2.988,-2.9627,-2.9862,-3.0637,-3.0791,-3.0974,-3.1279,-3.1111,-3.0498,-2.9516,-2.8511,-2.8268,-2.8792,-2.9212,-2.9638,-3.0255,-3.1553,-3.2478,-3.3077,-3.3997,-3.4332,-3.4174,-3.4971,-3.4742,-3.3846,-3.3029,-3.2066,-3.0896,0.0,0.0,0.0,0.0,0.0,0.0,0.0,0.0,0.0,0.0,0.0,0.0,0.0,0.0,0.0,0.0,0.0,0.0,0.0,0.0,0.0,0.0,0.0,0.0,0.0,0.0,0.0,0.0,0.0,0.0,0.0,0.0,0.0,0.0,3.0035,3.3085,3.2994,3.4023,3.4481,3.3896,3.3641,3.3067,3.187,3.183,3.1811,3.1583,3.218,3.3143,3.4536,3.5408,3.6577,3.815,3.8618,3.9493,4.0741,4.1093,4.1491,4.1847,4.2551,4.3017,4.3208,4.3792,4.47,4.5736,4.5328,4.527,4.5278,4.4081,4.3982,4.448,4.3962,4.3614,4.3398,0.0,0.0,0.0,0.0,0.0,0.0,0.0,-2.6767,-2.8104,-2.7838,-2.9769,-3.1074,-3.0701,-3.067,-3.0587,-3.0247,-3.006,-3.0228,-3.0867,-3.0045,-3.0093,-3.1354,-2.9726,-2.9015,-2.933,-2.8029,-2.7651,-2.8115,-2.9268,-2.9873,-3.0079,-3.1537,-3.2297,-3.2695,-3.2905,-3.3003,-3.3031,-3.3268,-3.3558,-3.3729,-3.2543,-3.1883,-3.136,0.0,0.0,0.0,0.0,0.0,0.0,0.0,0.0,0.0,0.0,0.0,0.0,0.0,0.0,0.0,0.0,0.0,0.0,0.0,0.0,0.0,0.0,0.0,0.0,0.0,0.0,0.0,0.0,0.0,0.0,0.0,0.0,0.0,3.2079,3.3851,3.5027,3.5565,3.6469,3.6886,3.63,3.62,3.5316,3.3306,3.324,3.2825,3.1723,3.288,3.4039,3.5078,3.6487,3.7734,3.8929,4.0219,4.1659,4.3245,4.379,4.4591,4.5523,4.5048,4.501,4.5361,4.4688,4.4935,4.5846,4.5847,4.62,4.6697,4.5569,4.5175,4.5298,4.5458,4.5012,4.4234,0.0,0.0,0.0,0.0,0.0,0.0,0.0,-2.608,-2.7436,-2.8387,-2.9949,-3.1029,-3.13,-3.1067,-3.0394,-2.9372,-2.9148,-2.9051,-2.8968,-2.8618,-2.8545,-2.8738,-2.8056,-2.7603,-2.7538,-2.6997,-2.6688,-2.668,-2.7011,-2.7272,-2.7511,-2.8507,-2.9068,-2.9351,-3.0507,-3.0913,-3.0839,-3.1456,-3.1874,-3.2097,-3.1854,-3.1737,-3.1454,0.0,0.0,0.0,0.0,0.0,0.0,0.0,0.0,0.0,0.0,0.0,0.0,0.0,0.0,0.0,0.0,0.0,0.0,0.0,0.0,0.0,0.0,0.0,0.0,0.0,0.0,0.0,0.0,0.0,0.0,0.0,2.4286,3.1051,3.3637,3.6661,3.8703,3.8964,3.9063,3.8824,3.8162,3.7641,3.6815,3.5464,3.5292,3.4555,3.3023,3.3914,3.4699,3.5326,3.6721,3.8161,3.9542,4.0091,4.0918,4.1936,4.2887,4.3645,4.4339,4.5756,4.627,4.6141,4.659,4.7008,4.7338,4.6834,4.6838,4.7111,4.6036,4.6139,4.6824,4.5681,4.5329,4.5362,0.0,0.0,0.0,0.0,0.0,0.0,0.0,-2.6803,-2.814,-2.8706,-3.0401,-3.1579,-3.1549,-3.1136,-3.0448,-2.9493,-2.897,-2.8577,-2.8138,-2.7632,-2.721,-2.695,-2.6501,-2.6064,-2.5693,-2.5392,-2.5063,-2.4803,-2.5016,-2.5227,-2.546,-2.6178,-2.6657,-2.6836,-2.7932,-2.8382,-2.8484,-2.9048,-2.958,-3.0077,-2.9644,-3.0156,-3.0977,-2.9195,-2.8703,-2.8915,-2.8306,-2.8169,-2.8412,-2.891,0.0,0.0,0.0,0.0,0.0,0.0,0.0,0.0,0.0,0.0,0.0,0.0,0.0,0.0,0.0,0.0,0.0,0.0,0.0,0.0,0.0,0.0,0.0,0.0,2.9303,3.5257,3.6941,3.9181,4.0791,4.1291,4.1066,4.062,3.9984,3.9328,3.8341,3.7061,3.6645,3.5798,3.4258,3.4986,3.5672,3.6243,3.7714,3.931,4.1142,4.1568,4.2787,4.4747,4.4907,4.5763,4.7173,4.741,4.7543,4.7606,4.7571,4.7626,4.7752,4.7361,4.7456,4.7647,0.0,0.0,0.0,0.0,4.568,4.6236,0.0,0.0,0.0,0.0,0.0,0.0,0.0,-2.8201,-2.9453,-2.893,-3.1014,-3.2185,-3.148,-3.0955,-3.0478,-2.9931,-2.9121,-2.8325,-2.771,-2.6705,-2.5951,-2.5533,-2.5063,-2.4492,-2.3891,-2.357,-2.3202,-2.2734,-2.3199,-2.3493,-2.3635,-2.4227,-2.4603,-2.4804,-2.5271,-2.5632,-2.6131,-2.6313,-2.7018,-2.7721,-2.6529,-2.7748,-3.0052,-2.8738,-2.8052,-2.7877,-2.8168,-2.8274,-2.8379,-2.9192,0.0,0.0,0.0,0.0,0.0,0.0,0.0,0.0,0.0,0.0,0.0,0.0,0.0,0.0,0.0,0.0,0.0,0.0,0.0,0.0,0.0,0.0,0.0,0.0,3.4759,4.0146,4.0879,4.1242,4.1795,4.2689,4.263,4.2244,4.1707,4.1102,4.0162,3.8727,3.7956,3.7028,3.565,3.6235,0.0,0.0,0.0,4.0924,4.3099,4.3826,4.5846,4.9192,4.8264,4.9159,5.1499,4.9323,4.8659,4.9198,4.7931,4.7392,4.7493,4.7657,4.7915,4.8162,4.7383,4.6532,4.573,4.563,4.6042,4.6729,0.0,0.0,0.0,0.0,0.0,0.0,0.0,-2.8232,-2.9534,-2.9366,-3.0853,-3.1622,-3.1014,-3.0237,-2.9526,-2.8739,-2.796,-2.6934,-2.5697,-2.4992,-2.442,-2.4009,-2.3644,-2.3128,-2.2456,-2.2209,-2.1811,-2.1221,-2.1359,-2.1245,-2.0995,-2.1629,-2.2009,-2.2049,-2.2878,-2.3387,-2.3629,-2.4052,-2.453,-2.4971,-2.434,-2.5828,-2.8274,-2.7535,-2.7273,-2.7371,-2.7638,-2.7795,-2.7797,-2.7695,-2.8367,-2.9355,-2.9078,-2.9602,0.0,0.0,0.0,0.0,0.0,0.0,0.0,0.0,0.0,0.0,0.0,0.0,0.0,0.0,0.0,0.0,0.0,0.0,0.0,2.7874,3.581,4.092,4.18,4.2267,4.2576,4.2791,4.3556,4.3784,4.2912,4.3168,4.3158,4.241,4.129,4.004,3.8585,3.8489,3.8302,3.8005,3.9703,4.1506,4.3319,4.4586,4.6203,4.8063,4.8507,0.0,5.0488,4.9548,4.9118,4.9088,4.8116,4.7568,4.7363,4.7615,4.7746,4.7893,4.8562,4.7682,4.6194,4.6954,4.6795,4.6257,0.0,0.0,0.0,0.0,0.0,0.0,0.0,-2.9206,-3.033,-2.9869,-3.0849,-3.1364,-3.0807,-3.0021,-2.9338,-2.861,-2.7497,-2.6346,-2.5229,-2.4443,-2.3813,-2.315,-2.2703,-2.2101,-2.1492,-2.1145,-2.0682,-2.0157,-2.006,-1.9982,-1.9784,-1.9972,-2.0146,-2.0165,-2.1067,-2.1484,-2.1646,-2.213,-2.2611,-2.2745,-2.2134,-2.3047,-2.4823,-2.4976,-2.5394,-2.5985,-2.6123,-2.6576,-2.7179,-2.7513,-2.8484,-2.9435,-2.9259,-2.9717,-3.0261,0.0,0.0,0.0,0.0,0.0,0.0,0.0,0.0,0.0,0.0,0.0,0.0,0.0,0.0,-1.0473,0.4675,0.0,2.1549,3.2416,3.8214,4.1425,4.1522,4.2005,4.2528,4.2982,4.3358,4.3427,4.3105,4.3283,4.3364,4.3216,4.2654,4.1741,4.0561,4.0246,4.0163,4.0421,4.1546,4.3219,4.5626,4.6819,4.8229,5.001,5.0076,5.0387,5.0704,4.9721,4.889,4.8325,4.769,4.7319,4.724,4.7705,4.8011,4.8153,4.8581,4.7984,4.6897,4.6646,4.6605,4.6679,0.0,0.0,0.0,0.0,0.0,0.0,0.0,-3.0103,-3.1019,-3.0182,-3.0895,-3.1219,-3.0628,-2.996,-2.9338,-2.861,-2.7271,-2.6139,-2.53,-2.4371,-2.3519,-2.2703,-2.2025,-2.1415,-2.0779,-2.0235,-1.9706,-1.9408,-1.9073,-1.8975,-1.8975,-1.8754,-1.8674,-1.8736,-1.938,-1.9769,-1.9769,-2.0335,-2.0636,-2.0779,-2.0042,-2.0365,-2.1343,-2.2139,-2.3197,-2.4329,-2.4481,-2.5283,-2.6427,-2.7189,-2.8278,-2.9345,-2.9143,-2.9577,-3.0001,-2.9442,-2.9624,0.0,0.0,0.0,0.0,0.0,0.0,0.0,0.0,-2.1446,-1.9502,-1.6781,-1.4477,-0.7819,0.9434,1.7561,2.5214,3.6422,4.018,4.1432,4.0723,4.1277,4.1971,4.2699,4.2522,4.249,4.2777,4.289,4.2983,4.3262,4.319,4.2659,4.1761,4.1398,4.1596,4.2372,4.309,4.4739,4.7521,4.8825,5.0316,5.1976,5.1662,5.1447,5.128,4.9806,4.8662,4.797,4.739,4.7232,4.7371,4.7992,4.8237,4.8211,4.8121,4.7737,4.7124,4.6154,4.6327,4.7067,0.0,0.0,0.0,0.0,0.0,0.0,0.0,0.0,-3.0752,-3.0173,-3.0784,-3.1043,-3.0387,-2.9898,-2.9085,-2.7736,-2.7069,-2.6183,-2.5087,-2.4276,-2.3475,-2.2703,-2.1797,-2.0954,-2.0313,-1.9371,-1.8736,-1.8514,-1.7951,-1.7708,-1.7853,-1.7465,-1.7383,-1.7546,-1.7677,-1.7677,-1.7742,-1.8164,-1.8406,-1.8416,-1.8309,-1.8907,-1.9771,-1.9639,-2.1034,-2.3167,-2.3737,-2.4632,-2.5507,-2.4972,-2.6138,-2.7631,-2.6909,-2.7249,-2.7841,-2.771,-2.7471,-2.7188,-2.6476,-2.5099,-2.3746,-2.3374,-2.2099,-2.0709,0.0,-1.7749,-1.5514,-1.2695,-0.7852,-0.0234,1.2193,1.9192,2.6334,3.6348,3.9379,4.0337,3.9942,4.0485,4.0879,4.0904,4.1489,4.194,4.2132,4.2934,4.3607,4.3899,4.3326,4.2742,4.2222,4.1617,4.1309,4.1215,4.2976,4.477,4.6444,4.8906,5.0552,5.1247,5.1623,5.1752,5.1384,4.9626,4.8962,4.9198,4.815,4.787,4.8108,4.842,4.8012,4.7214,4.7477,4.6911,4.6089,4.6644,4.6601,4.6426,0.0,0.0,0.0,0.0,0.0,0.0,0.0,0.0,0.0,-3.0173,-3.0539,-3.0746,-3.0598,-3.0083,-2.931,-2.8249,-2.7604,-2.6867,-2.5861,-2.4779,-2.3768,-2.2905,-2.17,-2.0722,-2.002,-1.9073,-1.8434,-1.8193,-1.7546,-1.7221,-1.7139,-1.6812,-1.6566,-1.6402,-1.6812,-1.6812,-1.6468,-1.7041,-1.7204,-1.709,-1.6971,-1.7514,-1.8346,-1.8497,-1.9562,-2.1097,-2.1945,-2.312,0.0,-2.3838,-2.4817,-2.6083,-2.5492,-2.5591,-2.5901,-2.5669,-2.5467,-2.5132,-2.372,-2.2578,-2.153,-2.0246,-1.9248,-1.8117,-1.6348,-1.4456,-1.2245,-0.9317,-0.3649,0.4055,1.4382,2.321,3.0976,3.7062,3.8621,3.9025,3.8705,3.9265,3.9613,3.9419,3.9629,4.033,4.1703,4.2917,4.3707,4.4008,4.3901,4.3567,4.2754,4.2181,4.1907,4.2121,4.3678,4.5434,4.737,4.9231,5.0505,5.1162,5.1765,5.1499,5.0449,4.987,4.921,4.8525,4.8202,4.8311,4.8776,4.8971,4.8707,4.8143,4.7986,4.7345,4.6557,4.6441,4.6317,4.6201,0.0,0.0,0.0,0.0,0.0,0.0,0.0,0.0,0.0,0.0,-3.0558,-3.0773,-3.0629,-3.0266,-2.9623,-2.8922,-2.8352,-2.767,-2.6688,-2.5487,-2.4325,-2.318,-2.1832,-2.0779,-1.9923,-1.8913,-1.8193,-1.7951,-1.7221,-1.673,-1.6648,-1.6237,-1.5824,-1.5575,-1.6072,-1.5989,-1.5477,-1.6221,-1.6304,-1.6041,-1.604,-1.6492,-1.7204,-1.7644,-1.8487,-1.9593,-2.0573,-2.1804,-2.3037,-2.2857,-2.3649,-2.4494,-2.4135,-2.4062,-2.4039,-2.3845,-2.3408,-2.27,-2.0918,-1.987,-1.8845,-1.7081,-1.6152,-1.5106,-1.2973,-1.109,-0.8613,-0.4816,0.1233,0.8533,1.7566,2.6599,3.3842,3.7235,3.8034,3.8099,3.7811,3.8475,3.8831,3.8173,3.8238,3.9011,4.0859,4.2136,4.3274,4.4093,4.4141,4.3858,4.2963,4.2469,4.2436,4.2756,4.4164,4.589,4.784,4.9403,5.046,5.1104,5.1666,5.1193,4.9886,4.9959,4.9306,4.8117,4.8163,4.8482,4.8908,4.8905,4.872,4.8382,4.8002,4.7454,4.6791,4.6237,4.6064,4.6056,0.0,0.0,0.0,0.0,0.0,0.0,0.0,0.0,0.0,0.0,0.0,0.0,0.0,-3.0326,-3.0021,-2.9429,-2.9176,-2.8509,-2.7229,-2.6321,-2.5134,-2.3666,-2.2456,-2.1221,-1.9904,-1.8877,-1.8095,-1.7691,-1.6648,-1.6252,-1.6402,-1.5575,-1.509,-1.5173,-1.5325,-1.5144,-1.4824,-1.5741,-1.5756,-1.5173,-1.5824,-1.6237,-1.6468,-1.696,-1.7934,-1.9177,-2.0039,-2.1267,-2.2307,-2.2026,-2.2396,-2.2914,-2.2691,-2.2392,-2.2146,-2.2414,-2.1237,-1.9637,-1.8035,-1.6596,-1.5181,-1.4073,-1.2621,-1.1028,-0.9417,-0.7601,-0.4522,0.1694,0.7643,1.4251,2.2462,2.8466,3.3198,3.6586,3.7634,3.7929,3.7634,3.8495,3.8613,3.7192,3.7865,3.8649,3.921,4.0261,4.1931,4.4347,4.3863,4.3142,4.2624,4.2566,4.2363,4.2034,4.3978,4.5727,4.7325,4.9316,5.0486,5.0841,5.1025,5.0854,5.0388,4.9755,4.9191,4.8568,4.837,4.8275,4.8237,4.7871,4.7451,4.6967,4.7015,4.6712,4.6215,4.6122,4.6076,4.5997,0.0,0.0,0.0,0.0,0.0,0.0,0.0,0.0,0.0,0.0,0.0,0.0,0.0,0.0,0.0,0.0,-2.9303,-2.8702,-2.763,-2.6595,-2.5417,-2.4204,-2.2734,-2.1451,-2.0294,-1.9134,-1.8175,-1.7465,-1.673,-1.6072,-1.5726,-1.5325,-1.4922,-1.4657,-1.4824,-1.4727,-1.4475,-1.4824,-1.4992,-1.509,-1.5159,-1.5359,-1.5767,-1.6553,-1.7299,-1.8127,0.0,-2.0352,-2.1527,-2.1156,-2.1329,-2.168,-2.1048,-2.0663,-2.0178,-1.8946,-1.7315,-1.5725,-1.4543,-1.3395,-1.2201,-1.0917,-0.9567,-0.8251,-0.6551,-0.3399,0.0408,0.4509,1.1213,1.7996,2.3674,2.8839,3.3096,3.6054,3.6809,3.7077,3.6972,3.7966,3.8422,3.767,3.8418,3.955,4.096,4.143,4.2382,4.4093,4.4705,4.4702,4.4153,4.3947,4.3675,4.3278,4.4555,4.5793,4.691,4.8332,4.9463,5.031,5.0403,5.0254,4.9846,4.9265,4.8748,4.8268,4.8229,4.8417,4.8848,4.8827,4.8535,4.8099,4.8064,4.7206,4.5997,4.6025,4.6293,4.6573,0.0,0.0,0.0,0.0,0.0,0.0,0.0,0.0,0.0,0.0,0.0,0.0,0.0,0.0,0.0,0.0,0.0,-2.8803,-2.7921,-2.7027,-2.5906,-2.4707,-2.3128,-2.187,-2.076,-1.9381,-1.8294,-1.7627,-1.673,-1.5989,-1.5477,-1.5159,-1.4741,-1.4391,-1.4657,-1.4573,-1.4321,-1.4475,-1.4587,-1.4835,-1.4655,-1.4799,-1.5193,-1.5928,-1.6717,0.0,-1.8514,-1.9706,-2.0741,-2.0411,-2.0566,-2.0624,-1.9923,-1.9177,-1.8266,-1.6047,-1.4462,-1.3012,-1.1578,-1.0573,-0.963,-0.8463,-0.7126,-0.5468,-0.272,0.057,0.4542,0.9823,1.5728,2.1399,2.6426,3.0498,3.3661,3.5568,3.6351,3.6682,3.6638,3.7752,3.8339,3.7585,3.8445,3.9639,4.1106,4.1579,4.2471,4.4007,4.482,4.4905,4.4384,4.4237,4.4133,4.3898,4.4847,4.5881,4.7001,4.7861,4.8548,4.9082,4.9271,4.9208,4.8901,4.8389,4.8206,4.8218,4.7872,4.797,4.839,4.8276,4.8057,4.7782,4.801,4.735,4.6384,4.6681,4.7047,4.7284,0.0,0.0,0.0,0.0,0.0,0.0,0.0,0.0,0.0,0.0,0.0,0.0,0.0,0.0,0.0,0.0,0.0,0.0,-2.8091,-2.7497,-2.6595,-2.5063,-2.3649,-2.2382,-2.1298,-1.9602,-1.8518,-1.8031,-1.6812,-1.5989,-1.5741,-1.5075,-1.4657,-1.4475,-1.4657,-1.4489,-1.4153,-1.4573,-1.4545,-1.4265,-1.4279,-1.4482,-1.4769,-1.5193,-1.6111,-1.7327,-1.8276,-1.9231,-1.9863,-1.9863,-1.9863,-1.9706,-1.9292,-1.8043,-1.6293,-1.3904,-1.2626,-1.1442,-0.9056,-0.8029,-0.7512,-0.6694,-0.5188,-0.2776,0.1724,0.4176,0.8091,1.7147,2.1031,2.4514,3.0344,3.312,3.4732,3.505,3.6164,3.685,3.6484,3.7724,3.8283,3.7075,3.8067,3.921,3.9913,4.0761,4.2077,4.4062,4.4181,4.392,4.3416,4.3714,4.3926,4.3957,4.493,4.6064,4.7339,4.7732,4.7696,4.7204,4.7756,4.7903,4.7596,4.7235,4.7564,4.8311,4.731,4.6892,4.6872,4.6348,4.6146,4.6307,4.6973,4.7249,4.7298,4.8021,4.827,4.812,0.0,0.0,0.0,0.0,0.0,0.0,0.0,0.0,0.0,0.0,0.0,0.0,0.0,0.0,0.0,0.0,0.0,0.0,-2.8509,-2.7921,-2.7002,-2.5697,-2.44,-2.3245,-2.2134,-2.0738,-1.9653,-1.8736,-1.7934,-1.6944,-1.5974,-1.5643,-1.5242,-1.4908,-1.4741,-1.4615,-1.4501,-1.4476,-1.4268,-1.405,-1.4195,-1.4194,-1.4074,-1.5117,-1.5968,-1.674,-1.7951,-1.9054,-1.9863,-1.9863,-1.9311,-1.8353,-1.7448,-1.5779,-1.3917,-1.231,-1.0336,-0.8416,-0.725,-0.6418,-0.5561,-0.4333,-0.286,-0.0833,0.2939,0.6995,1.1547,1.6992,2.252,2.6964,2.9252,3.2368,3.4657,3.4677,3.5885,3.6721,3.6642,3.6932,3.7373,3.8007,3.8638,3.9587,4.1113,4.2038,4.279,4.3486,4.4305,4.4807,4.4982,4.5112,4.5178,4.5341,4.5435,4.5846,4.6684,4.7158,4.7257,4.7204,4.7299,4.7499,4.769,4.6759,4.6505,4.6724,4.549,4.5372,4.6053,4.6078,4.6855,4.799,4.8092,4.8427,4.8839,4.9237,4.9625,4.9946,0.0,0.0,0.0,0.0,0.0,0.0,0.0,0.0,0.0,0.0,0.0,0.0,0.0,0.0,0.0,0.0,0.0,0.0,0.0,-2.8379,-2.763,-2.6458,-2.5244,-2.4165,-2.3305,-2.1774,-2.0639,-2.0022,-1.9097,-1.8141,-1.7334,-1.6862,-1.6453,-1.6057,-1.5809,-1.5621,-1.5538,-1.5321,-1.5101,0.0,0.0,-1.4647,-1.4547,-1.5389,-1.6089,-1.6759,-1.7899,-1.8656,-1.9054,-1.8816,-1.8353,-1.7546,-1.6304,-1.4699,-1.2832,-1.094,-0.881,-0.6766,-0.537,-0.4428,-0.3493,-0.227,0.0083,0.3193,0.7251,1.1315,1.5545,2.027,2.4489,2.7928,2.9758,3.2213,3.3978,3.4197,3.5228,3.6101,3.6377,3.6632,3.7044,3.7731,3.8588,3.9676,4.1076,4.1995,4.282,4.3409,4.4368,4.5011,4.5031,4.5415,4.5495,4.5254,4.5483,4.5865,4.6401,4.6581,4.6482,4.6076,4.5847,4.6084,4.674,4.5802,4.5815,4.6469,4.5499,4.5327,4.583,4.6208,4.6999,4.8046,4.8633,4.9349,5.0158,5.061,5.1161,5.1645,0.0,0.0,0.0,0.0,0.0,0.0,0.0,0.0,0.0,0.0,0.0,0.0,0.0,0.0,0.0,0.0,0.0,0.0,0.0,0.0,-2.8314,-2.743,-2.6114,-2.5115,-2.4684,-2.2811,-2.1766,-2.1694,-2.0333,-1.9492,-1.9177,-1.8541,-1.798,-1.7577,-1.7269,-1.7074,-1.6863,-1.6683,-1.6476,-1.6236,-1.5825,-1.5675,-1.5716,0.0,-1.6436,-1.7132,-1.8074,-1.8336,-1.8078,-1.7627,-1.7302,-1.6976,-1.5643,-1.4099,-1.2298,-0.978,-0.7771,-0.5872,-0.3707,-0.2547,-0.1503,-0.0083,0.3509,0.7852,1.2451,1.5732,1.9184,2.4203,2.6249,2.7928,3.0559,3.2091,3.3009,3.3349,3.42,3.5058,3.5628,3.6171,3.6524,3.688,3.7922,3.9089,4.0199,4.1179,4.2181,4.3229,4.4134,4.443,4.4251,4.4957,4.5029,4.4252,4.5126,4.5722,4.587,4.5736,4.5188,4.4293,4.3882,4.4288,4.528,4.4633,4.5242,4.6793,4.6001,4.5742,4.5918,4.6522,4.7115,4.7816,4.9173,5.0387,5.1474,5.2026,5.2528,5.2801,0.0,0.0,0.0,0.0,0.0,0.0,0.0,0.0,0.0,0.0,-2.8353,-2.8823,0.0,0.0,0.0,0.0,0.0,0.0,0.0,0.0,0.0,-2.8546,-2.7406,-2.6578,-2.597,-2.4614,-2.3632,-2.3136,-2.2092,-2.1181,-2.0488,-1.9709,-1.9158,-1.8841,-1.8301,-1.8047,-1.7926,-1.7923,-1.7507,-1.6759,-1.6995,-1.6877,-1.6573,-1.7192,0.0,0.0,-1.8813,-1.8993,-1.8674,-1.7951,-1.6878,-1.5809,-1.4629,-1.3002,-1.108,-0.8674,-0.7097,-0.57,-0.3049,-0.1412,0.0244,0.3277,0.6676,1.0163,1.3698,1.6869,1.9774,2.2315,2.5456,2.7839,2.8297,3.0312,3.1823,3.1724,3.2607,3.3394,3.3939,3.3641,3.4237,3.6495,3.6434,3.6956,3.8999,3.9952,4.0879,4.1724,4.2102,4.2682,4.3635,4.4013,4.3934,4.3581,4.414,4.4235,4.3753,4.358,4.3101,4.2228,4.2577,4.3315,4.431,4.374,4.438,4.585,4.4436,4.4583,4.5893,4.6744,4.831,5.0281,5.1312,5.243,5.3474,5.3514,5.2862,5.1764,0.0,0.0,0.0,0.0,0.0,0.0,0.0,-2.8032,-2.7765,-2.769,-2.7981,-2.8106,-2.7661,-2.8592,0.0,0.0,0.0,0.0,0.0,0.0,0.0,0.0,0.0,0.0,-2.7219,-2.6108,-2.5298,-2.4684,0.0,-2.2765,-2.2242,-2.1507,-2.1048,-2.074,-2.0566,-2.0389,-2.0313,-2.0191,-1.9822,-1.9291,-1.8914,-1.8692,-1.8526,0.0,0.0,0.0,-1.9219,-1.8975,-1.8416,-1.7772,-1.6424,-1.4832,-1.382,-1.2151,-1.0115,-0.7866,-0.5996,-0.389,-0.041,0.1362,0.3057,0.6402,1.034,1.3758,1.5241,1.8545,2.1858,2.3351,2.4992,2.626,2.6806,2.796,2.8938,2.9128,3.0143,3.1373,3.2559,3.2767,3.3522,3.5432,3.5725,3.6437,3.7893,3.9041,4.0076,4.0841,4.0997,4.17,4.3152,4.2732,4.2598,4.2833,4.2236,4.207,4.2286,4.1795,4.1223,4.0676,4.1708,4.2598,4.3238,4.3773,4.4594,4.5566,4.4935,4.5466,4.6865,4.7405,4.9015,5.1099,5.0559,5.1041,5.1825,5.0729,4.9639,4.8502,0.0,0.0,0.0,0.0,0.0,0.0,0.0,-2.8271,-2.7929,-2.8204,-2.8076,-2.7709,-2.7021,-2.8097,-2.8931,0.0,0.0,0.0,0.0,0.0,0.0,0.0,0.0,0.0,0.0,0.0,0.0,-2.6158,-2.511,0.0,0.0,0.0,0.0,0.0,-2.2772,-2.2688,-2.247,-2.2397,-2.222,0.0,0.0,-2.0771,0.0,0.0,0.0,0.0,0.0,-1.9353,-1.8559,-1.7917,-1.6364,-1.4522,-1.3272,-1.1431,-0.9213,-0.7007,-0.4448,-0.1564,0.1909,0.4274,0.6482,0.928,1.3316,1.6676,1.6984,2.0313,2.3475,2.4317,2.4317,2.4326,2.4826,2.5363,2.5746,2.5782,2.724,2.8888,3.0507,3.1651,3.2707,3.3913,3.4879,3.5835,3.6552,3.7618,3.8521,3.9276,3.9398,4.0305,4.2364,4.137,4.0962,4.1485,4.0372,4.0008,4.0537,4.0173,3.9787,3.9438,4.1159,4.2208,4.2656,4.4216,4.5269,4.5896,4.6024,4.6844,4.8143,4.8306,4.958,5.1214,4.9565,4.9078,4.9084,4.7097,4.5684,4.4477,0.0,0.0,0.0,0.0,0.0,0.0,0.0,-2.8497,-2.8435,-2.8244,-2.7954,-2.7689,-2.7399,-2.8465,-2.9205,0.0,0.0,0.0,0.0,0.0,0.0,0.0,0.0,0.0,0.0,0.0,0.0,-2.7338,-2.6483,0.0,0.0,0.0,0.0,0.0,0.0,-2.3762,-2.3461,-2.3753,0.0,0.0,0.0,0.0,0.0,0.0,0.0,0.0,0.0,-2.1221,-2.0682,-1.9256,-1.7547,-1.5651,-1.3437,-1.0892,-0.8401,-0.6128,-0.2583,0.0879,0.2421,0.6318,1.0353,1.1946,1.4533,1.7149,1.916,2.141,2.3033,2.2734,2.3112,2.2956,2.1288,2.2583,2.3424,2.1652,2.3745,2.5979,2.6932,2.8697,3.0359,3.1734,3.3081,3.414,3.4643,3.4974,3.5269,3.5663,3.59,3.7487,4.0867,3.9969,3.9276,3.8918,3.9013,3.8558,3.7432,3.8841,3.9187,3.8443,4.0703,4.2354,4.3357,4.4901,4.6164,4.7155,4.6939,4.774,4.9173,4.9586,5.0195,5.0897,4.9944,4.8496,4.6685,4.4594,4.2653,4.0485,0.0,0.0,0.0,0.0,0.0,0.0,-2.9014,-2.8622,-2.8544,-2.881,-2.9013,-2.901,-2.8795,-2.9564,-2.9762,0.0,0.0,0.0,0.0,0.0,0.0,0.0,0.0,0.0,0.0,0.0,-2.8519,-2.796,-2.7229,0.0,0.0,0.0,0.0,0.0,0.0,-2.5462,-2.5201,-2.5265,0.0,0.0,0.0,0.0,0.0,0.0,0.0,0.0,0.0,0.0,-2.1507,-2.0566,-1.8944,-1.7019,-1.484,-1.2154,-0.8951,-0.4957,-0.1687,0.1437,0.4804,0.7895,1.0701,1.3187,1.5786,1.8008,1.91,2.0698,2.1782,2.1334,2.1376,2.1143,1.9885,2.0661,2.1202,2.062,2.2418,2.4349,2.5823,2.7327,2.8802,3.0156,3.1003,3.1738,3.218,3.2649,3.2731,3.2064,3.2979,3.3938,3.503,3.5935,3.659,3.6875,3.6259,3.5928,3.6,3.7725,3.865,3.8801,4.2184,4.3926,4.424,4.6046,4.7133,4.7569,4.7426,4.8265,4.9672,4.8792,4.852,4.8322,4.5411,4.3008,4.0974,3.8495,3.5425,3.2215,0.0,0.0,0.0,0.0,0.0,-2.9986,-2.9384,-2.8982,-2.9028,-2.956,-2.9795,-2.9922,-2.9879,-3.0177,-3.0005,-2.8996,0.0,0.0,0.0,0.0,0.0,0.0,0.0,0.0,0.0,0.0,-2.9121,-2.8546,-2.7855,-2.7323,0.0,0.0,-2.6371,-2.6164,0.0,0.0,0.0,0.0,0.0,0.0,0.0,0.0,0.0,0.0,0.0,0.0,0.0,0.0,0.0,0.0,0.0,-1.8825,-1.6945,-1.4125,-1.0375,-0.5052,-0.1411,0.1722,0.596,0.8618,1.0763,1.3245,1.5875,1.7989,1.8299,1.9493,2.0494,2.0237,1.9833,1.9295,1.8319,1.8851,1.9317,1.9127,2.0789,2.2695,2.3953,2.555,2.7037,2.8172,2.8928,2.9653,3.024,3.0191,2.969,2.8654,2.9426,3.0,3.0282,3.163,3.3144,3.4657,3.3952,3.3903,3.4715,3.7123,3.8802,3.9717,4.3509,4.5284,4.5282,4.7259,4.8085,4.8015,4.7985,4.8389,4.8956,4.6832,4.5308,4.388,4.0179,3.7223,3.4576,3.1715,2.8488,2.5163,0.0,0.0,0.0,0.0,0.0,0.0,-2.9726,-2.9858,-3.0076,-3.0375,-3.0044,-2.9913,-3.0162,-3.0033,-2.9802,-2.9534,0.0,0.0,0.0,0.0,0.0,0.0,0.0,0.0,0.0,0.0,-2.956,-2.9113,-2.8406,-2.8013,-2.7789,-2.7229,-2.6918,-2.6739,0.0,0.0,0.0,0.0,0.0,0.0,0.0,0.0,0.0,0.0,0.0,0.0,0.0,0.0,0.0,0.0,0.0,0.0,0.0,-1.6736,-1.2774,-0.6714,-0.192,0.2149,0.5069,0.8384,1.1119,1.181,1.4356,1.6668,1.6685,1.801,1.9244,1.9397,1.8639,1.7533,1.5982,1.7069,1.7593,1.6064,1.8494,2.0573,2.0568,2.2875,2.4823,2.5378,2.6812,2.8105,2.9075,2.7436,2.6055,2.5201,2.4918,2.5765,2.8022,2.7731,2.8913,3.2061,3.2491,3.2848,3.3322,3.7142,3.9743,4.1023,4.4234,4.6006,4.6459,4.8472,4.9076,4.86,4.8659,4.8028,4.6748,4.3716,4.0567,3.7346,3.5175,3.1849,2.7964,2.4679,2.2503,2.0569,0.0,0.0,0.0,0.0,0.0,0.0,0.0,-2.9782,-3.0,-3.013,-3.0555,-3.0686,-3.0119,-3.0588,-3.0554,-2.9579,0.0,0.0,0.0,0.0,0.0,0.0,0.0,0.0,0.0,0.0,-2.9747,-2.9247,-2.8702,-2.8314,-2.8157,-2.796,-2.7789,-2.7683,-2.7974,-2.8014,0.0,0.0,0.0,0.0,0.0,0.0,-2.8839,0.0,0.0,0.0,0.0,0.0,0.0,0.0,0.0,0.0,0.0,0.0,0.0,-1.1259,-0.5649,-0.0073,0.3467,0.678,0.9522,1.0513,1.2526,1.4319,1.4558,1.5557,1.663,1.7081,1.6918,1.6564,1.5996,1.7019,1.7926,1.7747,1.9224,2.0636,2.1384,2.1684,2.2217,2.3103,2.331,2.3289,2.3264,2.2611,2.1835,2.0765,2.1397,2.238,2.3627,2.4872,2.7058,3.0112,3.1536,3.3067,3.454,3.8698,4.2031,4.4455,4.7159,4.8544,4.8666,4.8636,4.8306,4.7665,4.5375,4.3724,4.2314,3.8363,3.4435,3.0504,2.52,2.1996,1.964,1.5557,1.3334,1.1807,0.0,0.0,0.0,0.0,0.0,0.0,0.0,-2.9726,-2.9858,-3.0,-3.0435,-3.0565,-2.9989,-3.0522,-3.0577,-2.9681,0.0,0.0,0.0,0.0,0.0,0.0,0.0,0.0,0.0,-2.9638,-2.9602,-2.9285,-2.8816,-2.8611,-2.8675,-2.8481,-2.8379,-2.8276,-2.8536,-2.8573,0.0,0.0,0.0,0.0,0.0,0.0,-2.9747,0.0,0.0,0.0,0.0,0.0,0.0,0.0,0.0,0.0,0.0,0.0,0.0,0.0,-0.9884,-0.393,0.1464,0.5327,0.8156,0.9281,1.0959,1.2346,1.2365,1.3082,1.402,1.4798,1.4684,1.438,1.4161,1.562,1.7002,1.7253,1.87,2.0005,2.0805,2.0881,2.0843,2.1009,2.0851,1.9942,1.7979,1.8006,1.7795,1.6981,1.8176,1.9597,2.098,2.3355,2.5997,2.8941,3.1076,3.3417,3.6182,4.0353,4.3948,4.6887,4.8666,4.9528,4.948,4.7794,4.6301,4.4814,4.1607,3.8587,0.0,3.0949,2.5863,2.0435,1.5777,1.2657,1.0263,0.7396,0.5186,0.3663,0.0,0.0,0.0,0.0,0.0,0.0,0.0,0.0,-2.9681,-2.9989,-2.9858,-2.977,-2.9793,-3.0044,-3.0087,-2.9793,0.0,0.0,0.0,0.0,0.0,0.0,0.0,0.0,0.0,-2.9044,-2.9168,-2.926,-2.8665,-2.8641,-2.9171,-2.8812,-2.8556,-2.8529,-2.8648,-2.8839,-2.9247,-3.0277,-3.0877,-3.1031,-3.119,-3.1029,0.0,0.0,0.0,0.0,0.0,0.0,0.0,0.0,0.0,0.0,0.0,0.0,0.0,0.0,0.0,0.0,0.0,0.3921,0.6979,0.8018,0.954,1.0682,1.0078,1.0638,0.0,1.2271,1.1974,1.1378,1.0713,1.2996,1.4972,1.4885,1.7002,1.8702,1.9122,2.0313,2.0527,1.8928,1.9199,1.7779,1.3323,1.3661,1.4047,1.3758,1.5259,1.7379,1.9918,2.2862,2.5842,2.8723,3.1173,3.4303,3.823,4.1984,4.5247,4.8035,4.8596,4.8715,4.8448,4.545,4.2705,4.0085,3.6791,3.2111,2.6299,2.1439,1.511,0.8377,0.6546,0.363,0.0247,-0.05,-0.2147,-0.4226,0.0,0.0,0.0,0.0,0.0,0.0,0.0,0.0,0.0,0.0,-3.029,-3.013,-2.9968,-3.0087,-3.0087,0.0,0.0,0.0,0.0,0.0,0.0,0.0,0.0,0.0,0.0,-2.9516,-2.9456,-2.9053,-2.857,-2.8308,-2.8215,-2.8451,-2.8424,-2.8064,-2.8721,-2.9309,-2.99,-3.0629,-3.119,-3.1544,-3.1544,-3.1513,0.0,0.0,0.0,0.0,-3.0358,-2.9837,0.0,0.0,0.0,0.0,0.0,0.0,0.0,0.0,-1.4099,-0.8886,-0.3759,0.0,0.6428,0.7258,0.8125,0.8742,0.0,0.8741,0.8383,0.766,0.8969,0.9494,0.6991,0.9386,1.2018,1.283,1.5111,1.7064,1.7986,1.9114,1.8762,1.5551,1.5809,1.4698,1.0716,0.9944,1.0102,1.1169,1.2492,1.489,1.8588,2.2689,2.6553,3.0012,3.4133,3.774,4.0823,4.3015,4.4556,4.5376,4.5398,4.4188,4.1757,3.794,3.4692,3.169,2.5581,1.9975,1.4692,0.8858,0.4394,0.0606,-0.474,-0.7573,-0.904,-1.171,-1.3071,-1.37,0.0,0.0,0.0,0.0,0.0,0.0,0.0,0.0,0.0,0.0,0.0,0.0,0.0,0.0,0.0,0.0,0.0,0.0,0.0,0.0,0.0,0.0,0.0,-2.9721,-2.9245,-2.9193,-2.907,-2.8949,-2.8571,-2.8589,-2.8944,-2.9086,-2.9057,-2.8915,-2.9259,-2.9572,-2.9967,-3.0874,-3.1399,-3.1597,-3.1926,0.0,0.0,0.0,0.0,0.0,-3.0925,-3.0507,0.0,-2.9066,-2.7922,-2.6711,0.0,0.0,0.0,0.0,-1.4631,-1.0165,-0.541,0.0081,0.4844,0.6249,0.684,0.6955,0.6878,0.6455,0.5743,0.437,0.5212,0.5616,0.3718,0.5306,0.7693,1.0207,1.2979,1.5707,1.8177,1.92,1.853,1.5379,1.4434,1.2421,0.84,0.7231,0.7312,0.8943,1.1119,1.4197,1.8434,2.2996,2.5961,2.6784,3.4175,3.9392,4.2026,4.2279,4.2383,4.2344,3.9917,3.7253,3.4353,2.9453,2.5358,2.1921,1.5336,0.9374,0.3738,-0.1445,-0.5742,-0.9497,-1.35,-1.6202,-1.7885,-1.9096,-2.0386,-2.1215,0.0,0.0,0.0,0.0,0.0,0.0,0.0,0.0,0.0,0.0,0.0,0.0,0.0,0.0,0.0,0.0,0.0,0.0,0.0,0.0,0.0,0.0,0.0,-2.9425,-2.9013,-2.8763,-2.8706,-2.8931,-2.8798,-2.9139,-3.0082,-3.0009,-3.0013,-3.0125,-2.9943,-2.9917,-3.0091,-3.1204,-3.1619,-3.1751,-3.2385,0.0,0.0,0.0,0.0,0.0,0.0,0.0,0.0,-2.9459,-2.8368,-2.7255,-2.5547,0.0,0.0,0.0,0.0,0.0,-0.6921,-0.2104,0.2069,0.4667,0.5384,0.5299,0.4517,0.4142,0.3626,0.2363,0.1885,0.1651,0.1257,0.2327,0.4399,0.7777,1.1587,1.5091,1.8167,1.9317,1.8797,1.5924,1.3652,1.0616,0.6404,0.5003,0.5055,0.6781,0.8991,1.2151,1.6521,2.0486,2.203,2.0694,2.975,3.5756,3.8042,3.9062,3.8463,3.6104,3.2166,2.83,2.448,1.9608,1.4852,1.0273,0.4616,-0.1238,-0.7151,-1.1355,-1.5687,-1.9901,-2.1146,-2.3228,-2.5482,-2.5052,-2.6055,-2.7602,0.0,0.0,0.0,0.0,0.0,0.0,0.0,0.0,0.0,0.0,0.0,0.0,0.0,0.0,0.0,0.0,0.0,0.0,0.0,0.0,0.0,0.0,-3.0205,-2.9946,-2.9592,-2.9502,-2.9353,-2.9046,-2.9432,-2.9558,-2.9552,-3.0334,-3.0739,-3.0764,-3.0658,-3.098,-3.156,-3.181,-3.2269,-3.2833,-3.298,0.0,0.0,0.0,0.0,0.0,0.0,0.0,0.0,-2.9871,-2.8358,-2.6755,-2.5527,0.0,0.0,0.0,0.0,0.0,-0.9498,-0.6441,-0.3348,0.1324,0.3148,0.361,0.2679,0.2791,0.2899,0.2127,0.1412,0.0943,0.0864,0.4201,0.7034,0.7175,1.2716,1.658,1.5327,1.7501,1.7661,1.3484,1.1534,0.8845,0.4474,0.2833,0.2585,0.4047,0.1659,0.2122,0.6752,0.6939,0.8761,1.2791,1.4731,1.6362,1.7754,3.0494,3.0885,1.9089,2.0323,1.6369,0.7696,0.6579,0.1796,-0.5894,-0.9633,-1.409,-1.9137,-2.43,-2.6369,-2.652,-2.913,-2.9756,-2.9327,-3.1778,-3.2845,-3.3129,0.0,0.0,0.0,0.0,0.0,0.0,0.0,0.0,0.0,0.0,0.0,0.0,0.0,0.0,0.0,0.0,0.0,0.0,0.0,0.0,0.0,-2.9913,-3.0033,-2.9989,-2.9681,-2.9624,-2.9649,-2.9815,-2.999,-3.0364,-3.0865,-3.13,-3.1526,-3.1464,-3.1224,-3.111,-3.116,-3.2019,-3.2304,-3.2234,0.0,0.0,0.0,0.0,0.0,0.0,0.0,0.0,0.0,0.0,-2.8886,-2.7332,-2.5846,0.0,0.0,0.0,0.0,0.0,-1.1109,-0.9229,-0.7218,-0.3967,-0.1758,-0.0348,-0.0596,-0.0337,-0.0166,-0.0401,0.0639,0.1514,0.1494,0.4219,0.7279,0.9469,1.3107,1.5781,1.6204,1.7517,1.6826,1.2433,0.9564,0.6484,0.2764,0.0819,-0.0638,-0.1511,-0.1808,-0.1082,0.0699,0.1425,0.1125,-0.0462,0.4296,0.2234,-0.7499,0.6372,1.1054,0.6386,0.4712,0.011,-0.6888,-0.8353,-1.2381,-1.8173,-2.0358,-2.3495,-2.7529,-3.0001,-3.1007,-3.1162,-3.2529,-3.3454,-3.4238,-3.6558,-3.7316,-3.7296,0.0,0.0,0.0,0.0,0.0,0.0,0.0,0.0,0.0,0.0,0.0,0.0,0.0,0.0,0.0,0.0,0.0,0.0,0.0,0.0,-2.9515,-2.9605,-2.9858,-2.9902,-2.9726,-2.9797,-3.006,-3.0511,-3.0831,-3.1483,-3.2415,-3.2467,-3.2435,-3.2321,-3.1929,-3.1517,-3.1262,-3.2254,-3.2396,-3.1992,0.0,0.0,0.0,0.0,0.0,0.0,0.0,0.0,0.0,0.0,0.0,0.0,0.0,0.0,0.0,-2.0236,-1.7986,-1.5501,-1.2903,-1.1514,-1.0343,-0.8706,-0.6449,-0.4489,-0.3882,-0.3696,-0.3493,-0.2796,-0.0732,0.129,0.2139,0.4545,0.7651,1.1326,1.333,1.511,1.7037,1.7232,1.5479,1.1004,0.7488,0.3823,-0.0089,-0.2167,-0.4773,-0.8297,-0.7034,-0.688,-0.8505,-0.7156,-0.8837,-1.4263,-0.8432,-1.187,-2.5817,-1.6726,-1.0141,-0.6407,-0.9701,-1.4134,-1.9473,-2.1166,-2.4468,-2.8887,-2.9342,-3.134,-3.4246,-3.4382,-3.4593,-3.4817,-3.506,-3.6338,-3.8328,-3.9725,-4.024,-4.0179,0.0,0.0,0.0,0.0,0.0,0.0,0.0,0.0,0.0,0.0,0.0,0.0,0.0,0.0,0.0,0.0,0.0,0.0,0.0,0.0,-2.9515,-2.9946,-2.9946,-2.9902,-2.9858,-3.0595,-3.0953,-3.0881,-3.2031,-3.2862,-3.3371,-3.3527,-3.3527,-3.3391,-3.2912,-3.2994,-3.3438,-3.2862,-3.2889,-3.336,-3.3455,0.0,0.0,0.0,0.0,0.0,0.0,0.0,0.0,0.0,0.0,0.0,0.0,0.0,-2.3916,-2.1896,-2.0068,-1.8115,-1.5383,-1.3722,-1.2541,-1.1305,-0.9538,-0.7824,-0.6478,-0.6459,-0.6166,-0.3938,-0.2785,-0.1128,0.2258,0.6464,0.9766,1.0503,1.375,1.6037,1.5553,1.4942,1.2798,0.8412,0.5247,0.0889,-0.5541,-0.7068,-1.0055,-1.5707,-1.8218,-2.1429,-2.6066,-2.6497,-2.636,-2.6063,-2.8269,-2.8804,-2.7577,-2.9192,-2.7157,-2.1635,-1.924,-2.2225,-2.9591,-2.8633,-3.1891,-3.8463,-3.7502,-3.8105,-3.9824,-4.0202,-3.9409,-3.8007,-3.8625,-3.9356,-4.014,-4.109,-4.1113,-4.0968,0.0,0.0,0.0,0.0,0.0,0.0,0.0,0.0,0.0,0.0,0.0,0.0,0.0,0.0,0.0,0.0,0.0,0.0,0.0,0.0,-2.938,-2.956,-2.9681,-2.9802,-2.9802,-3.0571,-3.1154,-3.1467,-3.2656,-3.3335,-3.3487,-3.3466,-3.3466,-3.3487,-3.3304,-3.2908,-3.2414,-3.2953,-3.2551,-3.1642,-3.2501,-3.2851,0.0,0.0,0.0,0.0,0.0,0.0,0.0,0.0,-3.0376,-2.8902,-2.8137,-2.6329,-2.4282,-2.3405,-2.1123,-1.8508,-1.7005,-1.5467,-1.4049,-1.2905,-1.2419,-1.1582,-0.9465,-0.9026,-0.8631,-0.7013,-0.5764,-0.3572,0.1027,0.374,0.6228,0.9249,1.1205,1.2168,1.1661,1.1271,0.9266,0.4524,0.0785,-0.3251,-0.8047,-1.084,-1.5007,-2.1167,-2.3043,-2.6029,-3.1081,-3.2579,-3.4177,-3.618,-3.709,-3.7337,-3.6899,-3.7395,-3.6312,-3.372,-3.0852,-3.2148,-3.7165,-3.7841,-4.0439,-4.4316,-4.249,-4.2245,-4.3167,-4.1588,-4.0201,-3.9331,-4.019,-4.1345,-4.2634,-4.2163,-4.2488,-4.2972,0.0,0.0,0.0,0.0,0.0,0.0,0.0,0.0,0.0,0.0,0.0,0.0,0.0,0.0,0.0,0.0,0.0,0.0,-2.9546,-2.9699,-2.9772,-2.9502,-2.9637,-2.981,-3.0035,-3.0712,-3.1276,-3.1662,-3.299,-3.3498,-3.3309,-3.3423,-3.3445,-3.3361,-3.3361,-3.2875,-3.2119,-3.3002,-3.2538,-3.1336,-3.2304,-3.2609,0.0,0.0,0.0,0.0,0.0,0.0,0.0,0.0,-3.096,-2.9529,-2.8934,-2.7195,-2.5245,-2.4416,-2.2035,-1.9401,-1.788,-1.6419,-1.502,-1.3749,-1.3802,-1.3802,-1.2174,-1.1563,-1.0919,-0.9591,-0.772,-0.491,-0.0786,0.1167,0.3465,0.7525,0.8107,0.8061,0.7807,0.7141,0.4989,0.0262,-0.3393,-0.7304,-1.1854,-1.5551,-2.0099,-2.5824,-2.7718,-3.0586,-3.5056,-3.7158,-3.9888,-4.3388,-4.3239,-4.2945,-4.2558,-4.2145,-4.1194,-3.9803,-3.916,-4.0133,-4.2536,-4.4243,-4.602,-4.7619,-4.5459,-4.4925,-4.5428,-4.22,-4.0386,-3.9613,-4.0847,-4.1696,-4.2339,-4.2919,-4.3404,-4.385,0.0,0.0,0.0,0.0,0.0,0.0,0.0,0.0,0.0,0.0,0.0,0.0,0.0,0.0,0.0,0.0,0.0,0.0,-3.114,-3.1108,-3.0738,-2.9935,-2.977,-3.0035,-3.0665,-3.1134,-3.142,-3.142,-3.3011,-3.3481,-3.2912,-3.3512,-3.356,-3.3096,-3.3096,-3.3096,-3.3096,-3.3096,-3.3096,-3.3096,-3.3224,-3.297,-3.252,0.0,0.0,0.0,0.0,0.0,0.0,0.0,-3.1373,-3.0347,-2.9248,-2.8272,-2.7086,-2.4865,-2.3128,-2.125,-1.7961,-1.6429,-1.5365,-1.3789,-1.3548,-1.3815,-1.4307,-1.3873,-1.293,-1.1381,-0.8178,-0.5089,-0.3214,-0.0629,0.2146,0.5223,0.492,0.4344,0.4501,0.2706,-0.0085,-0.4161,-0.6826,-1.0921,-1.7646,-2.1587,-2.5471,-2.9744,-3.3127,-3.641,-3.9598,-4.1815,-4.438,-4.7335,-4.755,-4.6061,-4.2748,-4.3322,-4.2119,-3.9239,-4.3085,-4.5079,-4.5572,-4.7111,-4.7981,-4.8095,-4.6403,-4.5993,-4.6231,-4.2658,-4.0274,-3.9021,-4.0606,-4.014,-3.8925,-4.3151,-4.3903,-4.3075,0.0,0.0,0.0,0.0,0.0,0.0,0.0,0.0,0.0,0.0,0.0,0.0,0.0,0.0,0.0,0.0,0.0,0.0,-3.1307,-3.1153,-3.0738,-3.0022,-2.9814,-2.9733,-2.9868,-3.0574,-3.1444,-3.2353,-3.2765,-3.2764,-3.2444,-3.2653,-3.2764,-3.2633,-3.2687,-3.2547,-3.2217,-3.2823,-3.2531,-3.1683,-3.2361,-3.2628,-3.267,0.0,0.0,0.0,0.0,0.0,0.0,0.0,0.0,0.0,-3.0171,-2.9444,-2.8332,-2.6581,-2.4275,-2.179,-1.9161,-1.7017,-1.5296,-1.4307,-1.4223,-1.4573,-1.5144,-1.4727,-1.382,-1.2862,-1.0449,-0.7805,-0.5683,-0.3847,-0.2252,-0.0778,-0.0157,-0.0561,-0.2805,-0.3756,-0.5477,-0.9043,-1.289,-1.7326,-2.24,-2.6717,-3.0948,-3.5262,-3.7848,-4.0593,-4.376,-4.5229,-4.6834,-4.8748,-4.8326,-4.706,-4.5016,-4.4903,-4.5003,-4.5186,-4.6475,-4.6742,-4.6275,-4.8059,-4.8646,-4.8126,-4.6845,-4.5902,-4.4974,-4.225,-4.1736,-4.2421,-4.1108,-4.1696,-4.3144,-4.2017,-4.2522,-4.3786,0.0,0.0,0.0,0.0,0.0,0.0,0.0,0.0,0.0,0.0,-3.6276,-3.6051,0.0,0.0,0.0,-3.4576,-3.4405,0.0,-3.1957,-3.1724,-3.1165,-3.0065,-2.9826,-2.9804,-2.988,-3.1099,-3.183,-3.206,-3.2561,-3.2659,-3.2302,-3.2578,-3.2604,-3.2382,-3.2413,-3.2307,-3.2098,-3.2694,-3.2435,-3.1851,-3.2538,-3.2692,-3.2538,0.0,0.0,0.0,0.0,0.0,0.0,0.0,0.0,0.0,-3.0915,-3.0043,-2.8905,-2.7785,-2.5268,-2.2457,-2.0667,-1.8362,-1.6288,-1.5628,-1.5394,-1.5477,-1.5906,-1.5311,-1.4476,-1.3913,-1.199,-0.9867,-0.7857,-0.6727,-0.6217,-0.6315,-0.6067,-0.7148,-1.0582,-1.1237,-1.2326,-1.5018,-1.9012,-2.3329,-2.7728,-3.1668,-3.5393,-3.9061,-4.1557,-4.3924,-4.6289,-4.7555,-4.8825,-5.022,-4.9415,-4.8338,-4.7139,-4.6961,-4.7189,-4.7854,-4.8497,-4.8478,-4.8085,-4.908,-4.9153,-4.8564,-4.6625,-4.4885,-4.3385,-4.1768,-4.1662,-4.2487,-4.0745,-4.1672,-4.3698,-4.1638,-4.2614,-4.5014,0.0,0.0,-3.5342,-3.5646,0.0,0.0,0.0,0.0,0.0,-3.7206,-3.6933,-3.6548,0.0,0.0,0.0,-3.5622,-3.5304,-3.4472,-3.294,-3.2706,-3.1867,-3.0239,-2.9967,-3.016,-3.067,-3.2238,-3.2422,-3.1134,-3.2497,-3.2854,-3.2321,-3.2885,-3.2885,-3.2382,-3.2302,-3.2302,-3.2468,-3.2602,-3.2796,-3.2935,-3.3361,-3.3137,-3.2399,-3.1883,0.0,0.0,0.0,0.0,0.0,0.0,0.0,0.0,-3.1481,-3.0383,-2.9251,-2.8562,-2.6054,-2.3309,-2.2302,-2.0139,-1.7997,-1.7269,-1.6796,-1.655,-1.655,-1.5876,-1.5112,-1.4565,-1.3133,-1.142,-1.0001,-0.9496,-0.99,-1.1474,-1.2608,-1.4535,-1.8261,-1.9089,-2.0052,-2.1923,-2.5203,-2.8947,-3.3182,-3.6326,-3.9159,-4.171,-4.4505,-4.6632,-4.7818,-4.9113,-5.0407,-5.1667,-5.0706,-4.9816,-4.9042,-4.9144,-4.8827,-4.8172,-4.9426,-5.0213,-5.0562,-5.0,-4.9473,-4.8891,-4.5884,-4.3539,-4.1777,-4.1394,-4.0918,-4.0433,-4.0045,-4.0778,-4.2087,-4.1903,-4.3884,-4.6315,0.0,0.0,-3.5844,-3.6171,0.0,0.0,0.0,0.0,-3.7077,-3.7081,-3.6635,-3.6268,-3.601,-3.6019,0.0,-3.579,-3.5577,-3.5026,-3.3941,-3.3649,-3.2805,-3.1254,-3.088,-3.1115,-3.2133,-3.245,-3.2677,-3.2792,-3.2749,-3.2314,-3.1643,-3.2345,-3.2702,-3.2547,-3.2718,-3.2773,-3.2827,-3.3043,-3.3203,-3.3256,-3.3642,-3.3751,-3.3691,-3.3712,-3.3697,0.0,0.0,0.0,0.0,0.0,0.0,0.0,-3.202,-3.1718,-3.1001,-2.9052,-2.7319,-2.5469,-2.2863,-2.0791,-1.9182,-1.8266,-1.7819,-1.7674,-1.7674,-1.7056,-1.6205,-1.5503,-1.441,-1.3434,-1.2765,-1.3365,-1.4543,-1.661,-1.8081,-2.0218,-2.3827,-2.4706,-2.6104,-2.8836,-3.1514,-3.4311,-3.7297,-4.0165,-4.2745,-4.4949,-4.6807,-4.868,-5.0626,-5.0881,-5.1386,-5.2371,-5.1366,-5.0521,-4.9884,-4.9841,-4.9984,-5.0326,-5.026,-5.0877,-5.2009,-5.0671,-4.8893,-4.678,-4.4601,-4.3441,-4.2956,-4.2215,-4.2375,-4.2899,-4.1231,-4.2065,-4.4178,-4.3227,-4.4097,-4.5566,0.0,0.0,0.0,0.0,0.0,0.0,0.0,0.0,-3.8248,-3.7706,-3.7398,-3.7016,-3.6302,-3.6225,0.0,0.0,-3.5844,-3.5318,-3.4398,-3.4153,-3.3339,-3.1702,-3.1659,-3.1783,-3.2111,-3.2948,-3.3201,-3.2978,-3.3296,-3.3003,-3.2351,-3.277,-3.3222,-3.3536,-3.3644,-3.3941,-3.4419,-3.4176,-3.4174,-3.4317,-3.4331,-3.43,-3.4333,-3.4071,-3.3973,-3.3874,-3.3201,0.0,0.0,0.0,0.0,0.0,0.0,0.0,-3.1019,-3.0235,-2.8618,-2.6569,-2.4378,-2.2635,-2.1056,-1.983,-1.9534,-1.9496,-1.8843,-1.876,-1.8391,-1.707,-1.5863,-1.5249,-1.6005,-1.7401,-1.9443,-2.2767,-2.4832,-2.6967,-2.9711,-3.1274,-3.2736,-3.4562,-3.6683,-3.8986,-4.1425,-4.3501,-4.5475,-4.7391,-4.8662,-5.0105,-5.1791,-5.1624,-5.1953,-5.3006,-5.193,-5.1286,-5.106,-5.0557,-5.0638,-5.1229,-5.0523,-5.0316,-5.0474,-4.9393,-4.7658,-4.5335,-4.3909,-4.3415,-4.3351,-4.2264,-4.215,-4.2587,-4.1471,-4.2329,-4.3943,-4.3103,-4.4294,-4.6245,0.0,0.0,0.0,0.0,0.0,0.0,0.0,0.0,0.0,-3.8494,-3.8277,-3.7826,-3.6617,-3.6395,-3.631,0.0,0.0,0.0,-3.4839,-3.4607,-3.3859,-3.2536,-3.2719,-3.2669,-3.2255,-3.3697,-3.3909,-3.287,-3.3828,-3.399,-3.331,-3.3566,-3.395,-3.4398,-3.4514,-3.5025,-3.5837,-3.5221,-3.5132,-3.5399,-3.4985,-3.4802,-3.475,-3.4154,-3.3955,-3.3856,-3.2994,-3.2741,-3.2752,-3.2385,0.0,0.0,0.0,0.0,-3.0742,-3.1218,-2.9689,-2.7537,-2.6261,-2.4732,-2.3096,-2.1595,-2.1556,-2.1549,-2.0609,-2.1011,-2.1169,-1.9663,-1.8218,-1.7788,-1.9459,-2.1897,-2.4909,-2.8919,-3.152,-3.3736,-3.5702,-3.7474,-3.8902,-3.9589,-4.1119,-4.2969,-4.5097,-4.6353,-4.7662,-4.9139,-5.0196,-5.1239,-5.2373,-5.2219,-5.2569,-5.3623,-5.2605,-5.2045,-5.2023,-5.1477,-5.1269,-5.1456,-5.0562,-4.9487,-4.8271,-4.7958,-4.6756,-4.4886,-4.4071,-4.3756,-4.3721,-4.2426,-4.1834,-4.1818,-4.1614,-4.2233,-4.3403,-4.3027,-4.4822,-4.7257,0.0,0.0,0.0,0.0,0.0,0.0,0.0,0.0,0.0,0.0,-3.8226,-3.754,-3.6589,-3.6602,-3.6602,-3.6485,-3.6402,-3.6326,-3.6061,0.0,0.0,-3.507,-3.4553,-3.4376,-3.4705,-3.4985,-3.4718,-3.3996,-3.4231,-3.4051,-3.3412,-3.4126,-3.4136,-3.3678,-3.4445,-3.4823,-3.497,-3.4967,-3.5091,-3.5232,-3.5304,-3.5453,-3.5633,-3.5397,-3.5408,-3.5294,-3.3811,-3.3262,-3.3161,-3.2269,-3.1779,0.0,0.0,0.0,-3.1942,-3.0605,-3.0072,-2.9507,-2.7671,-2.6008,-2.4493,-2.3256,-2.3167,-2.3546,-2.3899,-2.4105,-2.4247,-2.432,-2.3289,-2.2448,-2.2934,-2.736,-3.1613,-3.3835,-3.6776,-3.9335,-4.1128,-4.1736,-4.267,-4.4501,-4.5156,-4.5977,-4.728,-4.8491,-4.9369,-4.975,-5.131,-5.2536,-5.3307,-5.3621,-5.3881,-5.4188,-5.3739,-5.2967,-5.1821,-5.2587,-5.2388,-5.1214,-5.0681,-4.9694,-4.8271,-4.8395,-4.7761,-4.6498,-4.5605,-4.5203,-4.5155,-4.3492,-4.2849,-4.275,-4.2327,-4.3093,-4.4461,-4.4743,-4.6069,-4.7758,0.0,0.0,0.0,0.0,0.0,0.0,0.0,0.0,0.0,0.0,0.0,-3.8049,-3.6911,-3.6725,-3.6684,-3.665,-3.665,-3.6609,-3.6451,-3.5682,-3.5283,-3.5462,-3.5194,-3.5077,-3.5206,-3.5572,-3.5436,-3.4695,-3.4772,-3.4281,-3.3269,-3.3547,-3.3862,-3.4229,-3.4742,-3.5474,-3.6299,-3.5902,-3.6137,-3.661,-3.6242,-3.6156,-3.6241,-3.6199,-3.5924,-3.5449,-3.426,-3.3407,-3.2727,-3.1981,-3.155,-3.1366,-3.1931,0.0,0.0,0.0,-3.0991,-3.067,-2.8412,-2.6886,-2.5881,-2.5401,-2.5561,-2.5709,-2.5435,-2.6324,-2.7051,-2.619,-2.7868,-2.9173,-2.8261,-3.1791,-3.5677,-3.8331,-4.0674,-4.2833,-4.4742,-4.5061,-4.5655,-4.7158,-4.7442,-4.7893,-4.8844,-4.9469,-5.0244,-5.1288,-5.2108,-5.3014,-5.4119,-5.4104,-5.4178,-5.444,-5.4272,-5.3686,-5.2783,-5.3323,-5.3019,-5.1843,-5.1587,-5.0485,-4.8604,-5.0051,-4.9314,-4.6832,-4.6017,-4.5624,-4.5502,-4.3848,-4.3184,-4.2975,-4.3266,-4.3566,-4.39,-4.4888,-4.5896,-4.696,0.0,0.0,0.0,0.0,0.0,0.0,0.0,0.0,0.0,0.0,0.0,-3.8629,-3.7386,0.0,0.0,0.0,-3.6771,-3.6731,-3.6655,-3.6252,-3.5976,-3.5893,-3.5976,-3.5863,-3.5584,-3.6132,-3.5877,-3.4788,-3.4995,-3.4243,-3.274,-3.2808,-3.3194,-3.3967,-3.4391,-3.5339,-3.6559,-3.6305,-3.6457,-3.6852,-3.6551,-3.6272,-3.6058,-3.6103,-3.5859,-3.5405,-3.4233,-3.3451,-3.2814,-3.1888,-3.147,-3.1457,-3.1964,-3.2604,0.0,0.0,0.0,-3.1399,-2.9162,-2.8296,-2.7826,-2.7324,-2.7765,-2.8158,-2.7262,-2.87,-2.9898,-2.88,-3.2099,-3.4904,-3.3835,-3.6067,-3.8916,-4.1524,-4.3413,-4.5177,-4.6967,-4.721,-4.7642,-4.8808,-4.8965,-4.9316,-5.0087,-5.0289,-5.0967,-5.2422,-5.2745,-5.3424,-5.4647,-5.4477,-5.4422,-5.4572,-5.4688,-5.4456,-5.3708,-5.3754,-5.3391,-5.252,-5.2375,-5.1339,-4.954,-5.1748,-5.0812,-4.754,-4.6939,-4.6353,-4.5795,-4.437,-4.3704,-4.3487,-4.4127,-4.411,-4.3979,-4.5083,-4.597,-4.6861,0.0,0.0,0.0,0.0,0.0,0.0,0.0,0.0,0.0,0.0,0.0,-3.8965,-3.8041,-3.7386,-3.693,-3.6811,-3.6725,-3.6725,-3.6776,-3.7094,-3.7246,-3.7206,-3.7283,0.0,-3.6741,-3.6655,-3.5723,-3.3951,-3.4597,-3.3733,-3.1504,-3.2261,-3.2222,-3.1637,-3.2727,-3.3522,-3.4163,-3.5218,-3.5153,-3.448,-3.5448,-3.5308,-3.453,-3.4721,-3.5289,-3.5674,-3.3567,-3.3464,-3.4077,-3.2101,-3.1694,-3.202,-3.202,-3.2505,-3.3055,0.0,0.0,0.0,-3.016,-3.0543,-3.0831,-2.8748,-2.9589,-3.0855,-3.0303,-3.1498,-3.2966,-3.3828,-3.5977,-3.8059,-3.9246,-4.0652,-4.1911,-4.2807,-4.4641,-4.6325,-4.7332,-4.7463,-4.8108,-4.9727,-4.9969,-5.0331,-5.1121,-5.1281,-5.1667,-5.2533,-5.3319,-5.4032,-5.4661,-5.5093,-5.5084,-5.4516,-5.536,-5.531,-5.4158,-5.3801,-5.3448,-5.3043,-5.2891,-5.2171,-5.1152,-5.3038,-5.2192,-4.9222,-4.9068,-4.8167,-4.6687,-4.5529,-4.49,-4.4582,-4.4827,-4.5153,-4.5472,-4.605,-4.7075,-4.8255,0.0,0.0,0.0,0.0,0.0,0.0,0.0,0.0,0.0,0.0,0.0,0.0,0.0,-3.752,-3.697,-3.6643,-3.636,-3.6199,-3.6207,-3.6291,-3.634,-3.6374,-3.6545,-3.6504,0.0,-3.6409,-3.56,-3.3646,-3.3726,-3.2904,-3.1249,-3.0375,-3.0333,-3.1044,-3.1602,-3.227,-3.3088,-3.3407,-3.3648,-3.3882,-3.4362,-3.4288,-3.3957,-3.4644,-3.448,-3.3856,-3.3748,-3.319,-3.2533,-3.2336,-3.2266,-3.2266,-3.2403,-3.3034,-3.3706,-3.3875,-3.3256,-3.2457,-3.1921,-3.236,-3.2694,-3.1278,-3.1484,-3.2089,-3.2239,-3.2978,-3.3955,-3.5082,-3.7031,-3.8902,-4.0072,-4.1503,-4.2795,-4.3728,-4.5155,-4.6608,-4.8059,-4.8269,-4.8932,-5.0678,-5.0918,-5.1035,-5.1269,-5.1352,-5.1971,-5.3338,-5.3633,-5.4233,-5.5432,-5.5352,-5.5298,-5.5314,-5.5771,-5.5896,-5.5841,-5.4957,-5.4293,-5.3747,-5.4042,-5.3353,-5.1894,-5.3954,-5.3291,-5.0365,-5.0903,-4.9524,-4.6742,-4.5795,-4.5367,-4.5306,-4.5107,-4.5448,-4.6128,-4.6254,-4.6942,-4.7751,0.0,0.0,0.0,0.0,0.0,-4.2561,-4.2392,0.0,0.0,0.0,0.0,0.0,0.0,0.0,-3.7256,-3.626,-3.6028,-3.5864,-3.582,-3.583,-3.5916,-3.6002,-3.6096,-3.6096,-3.595,-3.6199,-3.5496,-3.3854,-3.3575,-3.2749,-3.1308,-3.002,-2.9835,-3.0601,-3.0623,-3.1133,-3.1953,-3.227,-3.2462,-3.2652,-3.3214,-3.3066,-3.2686,-3.3528,-3.3373,-3.2754,-3.296,-3.2659,-3.2152,-3.2301,-3.2369,-3.2437,-3.2766,-3.3462,-3.4282,-3.4833,-3.4412,-3.3846,-3.4021,-3.4463,-3.4634,-3.359,-3.3488,-3.3602,-3.3594,-3.3987,-3.4774,-3.6012,-3.778,-3.9514,-4.0932,-4.22,-4.3297,-4.4106,-4.5174,-4.6561,-4.8304,-4.8607,-4.9298,-5.1157,-5.1386,-5.1369,-5.1328,-5.159,-5.2363,-5.3749,-5.4024,-5.4638,-5.5788,-5.5455,-5.5493,-5.6086,-5.6251,-5.6483,-5.6927,-5.5964,-5.5294,-5.4834,-5.4975,-5.4467,-5.3574,-5.516,-5.4255,-5.1483,-5.2267,-5.0614,-4.7391,-4.6665,-4.6247,-4.6143,-4.5783,-4.6062,-4.6612,-4.6549,-4.703,-4.7847,0.0,-4.356,-4.2853,-4.3435,-4.359,-4.3673,-4.3673,-4.4107,-4.4555,-4.4721,0.0,0.0,0.0,0.0,0.0,-3.5791,-3.58,-3.581,-3.5588,-3.5916,-3.6138,-3.6138,-3.6104,-3.6061,-3.6071,-3.5994,-3.5445,-3.4472,-3.433,-3.3339,-3.1613,-3.1386,-3.0937,-3.0248,-2.9924,-3.0107,-3.0716,-3.1833,-3.1651,-3.0675,-3.1947,-3.1692,-3.0608,-3.121,-3.1918,-3.2427,-3.1234,-3.1871,-3.3138,-3.1938,-3.195,-3.2573,-3.305,-3.3834,-3.4752,0.0,-3.5616,-3.5663,0.0,0.0,0.0,-3.5578,-3.5641,-3.5643,-3.4501,-3.4641,-3.5438,-3.6934,-3.8395,-4.0068,-4.221,-4.3106,-4.3618,-4.3859,-4.487,-4.6247,-4.8059,-4.84,-4.9174,-5.1073,-5.1367,-5.1362,-5.1307,-5.209,-5.2922,-5.373,-5.4529,-5.5249,-5.5768,-5.547,-5.577,-5.6668,-5.6825,-5.7116,-5.751,-5.6704,-5.6333,-5.6283,-5.5559,-5.5553,-5.609,-5.6516,-5.5136,-5.251,-5.3028,-5.1455,-4.8453,-4.7903,-4.7515,-4.7296,-4.7002,-4.6943,-4.6895,-4.6895,-4.7808,-4.8789,-4.4507,-4.4504,-4.4232,-4.3668,-4.4222,-4.4741,-4.4782,-4.488,-4.5024,0.0,0.0,0.0,-4.1972,-3.9772,-3.7694,-3.5904,-3.5885,-3.5699,-3.4977,-3.4673,-3.4721,-3.5098,-3.5442,-3.5531,-3.5283,-3.6215,-3.6,-3.4576,-3.4685,-3.385,-3.2015,-3.149,-3.1124,-3.0965,-3.0419,-3.046,-3.0965,-3.075,-3.0379,-2.9989,-3.0293,-2.9999,-2.9425,-3.0132,-3.0222,-3.0085,-3.0892,-3.1266,-3.1487,-3.1948,-3.2335,-3.277,-3.3268,-3.4126,0.0,0.0,0.0,0.0,-3.7395,0.0,0.0,0.0,0.0,0.0,-3.6594,-3.6121,-3.6273,-3.7869,-3.9118,-4.048,-4.2389,-4.3697,-4.4386,-4.4285,-4.5026,-4.6212,-4.7993,-4.832,-4.9107,-5.093,-5.125,-5.1316,-5.1308,-5.2088,-5.2922,-5.3731,-5.449,-5.5195,-5.5827,-5.5924,-5.6209,-5.6776,-5.7069,-5.7513,-5.806,-5.7401,-5.6812,-5.6191,-5.5994,-5.5637,-5.5315,-5.54,-5.423,-5.1884,-5.1831,-5.0124,-4.7401,-4.7235,-4.7191,-4.7224,-4.6276,-4.6303,-4.681,-4.6398,-4.7336,-4.8659,-4.5688,-4.5539,-4.5156,-4.4849,-4.5409,-4.5965,-4.6332,-4.6617,-4.6835,0.0,0.0,0.0,-4.2546,-4.0457,-3.8581,-3.6928,-3.64,-3.5971,-3.5538,-3.4758,-3.4741,-3.5685,-3.5972,-3.6161,-3.6336,-3.7091,-3.6904,-3.5779,-3.5553,-3.4923,-3.3862,-3.3102,-3.28,-3.2859,-3.2421,-3.2383,-3.2639,-3.1749,-3.075,-2.9826,-2.9793,-2.9438,-2.8951,-2.936,-2.9265,-2.9013,-2.9891,-3.0426,-3.0763,-3.1079,-3.1547,-3.2247,-3.3247,-3.3923,-3.4661,-3.6224,0.0,0.0,0.0,0.0,-3.9373,-3.8878,0.0,0.0,-3.7515,-3.6945,-3.682,-3.7916,-3.91,-4.0472,-4.2265,-4.3593,-4.4483,-4.4599,-4.511,-4.5974,-4.7353,-4.8021,-4.8934,-5.0407,-5.1023,-5.1326,-5.1359,-5.2081,-5.2935,-5.3721,-5.4478,-5.5165,-5.5789,-5.6129,-5.6565,-5.7088,-5.7454,-5.7931,-5.8498,-5.8006,-5.7447,-5.7012,-5.6454,-5.6047,-5.5784,-5.4867,-5.3367,-5.1537,-5.0762,-4.9075,-4.686,-4.6512,-4.6578,-4.6854,-4.6242,-4.6115,-4.6303,-4.6007,-4.7162,-4.879,0.0,-4.6654,-4.6012,-4.6477,-4.6852,-4.7338,0.0,-4.8831,-4.9419,0.0,-4.8877,-4.7052,-4.3456,-4.1719,-4.0143,-3.8585,-3.7407,-3.6734,-3.6705,-3.5793,-3.5845,-3.7215,-3.7215,-3.7554,-3.8383,-3.832,-3.8076,-3.765,-3.6861,0.0,0.0,0.0,-3.5205,-3.5227,-3.5101,-3.5034,-3.4963,-3.4021,-3.2386,-3.0435,-3.0234,-2.9717,-2.9028,-2.8982,-2.8904,-2.8793,-2.8725,-2.9469,-3.0353,-2.9868,-3.0451,-3.1597,-3.3172,-3.3621,-3.4137,-3.6545,-3.7348,0.0,0.0,0.0,0.0,-4.0081,-3.958,0.0,-3.7865,-3.7414,-3.726,-3.7509,-3.8609,-4.0056,-4.1759,-4.3018,-4.3978,-4.457,-4.501,-4.5592,-4.6493,-4.7587,-4.8684,-4.9776,-5.0774,-5.1406,-5.1406,-5.214,-5.2952,-5.374,-5.4569,-5.5194,-5.5686,-5.6127,-5.6709,-5.7506,-5.7834,-5.8276,-5.8868,-5.8406,-5.8103,-5.7887,-5.6743,-5.6281,-5.6413,-5.4398,-5.2581,-5.0975,-4.9738,-4.8174,-4.6441,-4.5916,-4.5912,-4.6349,-4.6441,-4.6032,-4.5608,-4.5662,-4.7267,-4.9,-4.7938,-4.812,-4.8011,-4.6848,-4.7882,-4.8995,0.0,-5.0151,-5.0783,-5.0972,-4.9452,-4.7587,-4.5574,-4.3756,-4.1868,-3.9877,-3.9181,-3.8425,-3.7551,-3.7545,-3.7679,-3.7883,-3.8203,-3.8714,-3.947,-3.893,-3.883,-3.917,-3.8719,0.0,0.0,0.0,0.0,-3.5964,-3.5936,-3.5964,-3.6021,-3.5805,-3.4764,-3.3095,-3.1317,-3.0261,-2.974,-2.9451,-2.8876,-2.8278,-2.8672,-2.8772,-2.8938,-3.0011,-3.1265,-3.2403,-3.3013,-3.4346,-3.5951,-3.7091,-3.804,-3.8963,-4.0027,-4.0389,-4.0492,-4.0565,-4.0498,0.0,-3.9226,-3.8453,-3.7921,-3.7974,-3.8191,-3.8822,-4.0482,-4.1594,-4.2441,-4.3094,-4.3981,-4.507,-4.6474,-4.7619,-4.8662,-4.9714,-5.0692,-5.132,-5.1405,-5.2177,-5.2986,-5.374,-5.4978,-5.5711,-5.5724,-5.5723,-5.6295,-5.7606,-5.7529,-5.8031,-5.9215,-5.8702,-5.7839,-5.6576,-5.5773,-5.462,-5.3107,-5.2533,-5.0982,-4.8874,-4.849,-4.7227,-4.5445,-4.5391,-4.5497,-4.5741,-4.5915,-4.5723,-4.5361,-4.6419,-4.7978,-4.956,-4.83,-4.8925,-4.9258,-4.8451,0.0,0.0,0.0,-5.1565,-5.1937,-5.2119,-5.0713,-4.9269,-4.8114,-4.6957,-4.5658,-4.4175,-4.2988,-4.1902,-4.0931,-4.0152,-3.9988,-4.0745,-4.0631,-4.1086,-4.2193,-4.1489,-4.1036,-4.0933,0.0,0.0,0.0,0.0,0.0,-3.8192,-3.8075,-3.8051,-3.8075,-3.7505,-3.6779,-3.5828,-3.3106,-3.1428,-3.0456,-3.0009,-2.9189,-2.8372,-2.8559,-2.8786,-2.9152,-3.0948,-3.1924,-3.2606,-3.3715,-3.4632,-3.5538,-3.7309,-3.8214,-3.893,-4.023,-4.068,-4.0759,-4.0818,-4.085,0.0,0.0,-3.915,-3.8804,-3.8741,-3.8714,-3.9204,-4.0886,-4.1587,-4.2159,-4.2976,-4.354,-4.4167,-4.495,-4.6629,-4.8153,-4.9137,-5.0127,-5.0884,-5.1367,-5.1779,-5.248,-5.3608,-5.5072,-5.5904,-5.5865,-5.5703,-5.6098,-5.7096,-5.6968,-5.7245,-5.8051,-5.7635,-5.6836,-5.5534,-5.4943,-5.3737,-5.2027,-5.1296,-4.9913,-4.8074,-4.7341,-4.6226,-4.5138,-4.5202,-4.524,-4.533,-4.5715,-4.5738,-4.5587,-4.6599,-4.8395,-5.019,-4.927,-4.9899,-5.0343,-5.0195,0.0,0.0,0.0,-5.3051,-5.3273,-5.3639,-5.2563,-5.1452,-5.0599,-4.9899,-4.9119,-4.8196,-4.6687,-4.5405,-4.4565,-4.336,-4.3135,-4.4183,-4.3646,-4.3959,-4.53,-4.4247,-4.3415,-4.2853,0.0,0.0,0.0,0.0,0.0,-4.0462,-4.0138,-4.0002,-3.9926,-3.9012,-3.8577,-3.8296,-3.5499,-3.3273,-3.1597,-3.0925,-2.9942,-2.8834,-2.8713,-2.9074,-2.9904,-3.1821,-3.2408,-3.258,-3.4366,-3.4686,-3.4866,-3.7204,-3.8042,-3.8558,-4.0178,-4.0758,-4.0939,-4.1007,-4.0962,-4.078,0.0,0.0,0.0,-3.9841,-3.9647,-3.9918,-4.1452,-4.1615,-4.1846,-4.2721,-4.3044,-4.3149,-4.3092,-4.5084,-4.6956,-4.8078,-4.915,-5.0156,-5.1012,-5.1308,-5.1969,-5.3222,-5.4757,-5.5615,-5.5635,-5.5668,-5.5938,-5.6563,-5.6431,-5.6467,-5.6739,-5.6443,-5.5729,-5.452,-5.3979,-5.2831,-5.1213,-5.0284,-4.9096,-4.7632,-4.6572,-4.5747,-4.5138,-4.516,-4.5157,-4.5176,-4.5868,-4.6137,-4.6173,-4.7011,-4.8836,-5.0915,-5.212,-5.2271,-5.2085,-5.1342,0.0,0.0,0.0,-5.4613,-5.5469,-5.6326,-5.5187,-5.3837,-5.2524,-5.1036,-4.9666,-4.8709,-4.8162,-4.7422,-4.6477,-4.7415,-4.7623,-4.6723,-4.6701,-4.7159,-4.8018,-4.5886,-4.4729,-4.4789,-4.3907,0.0,0.0,0.0,0.0,-4.1395,-4.0649,-4.0321,-4.0317,-4.0136,-4.0043,-3.991,-3.8487,-3.641,-3.3985,-3.2862,-3.1311,-2.9721,-2.9412,-2.9584,-3.028,-3.1788,-3.2416,-3.2774,-3.4002,-3.4908,-3.5715,-3.6802,-3.77,-3.8578,-3.955,-4.0405,-4.0973,-4.1013,-4.0984,-4.1128,-4.1675,0.0,-4.0857,-4.1479,0.0,-3.977,-4.0682,0.0,0.0,-4.0881,-4.1686,-4.219,-4.2103,-4.3045,-4.4403,-4.6172,-4.7849,-4.916,-4.9997,-5.1253,-5.2128,-5.233,-5.3687,-5.4446,-5.4402,-5.5125,-5.5834,-5.6469,-5.6331,-5.6343,-5.6629,-5.6211,-5.5053,-5.3239,-5.2678,-5.1163,-4.8811,-4.9253,-4.8413,-4.6677,-4.6906,-4.6432,-4.5441,-4.5552,-4.5525,-4.5352,-4.6469,-4.6771,-4.6907,-4.8425,-4.9954,-5.1251,-5.2517,-5.2522,-5.2711,-5.2375,0.0,0.0,-5.4836,-5.5728,-5.6544,-5.7092,-5.6657,-5.6053,-5.5475,-5.4824,-5.388,-5.2435,-5.2247,-5.1398,-4.9494,-5.0031,0.0,-4.9719,-4.9358,-4.9557,-5.0397,-4.8537,-4.7297,-4.6916,-4.6513,-4.5494,0.0,0.0,0.0,-4.2495,-4.2171,-4.2017,-4.2056,-4.2508,-4.2701,-4.264,-4.2117,-4.0902,-3.8954,-3.5436,-3.2976,-3.1329,-3.0771,-3.125,-3.2259,-3.3019,-3.3797,-3.4554,-3.5047,-3.5864,-3.6752,-3.7561,-3.8486,-3.9403,-4.0232,-4.07,-4.0902,-4.0861,-4.1146,-4.1524,-4.1751,-4.1889,-4.2024,-4.2309,0.0,0.0,0.0,0.0,0.0,0.0,-4.2311,-4.2327,-4.1754,-4.2331,-4.3422,-4.4982,-4.6298,-4.7611,-4.8893,-4.9846,-5.0604,-5.118,-5.2141,-5.287,-5.3307,-5.3632,-5.3887,-5.3974,-5.4163,-5.3887,-5.3237,-5.3645,-5.3017,-5.1286,-5.1032,-5.023,-4.8951,-4.8557,-4.8038,-4.737,-4.6705,-4.6196,-4.5895,-4.6102,-4.6281,-4.6652,-4.7788,-4.7932,-4.7631,-4.8652,-5.0283,-5.1959,-5.4138,-5.3887,-5.4081,-5.4081,-5.509,-5.6026,-5.6286,-5.7105,-5.7808,-5.7942,-5.7655,-5.7415,-5.7384,-5.7089,-5.6273,-5.48,-5.4787,-5.4091,-5.2294,-5.2503,-5.2686,-5.2752,-5.2256,-5.2144,-5.2549,-5.1222,-5.0121,-4.9324,-4.9324,-4.826,0.0,0.0,0.0,0.0,-4.452,-4.4158,-4.395,-4.4538,-4.4785,-4.4761,-4.4785,-4.4183,-4.2748,-3.7867,-3.5091,-3.3738,-3.3034,-3.3184,-3.3844,-3.4338,-3.4939,-3.5538,-3.5816,-3.6645,-3.7652,-3.8279,-3.9413,-4.0574,-4.0921,-4.1262,-4.1474,-4.1082,-4.1545,-4.2079,-4.2159,-4.2585,-4.3061,-4.3156,-4.3079,0.0,0.0,0.0,-4.2825,-4.2736,0.0,-4.2468,-4.1684,-4.1791,-4.2386,-4.3529,-4.4804,-4.6032,-4.7152,-4.7928,-4.8655,-4.9335,-4.9898,-5.0551,-5.1413,-5.1575,-5.1624,-5.1668,-5.1962,-5.1565,-5.0464,-5.1347,-5.1083,-4.9766,-5.0,-4.978,-4.9161,-4.8464,-4.8149,-4.8063,-4.6946,-4.6364,-4.6372,-4.6645,-4.7066,-4.7651,-4.8777,-4.9117,-4.9029,-4.949,-5.0942,-5.2752,-5.8316,-5.7438,-5.6774,-5.6774,-5.6882,-5.7288,-5.8182,-5.9118,-5.9681,-5.954,-5.8337,-5.7476,-5.7422,-5.615,-5.4969,-5.4192,-5.4188,-5.4287,-5.44,-5.5209,-5.5671,-5.5691,-5.5692,-5.5364,-5.4516,-5.3721,-5.2901,-5.2167,-5.2098,-5.1633,0.0,0.0,0.0,0.0,-4.7791,-4.659,-4.5722,-4.5722,-4.5761,-4.5761,-4.5761,-4.522,-4.4003,-3.9853,-3.7811,-3.7053,-3.6479,-3.5353,-3.4345,-3.5379,-3.5249,-3.4811,-3.5622,-3.707,-3.8476,-3.8475,-4.0278,-4.2039,-4.1206,-4.2088,-4.3001,-4.2019,-4.2261,-4.2891,-4.3422,-4.3544,-4.3763,-4.4308,-4.3995,-4.3587,-4.3587,0.0,0.0,0.0,0.0,0.0,0.0,-4.1065,-4.0797,-4.1417,-4.3479,-4.4706,-4.4461,-4.5669,-4.6532,-4.6593,-4.6783,-4.7316,-4.8273,-4.89,-4.952,-5.024,-5.0273,-5.0095,-4.9649,-5.0056,-4.9835,-4.9049,-4.9959,-4.9756,-4.8668,-4.9405,-4.9126,-4.8105,-4.7887,-4.7372,-4.6609,-4.7386,-4.7724,-4.7898,-4.9146,-5.034,-5.1414,-5.1414,-5.2438,-5.3733,-6.0367,-5.9975,-5.9087,-5.7322,-5.751,-5.8257,-5.9156,-5.9605,-5.9824,-5.9885,-5.9482,-5.9041,-5.8597,-5.8154,-5.7161,-5.5324,-5.5742,-5.5923,-5.5534,-5.636,-5.7129,-5.771,-5.7799,-5.7373,-5.6449,-5.6195,-5.5087,-5.3141,-5.4289,-5.3553,-5.1087,0.0,0.0,0.0,-4.942,-4.8709,-4.8396,-4.8396,-4.872,-4.929,-4.9317,-4.9149,-4.8399,-4.3365,-4.1014,-4.0304,-3.9535,-3.8972,-3.8684,-3.9111,-3.911,-3.8944,-3.9254,-4.014,-4.1058,-4.1028,-4.2046,-4.3171,-4.3335,-4.3284,-4.3188,-4.323,-4.3349,-4.3384,-4.3341,-4.4207,-4.4992,-4.4998,-4.5415,-4.5688,-4.5669,0.0,0.0,0.0,0.0,0.0,0.0,-4.1906,-4.0866,-4.0732,-4.2121,-4.3208,-4.3595,-4.3882,-4.4338,-4.4884,-4.4748,-4.4994,-4.5751,-4.6354,-4.6765,-4.6996,-4.7803,-4.7927,-4.7275,-4.8609,-4.899,-4.8429,-4.9321,-4.9825,-4.9791,-4.9154,-4.8895,-4.8803,-4.7694,-4.7221,-4.7138,-4.7691,-4.8311,-4.8919,-5.0035,-5.1601,-5.2978,-5.1439,-5.221,-5.4221,-6.3079,-6.2492,-6.1334,-5.9269,-5.942,-5.9908,-6.0203,-6.0312,-6.034,-6.0469,-5.9756,-5.9226,-5.9136,-5.8514,-5.7566,-5.6346,-5.6502,-5.6752,-5.7033,-5.7521,-5.8234,-5.9148,-5.9241,-5.8814,-5.7931,-5.7906,-5.713,-5.5447,-5.6587,-5.6005,-5.3857,0.0,0.0,0.0,-5.2499,-5.1748,-5.1111,-5.1125,-5.1294,-5.1593,-5.1903,-5.2057,-5.1653,-4.7546,-4.4899,-4.3341,-4.248,-4.184,-4.1434,-4.1462,-4.1484,-4.1593,-4.1909,-4.2777,-4.3728,-4.3677,-4.4664,-4.5833,-4.5905,-4.5819,-4.574,-4.576,-4.562,-4.5483,-4.5406,-4.6006,-4.6555,-4.6605,-4.7117,-4.7554,-4.7495,-4.695,0.0,0.0,0.0,0.0,0.0,-4.2949,-4.1796,-4.1061,-4.1578,-4.2079,-4.2483,-4.2482,-4.2645,-4.3156,-4.2792,-4.2881,-4.3809,-4.412,-4.4541,-4.4991,-4.5838,-4.6186,-4.5835,-4.7519,-4.8225,-4.7993,-4.924,-4.9999,-5.0228,-4.9402,-4.9281,-4.9612,-4.8073,-4.7694,-4.8132,-4.8326,-4.8949,-4.9733,-5.0862,-5.2312,-5.3693,-5.2247,-5.3151,-5.5137,-6.626,-6.5057,-6.3588,-6.2432,-6.2249,-6.2019,-6.1212,-6.1235,-6.1267,-6.1261,-5.935,-5.8334,-5.9178,-5.7389,-5.6483,-5.7387,-5.6618,-5.6919,-5.8972,-5.8816,-5.9149,-6.0229,-6.0203,-5.9801,-5.8946,-5.9011,-5.8972,-5.8778,-5.8895,-5.8895,-5.8817,0.0,0.0,0.0,-5.6706,-5.5359,-5.3737,-5.374,-5.3288,-5.2589,-5.3443,-5.3813,-5.3701,-5.2095,-4.9401,-4.6376,-4.5351,-4.3993,-4.2724,-4.2695,-4.2683,-4.285,-4.37,-4.5083,-4.6364,-4.6337,-4.8017,-4.9692,-4.8811,-4.9539,-5.0274,-4.9312,-4.8909,-4.884,-4.9243,-4.8752,-4.8365,-4.8847,-4.9033,-4.9071,-4.9004,-4.8435,0.0,0.0,0.0,0.0,-4.449,-4.4072,-4.3463,-4.224,-4.1809,-4.1456,-4.1145,-4.1407,-4.1604,-4.156,-4.0918,-4.1134,-4.2449,-4.2392,-4.2888,-4.4192,-4.4541,-4.4872,-4.5389,-4.6837,-4.7651,-4.785,-4.9742,-5.0363,-4.993,-5.0114,-5.0283,-5.0359,-4.8979,-4.8857,-4.945,-4.9044,-4.9491,-5.0513,-5.1708,-5.2858,-5.3712,-5.4031,-5.511,-5.6556,-6.6459,-6.6167,-6.5117,-6.2829,-6.2353,-6.2053,-6.1354,-6.1305,-6.114,-6.0675,-6.0665,-6.0567,-6.0212,-6.0419,-6.0398,-5.9781,-5.988,-6.0414,-6.15,-6.1045,-6.1421,-6.2989,-6.1834,-6.1017,-6.081,-6.081,-6.0188,-5.8853,-5.9527,-5.9515,-5.8856,0.0,0.0,0.0,-5.7612,-5.6614,-5.5486,-5.4879,-5.4479,-5.4349,-5.4568,-5.4741,-5.4771,-5.4359,-5.3269,-5.1581,-4.8783,-4.7499,-4.7243,-4.7819,-4.8002,-4.8193,-4.9041,-4.9576,-4.9878,-4.9826,-5.0285,-5.0804,-5.1099,-5.0853,-5.0489,-5.0084,-4.9834,-4.9489,-4.8729,-4.9333,-4.9963,-4.9782,-5.0266,-5.0712,-5.0452,-4.9307,-4.8603,0.0,0.0,0.0,-4.4637,-4.4776,-4.4473,-4.2829,-4.2813,-4.2567,-4.1576,-4.1455,-4.138,-4.1233,-4.1292,-4.1426,-4.1545,-4.2362,-4.297,-4.3317,-4.3829,-4.4463,-4.5161,-4.6563,-4.7796,-4.871,-4.9885,-5.0453,-5.0418,-5.008,-5.0039,-5.0055,-4.905,-4.9088,-4.9789,-4.9488,-5.0125,-5.1329,-5.2171,-5.3622,-5.5425,-5.6206,-5.6592,-5.6915,-6.763,-6.7108,-6.5906,-6.4025,-6.3622,-6.3209,-6.2026,-6.1932,-6.1721,-6.0942,-6.1353,-6.1639,-6.1534,-6.2208,-6.2737,-6.2897,-6.2467,-6.2603,-6.3612,-6.2896,-6.2912,-6.4048,-6.3175,-6.2629,-6.2636,-6.2647,-6.2168,-6.1172,-6.1273,-6.1056,-6.054,0.0,0.0,0.0,-5.8894,-5.8181,-5.7285,-5.6809,-5.6641,-5.6718,-5.6753,-5.7001,0.0,-5.6636,-5.6284,-5.5857,-5.3143,-5.1669,-5.1096,-5.153,-5.1901,-5.2386,-5.3191,-5.3413,-5.339,-5.3313,-5.3543,-5.3871,-5.4241,-5.413,-5.3848,-5.3704,-5.3239,-5.2721,-5.2319,-5.2278,-5.2236,-5.1858,-5.2159,-5.227,-5.1632,-5.082,-5.0119,0.0,0.0,-4.7314,-4.6134,-4.5903,-4.545,-4.4426,-4.4222,-4.3721,-4.2518,-4.1735,-4.1244,-4.1093,-4.1415,-4.1563,-4.1485,-4.2522,-4.3183,-4.3427,-4.3839,-4.4463,-4.5407,-4.6783,-4.7958,-4.8862,-4.9885,-5.0397,-5.0397,-5.0228,-5.0193,-5.0325,-4.9479,-4.9796,-5.084,-5.0266,-5.091,-5.2518,-5.3793,-5.5159,-5.6694,-5.797,-5.8009,-5.7709,-6.8585,-6.7528,-6.6281,-6.5531,-6.5449,-6.4985,-6.3486,-6.3154,-6.2756,-6.1873,-6.2022,-6.249,-6.3206,-6.3625,-6.4424,-6.601,-6.4792,-6.4458,-6.577,-6.4782,-6.4381,-6.4909,-6.4608,-6.4481,-6.4616,-6.452,-6.4432,-6.4453,-6.3592,-6.3103,0.0,0.0,0.0,0.0,-6.0487,-5.989,-5.8969,-5.8972,-5.9011,-5.9099,-5.9259,-5.9805,-6.0325,-5.8964,-5.8866,-5.923,-5.7821,-5.6074,-5.4406,-5.4313,-5.4941,-5.5835,-5.6368,-5.6611,-5.6675,-5.6598,-5.7013,-5.7485,-5.7506,-5.7824,-5.8088,-5.7889,-5.721,-5.6645,-5.6904,-5.5799,-5.4552,-5.4163,-5.3944,-5.3532,-5.2594,-5.2294,-5.1664,-5.0076,-4.9001,-4.8258,-4.8028,-4.7125,-4.6416,-4.6194,-4.557,0.0,-4.3799,-4.23,-4.1429,-4.1279,-4.1636,-4.1903,-4.2118,-4.3002,-4.371,-4.4112,-4.4179,-4.472,-4.5942,-4.7229,-4.8189,-4.8851,-4.9866,-5.0354,-5.0287,-5.0385,-5.0638,-5.0994,-5.017,-5.0685,-5.2099,-5.126,-5.1911,-5.365,-5.5638,-5.6831,-5.7595,-5.9123,-5.9205,-5.892,-6.6361,-6.6407,-6.6605,-6.6452,-6.6476,-6.6689,-6.7131,-6.5291,-6.3787,-6.3723,-6.4355,-6.5091,-6.5779,-6.6842,-6.7577,-6.7553,-6.7716,-6.8199,-6.911,-6.782,-6.78,-6.9401,-6.7413,-6.6595,-6.7286,-6.6595,-6.6234,-6.6223,-6.5377,0.0,0.0,0.0,0.0,0.0,-6.256,-6.1394,-5.9944,-5.9943,-5.9988,-6.0117,-6.0867,-6.1276,-6.1495,-6.1872,-6.1676,-6.1299,-6.1586,-5.9708,-5.7011,-5.6873,-5.7871,-5.9047,-5.8444,-5.8738,-5.9304,-5.9181,-5.8797,-5.849,-5.9027,-5.871,-5.8004,-5.7196,-5.7225,-5.7082,-5.5632,-5.5486,-5.5333,-5.4167,-5.387,-5.3641,-5.3171,-5.2333,-5.1438,-5.0446,-4.9565,-4.8794,-4.8016,-4.7752,-4.7093,-4.5671,-4.5838,-4.5672,-4.4671,-4.3464,-4.2652,-4.2358,-4.277,-4.3251,-4.3803,-4.4453,-4.4878,-4.5015,-4.4708,-4.5234,-4.6551,-4.7346,-4.836,-4.9539,-5.009,-5.054,-5.0838,-5.0496,-5.0811,-5.1631,-5.1026,-5.1321,-5.2213,-5.2343,-5.3284,-5.48,-5.5713,-5.6807,-5.8004,-5.8653,-5.9389,-6.0236,-6.7072,-6.7148,-6.7485,-6.7476,-6.7535,-6.786,-6.8828,-6.7697,-6.6438,-6.5647,-6.6583,-6.7445,-6.7807,-6.9621,-7.0796,-7.0758,-7.067,-7.087,-7.1452,-7.0409,-7.02,-7.1193,-6.9634,-6.8933,-6.9323,-6.8933,-6.8504,-6.8037,-6.7647,0.0,0.0,0.0,0.0,-6.4027,-6.3625,-6.3249,-6.2896,-6.2908,-6.3175,-6.3652,-6.4112,-6.4587,-6.4999,-6.4951,-6.4955,-6.495,-6.4831,-6.4009,-6.269,-6.0798,-6.0988,-6.1927,-6.1436,-6.1595,-6.1908,-6.1795,-6.1466,-6.1193,-6.1472,-6.1212,-6.0642,-5.9676,-5.9573,-5.934,-5.7886,-5.7056,-5.6262,-5.4984,-5.4243,-5.3528,-5.2642,-5.1658,-5.0727,-4.9925,-4.9445,-4.8894,-4.8011,-4.8587,-4.8617,-4.7384,-4.788,-4.7753,-4.644,-4.5674,-4.4796,-4.3703,-4.3968,-4.4321,-4.457,-4.5147,-4.5459,-4.5441,-4.5466,-4.5952,-4.6812,-4.7775,-4.8626,-4.9338,-5.0092,-5.0641,-5.0901,-5.1196,-5.1761,-5.2469,-5.1925,-5.2501,-5.3821,-5.4429,-5.5131,-5.6041,-5.731,-5.8009,-5.8319,-5.9562,-6.024,-6.0782,-6.831,-6.8148,-6.8282,-6.8474,-6.8531,-6.896,-7.0105,-6.9903,-6.9191,-6.8042,-6.8699,-6.948,-6.989,-7.1669,-7.3001,-7.342,-7.2944,-7.2844,-7.3379,-7.2633,-7.2288,-7.2596,-7.1856,-7.1427,-7.1427,-7.1427,-7.1076,-7.0375,-7.018,-6.939,-6.8043,0.0,0.0,-6.4881,-6.4726,-6.501,-6.5706,-6.5873,-6.6381,-6.7025,-6.7253,-6.7773,-6.8314,-6.7598,-6.7725,-6.8182,-6.7409,-6.7567,-6.7709,-6.487,-6.4411,-6.486,-6.4366,-6.4348,-6.4443,-6.4149,-6.3951,-6.3731,-6.3661,-6.346,-6.3078,-6.2336,-6.183,-6.1239,-6.0038,-5.8445,-5.6857,-5.55,-5.4429,-5.3302,-5.2004,-5.128,-5.0538,-4.9549,-4.9362,-4.9023,-4.8224,-4.9082,-4.9662,-4.9132,-4.9662,-4.9655,-4.8532,-4.8019,-4.7303,-4.606,-4.5503,-4.5211,-4.522,-4.581,-4.6079,-4.6047,-4.6462,-4.7015,-4.763,-4.8571,-4.9274,-4.9677,-5.0592,-5.1192,-5.1562,-5.232,-5.2977,-5.3545,-5.3296,-5.4129,-5.577,-5.6482,-5.6902,-5.7263,-5.8989,-5.9253,-5.8969,-6.0484,-6.1175,-6.1309,-6.8369,-6.8177,-6.8474,-6.9299,-6.9459,-7.0067,-7.1852,-7.1364,-7.0892,-7.136,-7.0681,-7.0806,-7.2556,-7.24,-7.2596,-7.3572,-7.3712,-7.4169,-7.5094,-7.4334,-7.432,-7.5285,-7.4521,-7.4041,-7.4038,-7.4038,-7.3999,-7.3921,-7.3142,-7.2674,-7.2479,0.0,-6.9195,-6.7498,-6.6786,-6.6513,-6.663,-6.7482,-6.7871,-6.8041,-6.8825,-6.9205,-6.9269,-6.9107,-6.9089,-6.9156,-6.902,-6.8914,-6.8839,-6.8428,-6.8354,-6.8141,-6.6436,-6.6411,-6.6852,-6.5967,-6.5149,-6.4547,-6.4424,-6.3796,-6.3156,-6.2946,-6.2194,-6.1027,-5.9315,-5.7964,-5.6568,-5.4715,-5.3831,-5.2978,-5.1834,-5.2025,-5.19,-5.0242,-5.0025,-4.9735,-4.8931,-4.8931,-4.9003,-4.8931,-4.9619,-5.0262,-5.0751,-5.0091,-4.992,-5.0677,-4.7501,-4.5843,-4.6518,-4.7156,-4.747,-4.7442,-4.7736,-4.8603,-5.0084,-4.9976,-5.0562,-5.1908,-5.22,-5.2839,-5.3866,-5.3741,-5.4194,-5.4979,-5.5413,-5.6201,-5.7069,-5.7339,-5.7807,-5.8525,-5.9274,-5.9929,-6.0391,-6.0615,-6.1489,-6.2571,-6.9894,-7.0604,-7.1343,-7.1245,-7.1645,-7.2456,-7.3779,-7.3562,-7.3532,-7.4379,-7.31,-7.2234,-7.258,-7.3779,-7.459,-7.4651,-7.5177,-7.5972,-7.6949,-7.6241,-7.6193,-7.7092,-7.5872,-7.5144,-7.5132,-7.5156,-7.4934,-7.4388,-7.4583,-7.4116,-7.3103,-7.2929,-7.1653,-6.9479,-6.869,-6.83,-6.8397,-6.9284,-6.9946,-7.0469,-7.0831,-7.0961,-7.0993,-7.1477,-7.1282,-7.087,-7.1317,-7.1457,-7.1381,-7.1221,-7.0157,-6.8704,-6.7922,-6.7895,-6.8043,-6.76,-6.7154,-6.6845,-6.6792,-6.6112,-6.529,-6.4642,-6.3762,-6.2574,-6.0784,-5.9533,-5.8212,-5.6246,-5.4387,-5.2858,-5.1791,-5.1726,-5.1402,-5.0315,-5.0488,-5.0524,-4.9727,-5.046,-5.1165,-5.1217,-5.1632,-5.2003,-5.2339,-5.1559,-5.1055,-5.1083,-4.8815,-4.7635,-4.8003,-4.8018,-4.7951,-4.7745,-4.8487,-4.9373,-5.0263,-5.0541,-5.1183,-5.2218,-5.3149,-5.3845,-5.4402,-5.5035,-5.5547,-5.607,-5.7248,-5.7861,-5.8046,-5.8776,-5.9379,-5.9981,-6.0804,-6.1469,-6.1937,-6.2477,-6.3136,-6.3877,-7.1641,-7.2582,-7.3283,-7.275,-7.3227,-7.3858,-7.4538,-7.459,-7.4771,-7.544,-7.4538,-7.3663,-7.32,-7.4745,-7.5716,-7.5372,-7.6128,-7.6959,-7.768,-7.7438,-7.7492,-7.81,-7.7014,-7.6495,-7.6755,-7.6547,-7.6298,-7.5908,-7.6532,-7.6064,-7.4622,-7.446,-7.3592,-7.2096,-7.0996,-7.0661,-7.0948,-7.1581,-7.2188,-7.277,-7.2723,-7.2736,-7.2767,-7.3358,-7.3124,-7.2624,-7.3185,-7.3363,-7.334,-7.3122,-7.1843,-7.0271,-6.991,-6.9586,-6.9268,-6.8963,-6.8756,-6.8597,-6.8339,-6.7592,-6.6701,-6.603,-6.4917,-6.3566,-6.1804,-6.0589,-5.9152,-5.6814,-5.4869,-5.3151,-5.1828,-5.169,-5.1375,-5.0315,-5.0822,-5.1076,-5.0242,-5.1609,-5.268,-5.2769,-5.3383,-5.3873,-5.4173,-5.3482,-5.2899,-5.2729,-5.1286,-5.0119,-4.9386,-4.9225,-4.8959,-4.8564,-4.9433,-5.0305,-5.0979,-5.1142,-5.1949,-5.3402,-5.4143,-5.5041,-5.6003,-5.6987,-5.756,-5.7879,-5.8769,-5.9282,-5.9553,-6.038,-6.0863,-6.1217,-6.2333,-6.3004,-6.3319,-6.402,-6.4588,-6.5155,-7.3447,-7.338,-7.338,-7.3559,-7.3639,-7.3716,-7.379,-7.3876,-7.3922,-7.3922,-7.4618,-7.5082,-7.5082,-7.5036,-7.5128,-7.5465,-7.6221,-7.6743,-7.6832,-7.761,-7.8092,-7.81,-7.81,-7.8504,-7.9442,-7.865,-7.8636,-7.9454,-7.9454,-7.9026,-7.8168,-7.559,-7.4888,-7.567,-7.3953,-7.3647,-7.4452,-7.4525,-7.4564,-7.4559,-7.4496,-7.4474,-7.446,-7.4411,-7.4382,-7.4338,-7.4314,-7.4242,-7.4144,-7.4053,-7.3935,-7.3756,-7.2684,-7.1762,-7.0888,-6.999,-6.9575,-6.9299,-6.8436,-6.7505,-6.6766,-6.6705,-6.529,-6.3448,-6.1804,-6.0454,-5.8721,-5.5658,-5.4825,-5.4059,-5.198,-5.2258,-5.217,-5.0387,-5.0867,-5.1209,-5.041,-5.1741,-5.2813,-5.2813,-5.4459,-5.5831,-5.6502,-5.6153,-5.6135,-5.6853,-5.5417,-5.3304,-5.055,-5.0875,-5.0901,-5.0311,-5.0751,-5.156,-5.2857,-5.1952,-5.3077,-5.614,-5.5375,-5.6593,-5.9551,-5.9925,-6.0281,-6.0633,-5.9946,-6.0315,-6.1487,-6.1947,-6.2172,-6.23,-6.3708,-6.4284,-6.4348,-6.502,-6.5724,-6.6332,-7.3407,-7.4312,-7.4976,-7.4483,-7.4923,-7.5362,-7.5465,-7.5514,-7.5538,-7.5585,-7.5817,-7.5802,-7.5205,-7.5714,-7.5932,-7.5468,-7.6203,-7.6959,-7.7559,-7.736,-7.7493,-7.8054,-7.8154,-7.8299,-7.8624,-7.8974,-7.9259,-7.9493,-7.8948,-7.8269,-7.7414,-7.6556,-7.5413,-7.4089,-7.3498,-7.3086,-7.2837,-7.3437,-7.4054,-7.4595,-7.4519,-7.4499,-7.457,-7.5074,-7.4917,-7.4466,-7.5002,-7.5128,-7.5089,-7.4983,-7.4926,-7.4767,-7.4292,-7.3112,-7.1891,-7.1475,-7.0863,-7.0209,-6.9819,-6.9068,-6.8394,-6.8264,-6.7326,-6.6036,-6.4258,-6.153,-5.9027,-5.7821,-5.6455,-5.5006,-5.3514,-5.3417,-5.3135,-5.1946,-5.1982,-5.2272,-5.2562,-5.3181,-5.4099,-5.5375,-5.5748,-5.6298,-5.7196,-5.6651,-5.6357,-5.6577,-5.601,-5.4917,-5.3219,-5.3016,-5.2589,-5.1706,-5.2462,-5.3014,-5.3176,-5.387,-5.5224,-5.7164,-5.7933,-5.9068,-6.0529,-6.0969,-6.1127,-6.1119,-6.1513,-6.2085,-6.2782,-6.2918,-6.3505,-6.4412,-6.4866,-6.5739,-6.6809,-6.7037,-6.7459,-6.7877,-7.5232,-7.6056,-7.6724,-7.6265,-7.664,-7.7109,-7.7241,-7.7267,-7.7292,-7.7365,-7.7365,-7.7195,-7.6676,-7.7169,-7.6922,-7.5527,-7.6205,-7.6941,-7.7464,-7.7343,-7.7499,-7.806,-7.8124,-7.8324,-7.8649,-7.8871,-7.9169,-7.9493,-7.8675,-7.8202,-7.7979,-7.7316,-7.6365,-7.5188,-7.4876,-7.4267,-7.3507,-7.4058,-7.4392,-7.4588,-7.4558,-7.4701,-7.5013,-7.517,-7.5299,-7.5396,-7.5534,-7.5779,-7.6031,-7.5874,-7.5799,-7.5756,-7.5514,-7.4449,-7.3241,-7.2717,-7.188,-7.1137,-7.0974,-7.0037,-6.9093,-6.896,-6.8282,-6.7113,-6.5265,-6.2409,-5.9927,-5.9017,-5.7497,-5.5969,-5.4818,-5.4529,-5.4246,-5.3644,-5.3572,-5.3763,-5.4272,-5.4838,-5.5655,-5.6772,-5.7085,-5.7444,-5.8042,-5.7973,-5.79,-5.7898,-5.804,-5.7761,-5.6983,-5.533,-5.4008,-5.3207,-5.3785,-5.4207,-5.4394,-5.5327,-5.6799,-5.8765,-6.0613,-6.1675,-6.1933,-6.2527,-6.2729,-6.2565,-6.3099,-6.3448,-6.3865,-6.3865,-6.4551,-6.5629,-6.589,-6.6835,-6.8011,-6.8273,-6.8536,-6.8797,-7.8233,-7.83,-7.8366,-7.8485,-7.8575,-7.8661,-7.8863,-7.8889,-7.8915,-7.8965,-7.8989,-7.9028,-7.9067,-7.9037,-7.812,-7.5935,-7.6419,-7.6865,-7.6863,-7.7658,-7.8085,-7.8085,-7.8215,-7.8637,-7.9384,-7.8727,-7.8715,-7.9415,-7.8714,-7.8748,-7.9383,-7.7823,-7.7497,-7.8194,-7.7375,-7.661,-7.5887,-7.5898,-7.5462,-7.4764,-7.4759,-7.5188,-7.569,-7.4913,-7.5521,-7.6722,-7.5819,-7.6066,-7.6762,-7.6591,-7.6555,-7.6591,-7.6374,-7.5658,-7.4706,-7.3688,-7.2763,-7.2057,-7.1886,-7.061,-6.9256,-6.9222,-6.8399,-6.7083,-6.5124,-6.3123,-6.1197,-5.9502,-5.8206,-5.7057,-5.5992,-5.5595,-5.5468,-5.5259,-5.535,-5.5432,-5.5542,-5.6608,-5.7381,-5.7408,-5.853,-5.9251,-5.9129,-5.996,-6.0449,-6.0407,-6.1114,-6.1517,-6.1305,-5.7847,-5.5614,-5.4954,-5.49,-5.5398,-5.6415,-5.6537,-5.8023,-6.0857,-6.3269,-6.4143,-6.356,-6.4493,-6.4855,-6.4767,-6.454,-6.4619,-6.4859,-6.4859,-6.5318,-6.6106,-6.6795,-6.7484,-6.8205,-6.8862,-6.9091,-6.9091,-7.816,-7.8262,-7.8398,-7.8391,-7.8485,-7.8575,-7.8661,-7.8679,-7.8798,-7.8915,-7.8965,-7.9221,-7.984,-7.9347,-7.9044,-7.9128,-7.8825,-7.8593,-7.8612,-7.8844,-7.9036,-7.907,-7.9653,-7.982,-7.9467,-7.9948,-7.965,-7.8597,-7.9026,-7.8659,-7.7638,-7.7853,-7.745,-7.6418,-7.6236,-7.6063,-7.5887,-7.5898,-7.613,-7.6505,-7.6527,-7.623,-7.5772,-7.5584,-7.5278,-7.4995,-7.4761,-7.5222,-7.5867,-7.5766,-7.6146,-7.6553,-7.6421,-7.5683,-7.4822,-7.4409,-7.3645,-7.2831,-7.257,-7.2195,-7.1855,-7.1636,-6.9929,-6.777,-6.5955,-6.4066,-6.2476,-6.1815,-6.0375,-5.89,-5.7781,-5.7066,-5.6353,-5.5468,-5.5485,-5.5933,-5.7088,-5.7876,-5.8851,-6.0157,-6.0862,-6.1281,-6.1356,-6.1431,-6.1467,-6.1428,-6.2014,-6.2289,-6.2122,-6.1569,-6.0188,-5.8032,-5.8849,-5.9078,-5.8537,-6.0045,-6.1539,-6.2908,-6.4393,-6.4797,-6.4236,-6.5278,-6.5575,-6.5227,-6.5798,-6.6089,-6.6344,-6.6163,-6.6832,-6.7988,-6.7965,-6.8492,-6.9471,-6.9732,-6.9893,-6.9988,-8.0274,-8.0187,-8.0169,-8.0591,-8.0421,-8.0392,-8.0868,-8.0974,-8.1031,-8.1154,-8.1207,-8.1414,-8.1839,-8.1542,-8.1514,-8.1978,-8.0295,-7.9214,-7.9214,-7.9271,-7.9308,-7.9364,-7.9753,-7.9826,-7.9462,-7.9905,-7.9714,-7.887,-7.931,-7.9099,-7.8213,-7.8681,-7.8238,-7.6997,-7.7017,-7.661,-7.5889,-7.5897,-7.5926,-7.5965,-7.5941,-7.5885,-7.5748,-7.5358,-7.5374,-7.5484,-7.4704,-7.4934,-7.5546,-7.5059,-7.5154,-7.543,-7.5305,-7.4818,-7.4321,-7.4158,-7.3398,-7.2601,-7.2338,-7.1929,-7.1441,-7.084,-6.9511,-6.7957,-6.6219,-6.4552,-6.3256,-6.2715,-6.1422,-6.0203,-5.9583,-5.905,-5.8518,-5.7986,-5.7958,-5.8297,-5.919,-5.978,-6.0444,-6.1462,-6.2222,-6.2669,-6.2745,-6.3276,-6.3613,-6.3575,-6.4203,-6.4486,-6.4227,-6.4744,-6.3712,-6.0885,-6.1303,-6.1425,-6.1026,-6.2759,-6.4064,-6.4941,-6.5654,-6.599,-6.5814,-6.6394,-6.6534,-6.6403,-6.6609,-6.6761,-6.6765,-6.6923,-6.7635,-6.8486,-6.8759,-6.9323,-7.0176,-7.027,-7.0363,-7.0363,-8.2837,-8.2451,-8.2253,-8.3134,-8.2847,-8.2708,-8.3503,-8.3649,-8.371,-8.377,-8.3828,-8.3923,-8.4077,-8.4082,-8.4108,-8.425,-8.1608,-7.9892,-7.9776,-7.9718,-7.9678,-7.9678,-7.9678,-7.9657,-7.9593,-7.9485,-7.9428,-7.9493,-7.9556,-7.9578,-7.9617,-7.9509,-7.9174,-7.8597,-7.8305,-7.7508,-7.628,-7.616,-7.5677,-7.4982,-7.4965,-7.5305,-7.5729,-7.4974,-7.5499,-7.6409,-7.4948,-7.4828,-7.5301,-7.4491,-7.4162,-7.4072,-7.3935,-7.3744,-7.3472,-7.3381,-7.264,-7.1827,-7.186,-7.1239,-7.0266,-6.9094,-6.8679,-6.8069,-6.637,-6.5076,-6.4037,-6.3285,-6.2135,-6.1248,-6.1285,-6.1048,-6.0885,-6.0885,-6.0995,-6.1204,-6.1534,-6.1871,-6.2297,-6.2673,-6.3495,-6.4051,-6.4133,-6.5275,-6.5992,-6.5952,-6.6779,-6.7142,-6.6843,-6.7514,-6.6738,-6.4217,-6.3679,-6.3692,-6.407,-6.5094,-6.5958,-6.6759,-6.6989,-6.719,-6.7516,-6.7718,-6.7809,-6.7728,-6.7448,-6.7251,-6.7183,-6.7637,-6.8169,-6.8741,-6.9377,-7.0046,-7.0683,-7.0549,-7.0675,-7.0775,-8.2837,-8.2377,-8.2183,-8.3062,-8.3205,-8.3303,-8.3418,-8.3587,-8.368,-8.371,-8.377,-8.4069,-8.4802,-8.4348,-8.4221,-8.4982,-8.3991,-8.308,-8.2428,-8.1794,-8.1427,-8.1504,-8.1504,-8.1173,-8.0448,-7.9788,-7.9494,-7.9493,-7.9493,-7.9556,-7.9578,-7.8867,-7.8854,-7.9416,-7.7954,-7.7586,-7.7959,-7.7305,-7.6905,-7.6717,-7.6711,-7.6354,-7.5794,-7.5631,-7.5257,-7.4753,-7.4509,-7.4466,-7.4561,-7.4364,-7.4195,-7.4072,-7.4014,-7.3342,-7.261,-7.2534,-7.1783,-7.1227,-7.2396,-7.2427,-7.175,-7.0193,-6.9626,-6.9017,-6.7314,-6.6139,-6.5339,-6.5062,-6.3705,-6.2533,-6.2401,-6.1805,-6.1321,-6.1187,-6.1837,-6.2678,-6.3518,-6.3991,-6.482,-6.6256,-6.617,-6.6235,-6.6992,-6.7011,-6.7014,-6.7127,-6.8213,-6.879,-6.8784,-6.9798,-7.014,-6.9669,-6.8541,-6.798,-6.8235,-6.7995,-6.7731,-6.7475,-6.787,-6.7858,-6.7626,-6.8743,-6.9164,-6.8969,-6.8726,-6.9115,-6.9848,-6.9079,-6.9512,-7.0489,-7.0406,-7.0909,-7.1665,-7.106,-7.1378,-7.21,-8.3406,-8.3372,-8.3333,-8.3791,-8.3975,-8.4268,-8.4729,-8.4907,-8.5004,-8.5004,-8.5028,-8.5244,-8.5668,-8.5419,-8.54,-8.5843,-8.5164,-8.4585,-8.4297,-8.3596,-8.296,-8.2553,-8.2553,-8.2162,-8.1376,-8.1018,-8.0883,-8.0896,-8.0908,-8.0931,-8.0942,-8.0553,-8.0423,-8.0384,-7.9548,-7.8903,-7.8376,-7.8006,-7.7575,-7.7083,-7.7107,-7.6861,-7.6503,-7.6503,-7.6209,-7.5737,-7.5308,-7.5123,-7.5015,-7.4456,-7.4242,-7.4067,-7.351,-7.2982,-7.2399,-7.1814,-7.1178,-7.08,-7.1407,-7.143,-7.1022,-6.9697,-6.9209,-6.8754,-6.7427,-6.6704,-6.624,-6.6074,-6.5347,-6.4657,-6.4613,-6.4314,-6.401,-6.401,-6.4528,-6.5113,-6.5687,-6.6103,-6.6615,-6.7516,-6.7812,-6.8035,-6.835,-6.9015,-6.9399,-6.9399,-7.0221,-7.0648,-7.0517,-7.1406,-7.2025,-7.2221,-7.0917,-7.0323,-7.0531,-7.0444,-7.0116,-6.9565,-6.9885,-6.9915,-6.9624,-7.0201,-7.0278,-7.0004,-6.9923,-7.001,-7.0243,-7.0226,-7.0497,-7.0914,-7.1198,-7.1571,-7.1965,-7.2033,-7.2361,-7.279,-8.4161,-8.4322,-8.4326,-8.4595,-8.4821,-8.5158,-8.5811,-8.6184,-8.6368,-8.6368,-8.6588,-8.6692,-8.6499,-8.6562,-8.6577,-8.6443,-8.5854,-8.5551,-8.5681,-8.5157,-8.4415,-8.3427,-8.3213,-8.2745,-8.1975,-8.1991,-8.2022,-8.2091,-8.2089,-8.2112,-8.2112,-8.1967,-8.1672,-8.1243,-8.0888,-8.008,-7.8991,-7.8786,-7.8319,-7.7688,-7.7469,-7.7414,-7.7375,-7.7173,-7.7082,-7.6934,-7.6301,-7.5923,-7.5596,-7.4833,-7.4428,-7.4056,-7.3121,-7.2714,-7.2391,-7.1448,-7.0925,-7.0647,-7.0515,-7.0419,-7.0133,-6.9348,-6.9053,-6.8716,-6.7921,-6.746,-6.7146,-6.7025,-6.6662,-6.6381,-6.6469,-6.6469,-6.6469,-6.6555,-6.6924,-6.7354,-6.7579,-6.7863,-6.8171,-6.8533,-6.9113,-6.954,-6.9628,-7.0867,-7.1597,-7.1485,-7.2046,-7.2293,-7.2159,-7.2875,-7.3553,-7.4084,-7.2816,-7.2248,-7.2437,-7.251,-7.2235,-7.18,-7.187,-7.1764,-7.1539,-7.1482,-7.1315,-7.1121,-7.1041,-7.0984,-7.0864,-7.111,-7.1301,-7.1371,-7.1867,-7.2088,-7.2414,-7.2873,-7.3215,-7.3543,-8.4953,-8.458,-8.4358,-8.52,-8.5474,-8.5666,-8.5704,-8.6504,-8.711,-8.711,-8.7944,-8.8209,-8.7401,-8.7385,-8.7109,-8.6293,-8.6336,-8.6412,-8.6494,-8.6533,-8.5816,-8.4259,-8.3505,-8.2727,-8.1926,-8.1975,-8.2007,-8.2012,-8.2052,-8.2089,-8.2073,-8.1324,-8.1382,-8.2031,-8.048,-8.0183,-8.0769,-7.996,-7.957,-7.9453,-7.8645,-7.8311,-7.8233,-7.7394,-7.7114,-7.7067,-7.6946,-7.6381,-7.5668,-7.5534,-7.4923,-7.4071,-7.3168,-7.2754,-7.2413,-7.1562,-7.1106,-7.0871,-7.0787,-7.0609,-7.0348,-7.031,-7.0068,-6.9852,-6.9702,-6.8981,-6.8335,-6.8218,-6.7457,-6.6849,-6.6849,-6.693,-6.7049,-6.7165,-6.7958,-6.8631,-6.8902,-6.8973,-6.9374,-7.0371,-7.0494,-7.0776,-7.1542,-7.2257,-7.2688,-7.2653,-7.3193,-7.349,-7.349,-7.4576,-7.5496,-7.6252,-7.5206,-7.4625,-7.4639,-7.4087,-7.3609,-7.3213,-7.2901,-7.2441,-7.1995,-7.2472,-7.2555,-7.2355,-7.2196,-7.2418,-7.3009,-7.194,-7.1946,-7.2517,-7.2159,-7.2604,-7.3342,-7.3167,-7.3734,-7.4542,-8.4252,-8.4486,-8.4648,-8.4584,-8.5128,-8.559,-8.5705,-8.6047,-8.6312,-8.6312,-8.7116,-8.7417,-8.6607,-8.6987,-8.7017,-8.6261,-8.6285,-8.6375,-8.6528,-8.661,-8.617,-8.5087,-8.43,-8.3757,-8.3465,-8.3048,-8.2824,-8.283,-8.2325,-8.2089,-8.2073,-8.1831,-8.1859,-8.2163,-8.1563,-8.1195,-8.0975,-8.0664,-8.0195,-7.9687,-7.9333,-7.8887,-7.8429,-7.8618,-7.8019,-7.7192,-7.7684,-7.7268,-7.6497,-7.6493,-7.6196,-7.5619,-7.4156,-7.3625,-7.3258,-7.176,-7.1178,-7.103,-7.1005,-7.0787,-7.0547,-7.0451,-7.0353,-7.0217,-7.0003,-6.9664,-6.9323,-6.9206,-6.8782,-6.8515,-6.8677,-6.8677,-6.8716,-6.9013,-6.9489,-6.9884,-7.0003,-7.0133,-7.0537,-7.1449,-7.1535,-7.185,-7.2594,-7.3275,-7.3636,-7.3527,-7.4067,-7.4361,-7.432,-7.5479,-7.6443,-7.7047,-7.7033,-7.6626,-7.5762,-7.63,-7.5974,-7.4723,-7.5406,-7.5217,-7.4264,-7.4765,-7.4632,-7.3937,-7.3856,-7.3589,-7.3252,-7.3178,-7.3253,-7.3564,-7.3706,-7.3997,-7.4394,-7.4788,-7.5254,-7.5598,-8.4074,-8.4582,-8.4861,-8.4462,-8.4968,-8.5431,-8.5589,-8.5896,-8.6125,-8.6201,-8.6929,-8.7233,-8.6457,-8.688,-8.6949,-8.6236,-8.6184,-8.6285,-8.6472,-8.6583,-8.63,-8.5529,-8.4764,-8.4243,-8.3971,-8.3248,-8.2886,-8.2893,-8.2337,-8.2065,-8.2101,-8.2172,-8.2162,-8.2195,-8.2248,-8.1964,-8.1401,-8.1406,-8.1054,-8.0508,-8.0234,-7.9762,-7.9235,-7.9567,-7.8969,-7.7941,-7.8285,-7.7987,-7.7365,-7.71,-7.6975,-7.6636,-7.5121,-7.4395,-7.3801,-7.2207,-7.1649,-7.1502,-7.1183,-7.1005,-7.0843,-7.0601,-7.054,-7.0477,-7.0247,-7.0179,-7.0109,-7.0001,-6.9816,-6.9778,-6.9999,-6.9961,-7.0033,-7.0375,-7.0532,-7.0767,-7.1094,-7.1283,-7.1657,-7.2458,-7.2765,-7.312,-7.3607,-7.4254,-7.4618,-7.4511,-7.4828,-7.5165,-7.5532,-7.6459,-7.7254,-7.7737,-7.8143,-7.7725,-7.6541,-7.7441,-7.7327,-7.6087,-7.6984,-7.6973,-7.6116,-7.6332,-7.6092,-7.5242,-7.5242,-7.4846,-7.4264,-7.4504,-7.4545,-7.4614,-7.4792,-7.4912,-7.5016,-7.5809,-7.612,-7.6134,-8.4713,-8.4863,-8.5006,-8.5006,-8.5094,-8.5262,-8.5388,-8.6195,-8.685,-8.7006,-8.7849,-8.8077,-8.7267,-8.7225,-8.6915,-8.617,-8.6159,-8.6254,-8.6384,-8.6583,-8.635,-8.5529,-8.4743,-8.391,-8.3056,-8.23,-8.1943,-8.203,-8.2022,-8.2026,-8.2104,-8.2101,-8.2133,-8.2192,-8.2195,-8.2254,-8.2299,-8.23,-8.2304,-8.2226,-8.1367,-8.1015,-8.0898,-8.0051,-7.9717,-7.96,-7.8721,-7.8347,-7.8174,-7.7287,-7.696,-7.6741,-7.5857,-7.4911,-7.3917,-7.2904,-7.2607,-7.2391,-7.1362,-7.1201,-7.1247,-7.0979,-7.086,-7.0794,-7.0622,-7.0652,-7.0681,-7.0622,-7.0494,-7.0425,-7.0593,-7.0593,-7.069,-7.0871,-7.0952,-7.1313,-7.216,-7.2354,-7.2675,-7.3427,-7.4263,-7.4763,-7.4619,-7.5295,-7.566,-7.5599,-7.5427,-7.5894,-7.7207,-7.7764,-7.8177,-7.8611,-7.8404,-7.79,-7.7019,-7.7243,-7.7267,-7.7194,-7.723,-7.7127,-7.693,-7.693,-7.6693,-7.6292,-7.6292,-7.6292,-7.6292,-7.5764,-7.5596,-7.5596,-7.512,-7.4947,-7.5016,-7.5809,-7.612,-7.6134,-8.4665,-8.4722,-8.4863,-8.4961,-8.5051,-8.5285,-8.6023,-8.6413,-8.692,-8.7531,-8.7959,-8.7887,-8.7083,-8.6968,-8.6736,-8.6108,-8.6065,-8.6094,-8.6254,-8.6375,-8.6412,-8.6223,-8.6103,-8.594,-8.5668,-8.4339,-8.3696,-8.3742,-8.2567,-8.2026,-8.2104,-8.2101,-8.2123,-8.2133,-8.2179,-8.2202,-8.2215,-8.2285,-8.2295,-8.23,-8.2031,-8.1562,-8.1054,-8.1404,-8.0765,-7.9678,-7.9398,-7.8916,-7.8238,-7.7372,-7.7014,-7.6819,-7.5828,-7.4878,-7.4052,-7.3724,-7.3646,-7.3588,-7.3297,-7.322,-7.2909,-7.1433,-7.1077,-7.1038,-7.0965,-7.0889,-7.081,-7.0766,-7.0643,-7.0652,-7.0777,-7.0805,-7.086,-7.1081,-7.1607,-7.2109,-7.2428,-7.2944,-7.3613,-7.4372,-7.4692,-7.5022,-7.561,-7.5772,-7.5763,-7.5599,-7.589,-7.6503,-7.7528,-7.7943,-7.8417,-7.9112,-7.9178,-7.8866,-7.832,-7.851,-7.8135,-7.723,-7.8492,-7.8727,-7.8212,-7.8275,-7.7918,-7.7344,-7.7181,-7.6702,-7.6047,-7.6272,-7.6346,-7.621,-7.6415,-7.6533,-7.6568,-7.6809,-7.6789,-7.6609,-8.4518,-8.4665,-8.4722,-8.4779,-8.4871,-8.5151,-8.5652,-8.6165,-8.6671,-8.7209,-8.7413,-8.7305,-8.6928,-8.6585,-8.6317,-8.5964,-8.5958,-8.606,-8.6184,-8.6354,-8.6414,-8.65,-8.6636,-8.6582,-8.6305,-8.4686,-8.3893,-8.3982,-8.2614,-8.1983,-8.2065,-8.2065,-8.2077,-8.2101,-8.2143,-8.2179,-8.2215,-8.2227,-8.2276,-8.2281,-8.2292,-8.1989,-8.1562,-8.2109,-8.1637,-8.0645,-7.9957,-7.9359,-7.8721,-7.7497,-7.7014,-7.6846,-7.6246,-7.5665,-7.515,-7.4744,-7.4649,-7.4554,-7.4222,-7.4156,-7.3884,-7.2694,-7.2134,-7.1746,-7.1355,-7.1236,-7.117,-7.1085,-7.1053,-7.1067,-7.113,-7.113,-7.1294,-7.1756,-7.2258,-7.2778,-7.3474,-7.3992,-7.4562,-7.5362,-7.5427,-7.5567,-7.6052,-7.6015,-7.5979,-7.6097,-7.6651,-7.7341,-7.8062,-7.8441,-7.885,-7.9284,-7.9103,-7.8998,-7.8928,-7.9223,-7.9002,-7.8239,-7.9357,-7.9634,-7.9186,-7.9258,-7.8983,-7.8317,-7.8119,-7.7673,-7.7122,-7.7278,-7.7232,-7.7007,-7.7317,-7.7313,-7.7223,-7.7223,-7.7009,-7.6793,-8.4317,-8.4518,-8.4665,-8.453,-8.476,-8.4901,-8.4939,-8.5675,-8.6343,-8.6469,-8.6561,-8.665,-8.677,-8.6125,-8.5704,-8.5779,-8.5958,-8.6126,-8.6191,-8.6323,-8.6384,-8.6472,-8.65,-8.6157,-8.5506,-8.3906,-8.3174,-8.3325,-8.2353,-8.1943,-8.1991,-8.1983,-8.2026,-8.2104,-8.2101,-8.2153,-8.2209,-8.2209,-8.2248,-8.2293,-8.2293,-8.2285,-8.2304,-8.2304,-8.2304,-8.207,-8.0324,-7.9717,-7.9437,-7.7606,-7.6955,-7.691,-7.691,-7.6883,-7.6738,-7.5876,-7.5572,-7.5361,-7.4631,-7.4481,-7.4561,-7.4544,-7.3834,-7.292,-7.1969,-7.1792,-7.1792,-7.1681,-7.1628,-7.1591,-7.1533,-7.1494,-7.1804,-7.2657,-7.2851,-7.3452,-7.4999,-7.5288,-7.5553,-7.6248,-7.6301,-7.625,-7.6118,-7.6034,-7.6233,-7.6782,-7.7559,-7.8179,-7.8631,-7.916,-7.9331,-7.9177,-7.8677,-7.8647,-7.9172,-7.9621,-7.9881,-7.9967,-7.9969,-8.0045,-7.9977,-7.9899,-7.9665,-7.9231,-7.8987,-7.887,-7.8823,-7.8441,-7.8101,-7.7893,-7.7667,-7.7402,-7.7223,-7.7223,-7.7009,-7.6793,-8.4317,-8.4431,-8.4579,-8.4627,-8.4808,-8.5128,-8.5735,-8.6093,-8.6526,-8.7179,-8.6861,-8.6608,-8.665,-8.5968,-8.559,-8.5704,-8.5926,-8.6031,-8.6026,-8.6094,-8.6191,-8.6285,-8.6384,-8.6075,-8.5385,-8.435,-8.3962,-8.4126,-8.2572,-8.1869,-8.1991,-8.1991,-8.2022,-8.2026,-8.2065,-8.2151,-8.221,-8.2187,-8.2195,-8.2234,-8.2287,-8.226,-8.2237,-8.2264,-8.2304,-8.207,-8.0324,-7.9717,-7.9437,-7.766,-7.7034,-7.6983,-7.6999,-7.6949,-7.6855,-7.666,-7.6611,-7.6612,-7.6417,-7.6387,-7.6274,-7.5659,-7.5338,-7.4928,-7.4002,-7.3755,-7.3518,-7.2734,-7.2608,-7.238,-7.1646,-7.1474,-7.1804,-7.2657,-7.3316,-7.4092,-7.5118,-7.5855,-7.6338,-7.6466,-7.6397,-7.635,-7.6276,-7.609,-7.6032,-7.6101,-7.7352,-7.8094,-7.825,-7.9077,-7.9562,-7.9645,-7.9411,-7.9614,-8.0488,-8.0775,-8.069,-8.0313,-8.0654,-8.0876,-8.0803,-8.0207,-7.9822,-7.9743,-7.915,-7.8823,-7.8657,-7.8441,-7.8101,-7.7893,-7.7667,-7.7579,-7.7525,-7.7313,-7.7009,-7.6702,-8.4215,-8.428,-8.4381,-8.4381,-8.4665,-8.4921,-8.5242,-8.5848,-8.6358,-8.6776,-8.6615,-8.6437,-8.6437,-8.5761,-8.5431,-8.559,-8.578,-8.589,-8.5887,-8.5992,-8.606,-8.6159,-8.6254,-8.6182,-8.5898,-8.4649,-8.3924,-8.3716,-8.2396,-8.1776,-8.189,-8.1926,-8.192,-8.1983,-8.2026,-8.2077,-8.2133,-8.2153,-8.2162,-8.221,-8.2234,-8.2248,-8.2215,-8.2285,-8.23,-8.2148,-8.0813,-7.9782,-7.8897,-7.755,-7.7051,-7.6985,-7.7004,-7.6972,-7.6936,-7.6936,-7.6936,-7.6987,-7.7022,-7.7033,-7.6897,-7.6521,-7.6411,-7.6092,-7.4753,-7.4388,-7.4211,-7.373,-7.3611,-7.341,-7.2912,-7.2857,-7.3096,-7.3933,-7.4438,-7.5002,-7.5837,-7.6361,-7.6632,-7.6612,-7.6531,-7.6444,-7.635,-7.6198,-7.6255,-7.6553,-7.7527,-7.8314,-7.8662,-7.9191,-7.9562,-7.9607,-7.9238,-7.9428,-8.0247,-8.0289,-8.0333,-8.0287,-8.1136,-8.1193,-8.0549,-8.0402,-8.0207,-7.9977,-7.9311,-7.8987,-7.8823,-7.8609,-7.8272,-7.8101,-7.7841,-7.7667,-7.7613,-7.7313,-7.7009,-7.6702,-8.411,-8.4215,-8.4266,-8.4163,-8.4544,-8.4816,-8.4568,-8.5441,-8.6076,-8.5924,-8.5979,-8.607,-8.607,-8.5594,-8.5266,-8.5471,-8.5628,-8.5704,-8.5779,-8.5887,-8.6031,-8.606,-8.6159,-8.6208,-8.624,-8.4695,-8.3644,-8.3181,-8.2173,-8.1713,-8.1814,-8.1776,-8.1852,-8.1991,-8.1983,-8.2039,-8.2112,-8.2112,-8.2123,-8.2192,-8.221,-8.2195,-8.2209,-8.2254,-8.2281,-8.2186,-8.1328,-7.9876,-7.8272,-7.7394,-7.7067,-7.7012,-7.7012,-7.6995,-7.7014,-7.7004,-7.6983,-7.6948,-7.7072,-7.6955,-7.6819,-7.69,-7.6873,-7.6516,-7.5038,-7.4792,-7.4789,-7.4634,-7.4587,-7.4495,-7.4339,-7.4286,-7.4583,-7.537,-7.551,-7.5766,-7.6588,-7.669,-7.671,-7.6691,-7.6652,-7.6531,-7.6421,-7.6301,-7.6469,-7.7081,-7.7685,-7.8377,-7.9045,-7.9233,-7.9328,-7.9387,-7.8878,-7.8868,-7.9502,-7.9426,-7.9623,-8.0258,-8.1296,-8.1203,-8.0073,-8.0587,-8.0584,-8.0103,-7.9558,-7.924,-7.9019,-7.8647,-7.8385,-7.8357,-7.7926,-7.7737,-7.7579,-7.7313,-7.7009,-7.6793,-8.411,-8.4215,-8.4317,-8.4266,-8.5084,-8.5507,-8.4788,-8.5489,-8.5848,-8.5166,-8.5106,-8.5196,-8.5196,-8.53,-8.5388,-8.5429,-8.5589,-8.5705,-8.5704,-8.589,-8.5996,-8.6031,-8.6126,-8.5876,-8.5213,-8.4329,-8.3915,-8.3924,-8.2398,-8.1669,-8.1814,-8.1775,-8.1872,-8.1991,-8.1991,-8.2026,-8.2112,-8.2112,-8.2112,-8.2123,-8.2192,-8.2201,-8.221,-8.2202,-8.226,-8.2193,-8.1325,-7.9876,-7.8272,-7.7375,-7.7089,-7.7106,-7.7106,-7.7059,-7.6995,-7.7063,-7.7073,-7.7082,-7.71,-7.6526,-7.5963,-7.6033,-7.6079,-7.5997,-7.5696,-7.617,-7.6439,-7.5679,-7.553,-7.5273,-7.4535,-7.4353,-7.4598,-7.5454,-7.5526,-7.5821,-7.666,-7.6743,-7.6708,-7.6691,-7.6652,-7.6531,-7.6421,-7.6397,-7.6364,-7.6353,-7.7015,-7.7716,-7.8305,-7.8789,-7.9195,-7.9387,-7.9177,-7.9238,-7.9687,-7.9558,-7.9797,-8.0496,-8.1059,-8.1112,-8.0744,-8.1012,-8.0659,-7.9972,-7.9808,-7.9273,-7.8512,-7.8115,-7.8178,-7.8455,-7.7537,-7.7508,-7.7841,-7.7402,-7.7189,-7.7099,-8.411,-8.4163,-8.4215,-8.4215,-8.5009,-8.5575,-8.5235,-8.5938,-8.6301,-8.5565,-8.5498,-8.5356,-8.4992,-8.5176,-8.5304,-8.5304,-8.5471,-8.559,-8.559,-8.5742,-8.5854,-8.5887,-8.6026,-8.5742,-8.5028,-8.4262,-8.368,-8.3322,-8.2147,-8.16,-8.1691,-8.1713,-8.1796,-8.1887,-8.1975,-8.2036,-8.2065,-8.2077,-8.2089,-8.2089,-8.2123,-8.2182,-8.2192,-8.2187,-8.2248,-8.2104,-8.0778,-7.9451,-7.8269,-7.7386,-7.7095,-7.7089,-7.7089,-7.7075,-7.7059,-7.709,-7.709,-7.7121,-7.7092,-7.6829,-7.6435,-7.5994,-7.6277,-7.6509,-7.5975,-7.6464,-7.6958,-7.6544,-7.6448,-7.6303,-7.592,-7.583,-7.5923,-7.6274,-7.6285,-7.6427,-7.6786,-7.6809,-7.6777,-7.6743,-7.671,-7.6632,-7.6553,-7.6488,-7.6397,-7.6276,-7.6916,-7.7622,-7.825,-7.8673,-7.9203,-7.9751,-7.9331,-7.9166,-7.9388,-7.9071,-7.9093,-7.941,-8.0207,-8.075,-8.0874,-8.1114,-8.0946,-8.0514,-8.0139,-7.9643,-7.9209,-7.8231,-7.8154,-7.867,-7.7517,-7.7159,-7.7267,-7.7007,-7.6833,-7.6779]}]]